[[{"header":{"parameterUnit":"m.s-1","parameterCategory":1,"la1":31.0,"la2":29.5877,"lo1":-88.7671,"lo2":-86.6584,"dy":0.0162,"dx":0.0185,"nx":115,"ny":88,"refTime":"2023-04-12T12:00:00:Z","depth":0,"parameterNumber":2,"parameterNumberName":"U-component_of_WINDS"},"data":[0.0,0.0,0.0,0.0,0.0,0.0,0.0,0.0,0.0,0.0,0.0,0.0,0.0,0.0,0.0,0.0,0.0,0.0,0.0,0.0,0.0,0.0,0.0,0.0,0.0,0.0,0.0,0.0,0.0,0.0,0.0,0.0,0.0,0.0,0.0,0.0,0.0,0.0,0.0,0.0,0.0,0.0,0.0,0.0,0.0,0.0,0.0,0.0,0.0,0.0,0.0,0.0,0.0,0.0,0.0,0.0,0.0,0.0,0.0,0.0,0.0,0.0,0.0,0.0,0.0,0.0,0.0,0.0,0.0,0.0,0.0,0.0,0.0,0.0,0.0,0.0,0.0,0.0,0.0,0.0,0.0,0.0,0.0,0.0,0.0,0.0,0.0,0.0,0.0,0.0,0.0,0.0,0.0,0.0,0.0,0.0,0.0,0.0,0.0,0.0,0.0,0.0,0.0,0.0,0.0,0.0,0.0,0.0,0.0,0.0,0.0,0.0,0.0,0.0,0.0,0.0,0.0,0.0,0.0,0.0,0.0,0.0,0.0,0.0,0.0,0.0,0.0,0.0,0.0,0.0,0.0,0.0,0.0,0.0,0.0,0.0,0.0,0.0,0.0,0.0,0.0,0.0,0.0,0.0,0.0,0.0,0.0,0.0,0.0,0.0,0.0,0.0,0.0,0.0,0.0,0.0,0.0,0.0,0.0,0.0,0.0,0.0,0.0,0.0,0.0,0.0,0.0,0.0,0.0,0.0,0.0,0.0,0.0,0.0,0.0,0.0,0.0,0.0,0.0,0.0,0.0,0.0,0.0,0.0,0.0,0.0,0.0,0.0,0.0,0.0,0.0,0.0,0.0,0.0,0.0,0.0,0.0,0.0,0.0,0.0,0.0,0.0,0.0,0.0,0.0,0.0,0.0,0.0,0.0,0.0,0.0,0.0,0.0,0.0,0.0,0.0,0.0,0.0,0.0,0.0,0.0,0.0,0.0,0.0,0.0,0.0,0.0,0.0,0.0,0.0,0.0,0.0,0.0,0.0,0.0,0.0,0.0,0.0,0.0,0.0,0.0,0.0,0.0,0.0,0.0,0.0,0.0,0.0,0.0,0.0,0.0,0.0,0.0,0.0,0.0,0.0,0.0,0.0,0.0,0.0,0.0,0.0,0.0,0.0,0.0,0.0,0.0,0.0,0.0,0.0,0.0,0.0,0.0,0.0,0.0,0.0,0.0,0.0,0.0,0.0,0.0,0.0,0.0,0.0,0.0,0.0,0.0,0.0,0.0,0.0,0.0,0.0,0.0,0.0,0.0,0.0,0.0,0.0,0.0,0.0,0.0,0.0,0.0,0.0,0.0,0.0,0.0,0.0,0.0,0.0,0.0,0.0,0.0,0.0,0.0,0.0,0.0,0.0,0.0,0.0,0.0,0.0,0.0,0.0,0.0,0.0,0.0,0.0,0.0,0.0,0.0,0.0,0.0,0.0,0.0,0.0,0.0,0.0,0.0,0.0,0.0,0.0,0.0,0.0,0.0,0.0,0.0,0.0,0.0,0.0,0.0,0.0,0.0,0.0,0.0,0.0,0.0,0.0,0.0,0.0,0.0,0.0,0.0,0.0,0.0,0.0,0.0,0.0,0.0,0.0,0.0,0.0,0.0,0.0,0.0,0.0,0.0,0.0,0.0,0.0,0.0,0.0,0.0,0.0,0.0,0.0,0.0,0.0,0.0,0.0,0.0,0.0,0.0,0.0,0.0,0.0,0.0,0.0,0.0,0.0,0.0,0.0,0.0,0.0,0.0,0.0,0.0,0.0,0.0,0.0,0.0,0.0,0.0,0.0,0.0,0.0,0.0,0.0,0.0,0.0,0.0,0.0,0.0,0.0,0.0,0.0,0.0,0.0,0.0,0.0,0.0,0.0,0.0,0.0,0.0,0.0,0.0,0.0,0.0,0.0,0.0,0.0,0.0,0.0,0.0,0.0,0.0,0.0,0.0,0.0,0.0,0.0,0.0,0.0,0.0,0.0,0.0,0.0,0.0,0.0,0.0,0.0,0.0,0.0,0.0,0.0,0.0,0.0,0.0,0.0,0.0,0.0,0.0,0.0,0.0,0.0,0.0,0.0,0.0,0.0,0.0,0.0,0.0,0.0,0.0,0.0,0.0,0.0,0.0,0.0,0.0,0.0,0.0,0.0,0.0,0.0,0.0,0.0,0.0,0.0,0.0,0.0,0.0,0.0,0.0,0.0,0.0,0.0,0.0,0.0,0.0,0.0,0.0,0.0,0.0,0.0,0.0,0.0,0.0,0.0,0.0,0.0,0.0,0.0,0.0,0.0,0.0,0.0,0.0,0.0,0.0,0.0,0.0,0.0,0.0,0.0,0.0,0.0,0.0,0.0,0.0,0.0,0.0,0.0,0.0,0.0,0.0,0.0,0.0,0.0,0.0,0.0,0.0,0.0,0.0,0.0,0.0,0.0,0.0,0.0,0.0,0.0,0.0,0.0,0.0,0.0,0.0,0.0,0.0,0.0,0.0,0.0,0.0,0.0,0.0,0.0,0.0,0.0,0.0,0.0,0.0,0.0,0.0,0.0,0.0,0.0,0.0,0.0,0.0,0.0,0.0,0.0,0.0,0.0,0.0,0.0,0.0,0.0,0.0,0.0,0.0,0.0,0.0,0.0,0.0,0.0,0.0,0.0,0.0,0.0,0.0,0.0,0.0,0.0,0.0,0.0,0.0,0.0,0.0,0.0,0.0,0.0,0.0,0.0,0.0,0.0,0.0,0.0,0.0,0.0,0.0,0.0,0.0,0.0,0.0,0.0,0.0,0.0,0.0,0.0,0.0,0.0,0.0,0.0,0.0,0.0,0.0,0.0,0.0,0.0,0.0,0.0,0.0,0.0,0.0,0.0,0.0,0.0,0.0,0.0,0.0,0.0,0.0,0.0,0.0,0.0,0.0,0.0,0.0,0.0,0.0,0.0,0.0,0.0,0.0,0.0,0.0,0.0,0.0,0.0,0.0,0.0,0.0,0.0,0.0,0.0,0.0,0.0,0.0,0.0,0.0,0.0,0.0,0.0,0.0,0.0,0.0,0.0,0.0,0.0,0.0,0.0,0.0,0.0,0.0,0.0,0.0,0.0,0.0,0.0,0.0,0.0,0.0,0.0,0.0,0.0,0.0,0.0,0.0,0.0,0.0,0.0,0.0,0.0,0.0,0.0,0.0,0.0,0.0,0.0,0.0,0.0,0.0,0.0,0.0,0.0,0.0,0.0,0.0,0.0,0.0,0.0,0.0,0.0,0.0,0.0,0.0,0.0,0.0,0.0,0.0,0.0,0.0,0.0,0.0,0.0,0.0,0.0,0.0,0.0,0.0,0.0,0.0,0.0,0.0,0.0,0.0,0.0,0.0,0.0,0.0,0.0,0.0,0.0,0.0,0.0,0.0,0.0,0.0,0.0,0.0,0.0,0.0,0.0,0.0,0.0,0.0,0.0,0.0,0.0,0.0,0.0,0.0,0.0,0.0,0.0,0.0,0.0,0.0,0.0,0.0,0.0,0.0,0.0,0.0,0.0,0.0,0.0,0.0,0.0,0.0,0.0,0.0,0.0,0.0,0.0,0.0,0.0,0.0,0.0,0.0,0.0,0.0,0.0,0.0,0.0,0.0,0.0,0.0,0.0,0.0,0.0,0.0,0.0,0.0,0.0,0.0,0.0,0.0,0.0,0.0,0.0,0.0,0.0,0.0,0.0,0.0,0.0,0.0,0.0,0.0,0.0,0.0,0.0,0.0,0.0,0.0,0.0,0.0,0.0,0.0,0.0,0.0,0.0,0.0,0.0,0.0,0.0,0.0,0.0,0.0,0.0,0.0,0.0,0.0,0.0,0.0,0.0,0.0,0.0,0.0,0.0,0.0,0.0,0.0,0.0,0.0,0.0,0.0,0.0,0.0,0.0,0.0,0.0,0.0,0.0,0.0,0.0,0.0,0.0,0.0,0.0,0.0,0.0,0.0,0.0,0.0,0.0,0.0,0.0,0.0,0.0,0.0,0.0,0.0,0.0,0.0,0.0,0.0,0.0,0.0,0.0,0.0,0.0,0.0,0.0,0.0,0.0,0.0,0.0,0.0,0.0,0.0,0.0,0.0,0.0,0.0,0.0,0.0,0.0,0.0,0.0,0.0,0.0,0.0,0.0,0.0,0.0,0.0,0.0,0.0,0.0,0.0,0.0,0.0,0.0,0.0,0.0,0.0,0.0,0.0,0.0,0.0,0.0,0.0,0.0,-3.0082,0.0,0.0,0.0,0.0,0.0,0.0,0.0,0.0,0.0,0.0,0.0,0.0,0.0,0.0,0.0,0.0,0.0,0.0,0.0,0.0,0.0,0.0,0.0,0.0,0.0,0.0,0.0,0.0,0.0,0.0,0.0,0.0,0.0,0.0,0.0,0.0,0.0,0.0,0.0,0.0,0.0,0.0,0.0,0.0,0.0,0.0,0.0,0.0,0.0,0.0,0.0,0.0,0.0,0.0,0.0,0.0,0.0,0.0,0.0,0.0,0.0,0.0,0.0,0.0,0.0,0.0,0.0,0.0,0.0,0.0,0.0,0.0,0.0,0.0,0.0,0.0,0.0,0.0,0.0,0.0,0.0,0.0,0.0,0.0,0.0,0.0,0.0,0.0,0.0,0.0,0.0,0.0,0.0,0.0,0.0,0.0,0.0,0.0,0.0,0.0,0.0,0.0,0.0,0.0,0.0,0.0,0.0,0.0,0.0,0.0,-3.061,-3.1315,-3.1579,-3.1615,-3.1409,0.0,0.0,0.0,0.0,0.0,0.0,0.0,0.0,0.0,0.0,0.0,0.0,0.0,0.0,0.0,0.0,0.0,0.0,0.0,0.0,0.0,0.0,0.0,0.0,0.0,0.0,0.0,0.0,0.0,0.0,0.0,0.0,0.0,0.0,0.0,0.0,0.0,0.0,0.0,0.0,0.0,0.0,0.0,0.0,0.0,0.0,0.0,0.0,0.0,0.0,0.0,0.0,0.0,0.0,0.0,0.0,0.0,0.0,0.0,0.0,0.0,0.0,0.0,0.0,0.0,0.0,0.0,0.0,0.0,0.0,0.0,0.0,0.0,0.0,0.0,0.0,0.0,0.0,0.0,0.0,0.0,0.0,0.0,0.0,0.0,0.0,0.0,0.0,0.0,0.0,0.0,0.0,0.0,0.0,0.0,0.0,0.0,0.0,0.0,0.0,0.0,0.0,0.0,0.0,0.0,0.0,0.0,0.0,0.0,0.0,0.0,0.0,-3.3308,-3.3219,-3.2512,0.0,0.0,0.0,0.0,0.0,0.0,0.0,0.0,0.0,0.0,0.0,0.0,0.0,0.0,0.0,0.0,0.0,0.0,0.0,0.0,0.0,0.0,0.0,0.0,0.0,0.0,0.0,0.0,0.0,0.0,0.0,0.0,0.0,0.0,0.0,0.0,0.0,0.0,0.0,0.0,0.0,0.0,0.0,0.0,0.0,0.0,0.0,0.0,0.0,0.0,0.0,0.0,0.0,0.0,0.0,0.0,0.0,0.0,0.0,0.0,0.0,0.0,0.0,0.0,0.0,0.0,0.0,0.0,0.0,0.0,0.0,0.0,0.0,0.0,0.0,0.0,0.0,0.0,0.0,0.0,0.0,0.0,0.0,0.0,0.0,0.0,0.0,0.0,0.0,0.0,0.0,0.0,0.0,0.0,0.0,0.0,0.0,0.0,0.0,0.0,0.0,0.0,0.0,0.0,0.0,0.0,0.0,0.0,0.0,0.0,-3.2849,-3.3774,-3.3721,0.0,-3.3041,0.0,0.0,0.0,0.0,0.0,0.0,0.0,0.0,0.0,0.0,0.0,0.0,0.0,0.0,0.0,0.0,0.0,0.0,0.0,0.0,0.0,0.0,0.0,0.0,0.0,0.0,0.0,0.0,0.0,0.0,0.0,0.0,0.0,0.0,0.0,0.0,0.0,0.0,0.0,0.0,0.0,0.0,0.0,0.0,0.0,0.0,0.0,0.0,0.0,0.0,0.0,0.0,0.0,0.0,0.0,0.0,0.0,0.0,0.0,0.0,0.0,0.0,0.0,0.0,0.0,0.0,0.0,0.0,0.0,0.0,0.0,0.0,0.0,0.0,0.0,0.0,0.0,0.0,0.0,0.0,0.0,0.0,0.0,0.0,0.0,0.0,0.0,0.0,0.0,0.0,0.0,0.0,0.0,0.0,0.0,0.0,0.0,0.0,0.0,0.0,0.0,0.0,0.0,0.0,0.0,0.0,0.0,0.0,0.0,0.0,-3.3947,-3.4726,-3.4594,-3.437,0.0,0.0,0.0,0.0,0.0,0.0,0.0,0.0,0.0,0.0,0.0,0.0,0.0,0.0,0.0,0.0,0.0,0.0,0.0,0.0,0.0,0.0,0.0,0.0,0.0,0.0,0.0,0.0,0.0,0.0,0.0,0.0,0.0,0.0,0.0,0.0,0.0,0.0,0.0,0.0,0.0,0.0,0.0,0.0,0.0,0.0,0.0,0.0,0.0,0.0,0.0,0.0,0.0,0.0,0.0,0.0,0.0,0.0,0.0,0.0,0.0,0.0,0.0,0.0,0.0,0.0,0.0,0.0,0.0,0.0,0.0,0.0,0.0,0.0,0.0,0.0,0.0,0.0,0.0,0.0,0.0,0.0,0.0,0.0,0.0,0.0,0.0,0.0,0.0,0.0,0.0,0.0,0.0,0.0,0.0,0.0,0.0,0.0,0.0,0.0,0.0,0.0,0.0,0.0,0.0,0.0,0.0,0.0,0.0,0.0,-3.3929,-3.517,-3.5844,-3.5568,-3.5293,-3.5101,0.0,0.0,0.0,0.0,0.0,0.0,0.0,0.0,0.0,0.0,0.0,0.0,0.0,0.0,0.0,0.0,0.0,0.0,0.0,0.0,0.0,0.0,0.0,0.0,0.0,0.0,0.0,0.0,0.0,0.0,0.0,0.0,0.0,0.0,0.0,0.0,0.0,0.0,0.0,0.0,0.0,0.0,0.0,0.0,0.0,0.0,0.0,0.0,0.0,0.0,0.0,0.0,0.0,0.0,0.0,0.0,0.0,0.0,0.0,0.0,0.0,0.0,0.0,0.0,0.0,0.0,0.0,0.0,0.0,0.0,0.0,0.0,0.0,0.0,0.0,0.0,0.0,0.0,0.0,0.0,0.0,0.0,0.0,0.0,0.0,0.0,0.0,0.0,0.0,0.0,0.0,0.0,0.0,0.0,0.0,0.0,0.0,0.0,0.0,0.0,0.0,0.0,0.0,0.0,0.0,0.0,0.0,0.0,-3.2884,-3.4955,-3.6502,-3.7301,-3.6569,-3.6154,0.0,0.0,0.0,0.0,0.0,0.0,0.0,0.0,0.0,0.0,0.0,0.0,0.0,0.0,0.0,0.0,0.0,0.0,0.0,0.0,0.0,0.0,0.0,0.0,0.0,0.0,0.0,0.0,0.0,0.0,0.0,0.0,0.0,0.0,0.0,0.0,0.0,0.0,0.0,0.0,0.0,0.0,0.0,0.0,0.0,0.0,0.0,0.0,0.0,0.0,0.0,0.0,0.0,0.0,0.0,0.0,0.0,0.0,0.0,0.0,0.0,0.0,0.0,0.0,0.0,0.0,0.0,0.0,0.0,0.0,0.0,0.0,0.0,0.0,0.0,0.0,0.0,0.0,0.0,0.0,0.0,0.0,0.0,0.0,0.0,0.0,0.0,0.0,0.0,0.0,0.0,0.0,0.0,0.0,0.0,0.0,0.0,0.0,0.0,0.0,0.0,0.0,0.0,0.0,0.0,0.0,0.0,0.0,0.0,-3.2818,-3.4897,-3.6455,-3.7153,-3.6489,-3.6041,0.0,0.0,0.0,0.0,0.0,0.0,0.0,0.0,0.0,0.0,0.0,0.0,0.0,0.0,0.0,0.0,0.0,0.0,0.0,0.0,0.0,0.0,0.0,0.0,0.0,0.0,0.0,0.0,0.0,0.0,0.0,0.0,0.0,0.0,0.0,0.0,0.0,0.0,0.0,0.0,0.0,0.0,0.0,0.0,0.0,0.0,0.0,0.0,0.0,0.0,0.0,0.0,0.0,0.0,0.0,0.0,0.0,0.0,0.0,0.0,0.0,0.0,0.0,0.0,0.0,0.0,0.0,0.0,0.0,0.0,0.0,0.0,0.0,0.0,0.0,0.0,0.0,0.0,0.0,0.0,0.0,0.0,0.0,0.0,0.0,0.0,0.0,0.0,0.0,0.0,0.0,0.0,0.0,0.0,0.0,0.0,0.0,0.0,0.0,0.0,0.0,0.0,0.0,0.0,0.0,0.0,0.0,0.0,0.0,-3.4104,0.0,-3.7069,-3.7748,-3.7102,-3.6622,0.0,0.0,0.0,0.0,0.0,0.0,0.0,0.0,0.0,0.0,0.0,0.0,0.0,0.0,0.0,0.0,0.0,0.0,0.0,0.0,0.0,0.0,0.0,0.0,0.0,0.0,0.0,0.0,0.0,0.0,0.0,0.0,0.0,0.0,0.0,0.0,0.0,0.0,0.0,0.0,0.0,0.0,0.0,0.0,0.0,0.0,0.0,0.0,0.0,0.0,0.0,0.0,0.0,0.0,0.0,0.0,0.0,0.0,0.0,0.0,0.0,0.0,0.0,0.0,0.0,0.0,0.0,0.0,0.0,0.0,0.0,0.0,0.0,0.0,0.0,0.0,0.0,0.0,0.0,0.0,0.0,0.0,0.0,0.0,0.0,0.0,0.0,0.0,0.0,0.0,0.0,0.0,0.0,0.0,0.0,0.0,0.0,0.0,0.0,0.0,0.0,0.0,0.0,0.0,0.0,0.0,0.0,0.0,-3.417,-3.6986,-3.7814,-3.851,-3.9222,-3.856,-3.7847,0.0,0.0,0.0,0.0,0.0,0.0,0.0,0.0,0.0,0.0,0.0,0.0,0.0,0.0,0.0,0.0,0.0,0.0,0.0,0.0,0.0,0.0,0.0,0.0,0.0,0.0,0.0,0.0,0.0,0.0,0.0,0.0,0.0,0.0,0.0,0.0,0.0,0.0,0.0,0.0,0.0,0.0,0.0,0.0,0.0,0.0,0.0,0.0,0.0,0.0,0.0,0.0,0.0,0.0,0.0,0.0,0.0,0.0,0.0,0.0,0.0,0.0,0.0,0.0,0.0,0.0,0.0,0.0,0.0,0.0,0.0,0.0,0.0,0.0,0.0,0.0,0.0,0.0,0.0,0.0,0.0,0.0,0.0,0.0,0.0,0.0,0.0,0.0,0.0,0.0,0.0,0.0,0.0,0.0,0.0,0.0,0.0,0.0,0.0,0.0,0.0,0.0,0.0,0.0,0.0,0.0,0.0,0.0,0.0,-3.8543,-3.8825,-3.9288,-3.9967,-3.9322,-3.8361,0.0,0.0,0.0,0.0,0.0,0.0,0.0,0.0,0.0,0.0,0.0,0.0,0.0,0.0,0.0,0.0,0.0,0.0,0.0,0.0,0.0,0.0,0.0,0.0,0.0,0.0,0.0,0.0,0.0,0.0,0.0,0.0,0.0,0.0,0.0,0.0,0.0,0.0,0.0,0.0,0.0,0.0,0.0,0.0,0.0,0.0,0.0,0.0,0.0,0.0,0.0,0.0,0.0,0.0,0.0,0.0,0.0,0.0,0.0,0.0,0.0,0.0,0.0,0.0,0.0,0.0,0.0,0.0,0.0,0.0,0.0,0.0,0.0,0.0,0.0,0.0,0.0,0.0,0.0,0.0,0.0,0.0,0.0,0.0,0.0,0.0,0.0,0.0,0.0,0.0,0.0,0.0,0.0,0.0,0.0,0.0,0.0,0.0,0.0,0.0,0.0,0.0,0.0,0.0,0.0,0.0,0.0,0.0,0.0,-4.0812,-4.0365,-4.0282,-4.0746,-4.0067,-3.9139,-3.7947,0.0,0.0,0.0,0.0,0.0,0.0,0.0,0.0,0.0,0.0,0.0,0.0,0.0,0.0,0.0,0.0,0.0,0.0,0.0,0.0,0.0,0.0,0.0,0.0,0.0,0.0,0.0,0.0,0.0,0.0,0.0,0.0,0.0,0.0,0.0,0.0,0.0,0.0,0.0,0.0,0.0,0.0,0.0,0.0,0.0,0.0,0.0,0.0,0.0,0.0,0.0,0.0,0.0,0.0,0.0,0.0,0.0,0.0,0.0,0.0,0.0,0.0,0.0,0.0,0.0,0.0,0.0,0.0,0.0,0.0,0.0,0.0,0.0,0.0,0.0,0.0,0.0,0.0,0.0,0.0,0.0,0.0,0.0,0.0,0.0,0.0,0.0,0.0,0.0,0.0,0.0,0.0,0.0,0.0,0.0,0.0,0.0,0.0,0.0,0.0,0.0,0.0,0.0,0.0,0.0,0.0,0.0,0.0,-4.3645,-4.2402,-4.1707,-4.1607,-4.0912,-4.0133,0.0,0.0,0.0,0.0,0.0,0.0,0.0,0.0,0.0,0.0,0.0,0.0,0.0,0.0,0.0,0.0,0.0,0.0,0.0,0.0,0.0,0.0,0.0,0.0,0.0,0.0,0.0,0.0,0.0,0.0,0.0,0.0,0.0,0.0,0.0,0.0,0.0,0.0,0.0,0.0,0.0,0.0,0.0,0.0,0.0,0.0,0.0,0.0,0.0,0.0,0.0,0.0,0.0,0.0,0.0,0.0,0.0,0.0,0.0,0.0,0.0,0.0,0.0,0.0,0.0,0.0,0.0,0.0,0.0,0.0,0.0,0.0,0.0,0.0,0.0,0.0,0.0,0.0,0.0,0.0,0.0,0.0,0.0,0.0,0.0,0.0,0.0,0.0,0.0,0.0,0.0,0.0,0.0,0.0,0.0,0.0,0.0,0.0,0.0,0.0,0.0,0.0,0.0,0.0,0.0,0.0,0.0,0.0,0.0,-4.4324,-4.4962,-4.483,-4.386,-4.2618,-4.1054,0.0,0.0,0.0,0.0,0.0,0.0,0.0,0.0,0.0,0.0,0.0,0.0,0.0,0.0,0.0,0.0,0.0,0.0,0.0,0.0,0.0,0.0,0.0,0.0,0.0,0.0,0.0,0.0,0.0,0.0,0.0,0.0,0.0,0.0,0.0,0.0,0.0,0.0,0.0,0.0,0.0,0.0,0.0,0.0,0.0,0.0,0.0,0.0,0.0,0.0,0.0,0.0,0.0,0.0,0.0,0.0,0.0,0.0,0.0,0.0,0.0,0.0,0.0,0.0,0.0,0.0,0.0,0.0,0.0,0.0,0.0,0.0,0.0,0.0,0.0,0.0,0.0,0.0,0.0,0.0,0.0,0.0,0.0,0.0,0.0,0.0,0.0,0.0,0.0,0.0,0.0,0.0,0.0,0.0,0.0,0.0,0.0,0.0,0.0,0.0,0.0,0.0,0.0,0.0,0.0,0.0,0.0,0.0,-4.3531,-4.5395,-4.6963,-4.7242,-4.6207,-4.4278,-4.2275,0.0,0.0,0.0,0.0,0.0,0.0,0.0,0.0,0.0,0.0,0.0,0.0,0.0,0.0,0.0,0.0,0.0,0.0,0.0,0.0,0.0,0.0,0.0,0.0,0.0,0.0,0.0,0.0,0.0,0.0,0.0,0.0,0.0,0.0,0.0,0.0,0.0,0.0,0.0,0.0,0.0,0.0,0.0,0.0,0.0,0.0,0.0,0.0,0.0,0.0,0.0,0.0,0.0,0.0,0.0,0.0,0.0,0.0,0.0,0.0,0.0,0.0,0.0,0.0,0.0,0.0,0.0,0.0,0.0,0.0,0.0,0.0,0.0,0.0,0.0,0.0,0.0,0.0,0.0,0.0,0.0,0.0,0.0,0.0,0.0,0.0,0.0,0.0,0.0,0.0,0.0,0.0,0.0,0.0,0.0,0.0,0.0,0.0,0.0,0.0,0.0,0.0,0.0,0.0,0.0,0.0,0.0,0.0,-4.5044,-4.6519,-4.8372,-4.9017,-4.8221,-4.5636,-4.3434,0.0,0.0,0.0,0.0,0.0,0.0,0.0,0.0,0.0,0.0,0.0,0.0,0.0,0.0,0.0,0.0,0.0,0.0,0.0,0.0,0.0,0.0,0.0,0.0,0.0,0.0,0.0,0.0,0.0,0.0,0.0,0.0,0.0,0.0,0.0,0.0,0.0,0.0,0.0,0.0,0.0,0.0,0.0,0.0,0.0,0.0,0.0,0.0,0.0,0.0,0.0,0.0,0.0,0.0,0.0,0.0,0.0,0.0,0.0,0.0,0.0,0.0,0.0,0.0,0.0,0.0,0.0,0.0,0.0,0.0,0.0,0.0,0.0,0.0,0.0,0.0,0.0,0.0,0.0,0.0,0.0,0.0,0.0,0.0,0.0,0.0,0.0,0.0,0.0,0.0,0.0,0.0,0.0,0.0,0.0,0.0,0.0,0.0,0.0,0.0,0.0,0.0,0.0,0.0,0.0,0.0,0.0,0.0,-4.5196,-4.7513,-4.8933,-4.9254,-4.8457,-4.5798,-4.338,0.0,0.0,0.0,0.0,0.0,0.0,0.0,0.0,0.0,0.0,0.0,0.0,0.0,0.0,0.0,0.0,0.0,0.0,0.0,0.0,0.0,0.0,0.0,0.0,0.0,0.0,0.0,0.0,0.0,0.0,0.0,0.0,0.0,0.0,0.0,0.0,0.0,0.0,0.0,0.0,0.0,0.0,0.0,0.0,0.0,0.0,0.0,0.0,-3.6307,0.0,0.0,0.0,0.0,0.0,0.0,0.0,0.0,0.0,0.0,0.0,0.0,0.0,0.0,0.0,0.0,0.0,0.0,0.0,0.0,0.0,0.0,0.0,0.0,0.0,0.0,0.0,0.0,0.0,0.0,0.0,0.0,0.0,0.0,0.0,0.0,0.0,0.0,0.0,0.0,0.0,0.0,0.0,0.0,0.0,0.0,0.0,0.0,0.0,0.0,0.0,0.0,0.0,0.0,0.0,0.0,0.0,0.0,0.0,-4.5066,-4.7309,-4.8951,-4.912,-4.789,-4.5656,-4.35,0.0,0.0,0.0,0.0,0.0,0.0,0.0,0.0,0.0,0.0,0.0,0.0,0.0,0.0,0.0,0.0,0.0,0.0,0.0,0.0,0.0,0.0,0.0,0.0,0.0,0.0,0.0,0.0,0.0,0.0,0.0,0.0,0.0,0.0,0.0,0.0,0.0,0.0,0.0,0.0,0.0,0.0,0.0,0.0,0.0,0.0,0.0,0.0,0.0,0.0,0.0,0.0,0.0,0.0,0.0,0.0,0.0,0.0,0.0,0.0,0.0,0.0,0.0,0.0,0.0,0.0,0.0,0.0,0.0,0.0,0.0,0.0,0.0,0.0,0.0,0.0,0.0,0.0,0.0,0.0,0.0,0.0,0.0,0.0,0.0,0.0,0.0,0.0,0.0,0.0,0.0,0.0,0.0,0.0,0.0,0.0,0.0,0.0,0.0,0.0,0.0,0.0,0.0,0.0,0.0,0.0,0.0,-4.2983,-4.4874,-4.6764,-4.8483,-4.8575,-4.7138,-4.5326,-4.3303,-4.1091,0.0,0.0,0.0,0.0,0.0,0.0,0.0,0.0,0.0,0.0,0.0,0.0,0.0,0.0,0.0,0.0,0.0,0.0,0.0,0.0,0.0,0.0,0.0,0.0,0.0,0.0,0.0,0.0,0.0,0.0,0.0,0.0,0.0,0.0,0.0,0.0,0.0,0.0,-3.0138,-3.137,0.0,0.0,0.0,0.0,0.0,0.0,0.0,0.0,-3.6121,0.0,0.0,0.0,0.0,0.0,0.0,0.0,0.0,0.0,0.0,0.0,0.0,0.0,0.0,0.0,0.0,0.0,0.0,0.0,0.0,0.0,0.0,0.0,0.0,0.0,0.0,0.0,0.0,0.0,0.0,0.0,0.0,0.0,0.0,0.0,0.0,0.0,0.0,0.0,0.0,0.0,0.0,0.0,0.0,0.0,0.0,0.0,0.0,0.0,0.0,0.0,0.0,0.0,0.0,0.0,0.0,-4.122,-4.2711,-4.4626,-4.6812,-4.7791,-4.771,-4.6413,-4.4496,-4.2245,-3.9512,0.0,0.0,0.0,0.0,0.0,0.0,0.0,0.0,0.0,0.0,0.0,0.0,0.0,0.0,0.0,0.0,0.0,0.0,0.0,0.0,0.0,0.0,0.0,0.0,0.0,0.0,0.0,0.0,0.0,0.0,0.0,0.0,0.0,0.0,0.0,0.0,0.0,0.0,0.0,-3.1652,-3.2502,0.0,0.0,0.0,0.0,0.0,0.0,0.0,0.0,-3.6132,0.0,0.0,0.0,0.0,0.0,0.0,0.0,0.0,0.0,0.0,0.0,0.0,0.0,0.0,0.0,0.0,0.0,0.0,0.0,0.0,0.0,0.0,0.0,0.0,0.0,0.0,0.0,0.0,0.0,0.0,0.0,0.0,0.0,0.0,0.0,0.0,0.0,0.0,0.0,0.0,0.0,0.0,0.0,0.0,0.0,0.0,0.0,0.0,0.0,0.0,0.0,0.0,0.0,0.0,0.0,-4.0204,-4.169,-4.3406,-4.5324,-4.6413,-4.6284,-4.4959,-4.3654,-4.147,0.0,0.0,0.0,0.0,0.0,0.0,0.0,0.0,0.0,0.0,0.0,0.0,0.0,0.0,0.0,0.0,0.0,0.0,0.0,0.0,0.0,0.0,0.0,0.0,0.0,0.0,0.0,0.0,0.0,0.0,0.0,0.0,0.0,0.0,0.0,0.0,0.0,0.0,0.0,0.0,-3.2311,-3.3096,-3.3506,0.0,0.0,0.0,0.0,0.0,0.0,-3.5559,-3.5747,0.0,0.0,0.0,0.0,0.0,0.0,0.0,0.0,0.0,0.0,0.0,0.0,0.0,0.0,0.0,0.0,0.0,0.0,0.0,0.0,0.0,0.0,0.0,0.0,0.0,0.0,0.0,0.0,0.0,0.0,0.0,0.0,0.0,0.0,0.0,0.0,0.0,0.0,0.0,0.0,0.0,0.0,0.0,0.0,0.0,0.0,0.0,0.0,0.0,0.0,0.0,0.0,0.0,0.0,0.0,-3.9333,-4.0708,-4.2249,-4.3927,-4.5076,-4.5057,-4.3642,-4.2679,-4.0546,0.0,0.0,0.0,0.0,0.0,0.0,0.0,0.0,0.0,0.0,0.0,0.0,0.0,0.0,0.0,0.0,0.0,0.0,0.0,0.0,0.0,0.0,0.0,0.0,0.0,0.0,0.0,0.0,0.0,0.0,0.0,0.0,0.0,0.0,0.0,0.0,0.0,0.0,0.0,0.0,0.0,-3.3734,-3.4088,-3.4178,0.0,0.0,0.0,0.0,-3.5128,-3.5331,0.0,0.0,0.0,0.0,0.0,0.0,0.0,0.0,0.0,0.0,0.0,0.0,0.0,0.0,0.0,0.0,0.0,0.0,0.0,0.0,0.0,0.0,0.0,0.0,0.0,0.0,0.0,0.0,0.0,0.0,0.0,0.0,0.0,0.0,0.0,0.0,0.0,0.0,0.0,0.0,0.0,0.0,0.0,0.0,0.0,0.0,0.0,0.0,0.0,0.0,0.0,0.0,0.0,0.0,0.0,0.0,-3.8933,-4.0385,-4.1895,-4.3678,-4.4478,-4.4349,-4.3468,-4.1426,-3.9118,0.0,0.0,0.0,0.0,0.0,0.0,0.0,0.0,0.0,0.0,0.0,0.0,0.0,0.0,0.0,0.0,0.0,0.0,0.0,0.0,0.0,0.0,0.0,0.0,0.0,0.0,0.0,0.0,0.0,0.0,0.0,0.0,0.0,0.0,0.0,0.0,0.0,0.0,0.0,0.0,0.0,-3.4134,-3.4221,-3.4829,-3.5237,0.0,0.0,-3.5173,-3.5314,-3.5429,0.0,0.0,0.0,0.0,0.0,0.0,0.0,0.0,0.0,0.0,0.0,0.0,0.0,0.0,0.0,0.0,0.0,0.0,0.0,0.0,0.0,0.0,0.0,0.0,0.0,0.0,0.0,0.0,0.0,0.0,0.0,0.0,0.0,0.0,0.0,0.0,0.0,0.0,0.0,0.0,0.0,0.0,0.0,0.0,0.0,0.0,0.0,0.0,0.0,0.0,0.0,0.0,0.0,0.0,0.0,-3.4166,-3.8115,-3.9219,-4.0359,-4.1791,-4.2342,-4.2279,-4.153,-3.9832,-3.7789,0.0,0.0,0.0,0.0,0.0,0.0,0.0,0.0,0.0,0.0,0.0,0.0,0.0,0.0,0.0,0.0,0.0,0.0,0.0,0.0,0.0,0.0,0.0,0.0,0.0,0.0,0.0,0.0,0.0,0.0,0.0,0.0,0.0,0.0,0.0,0.0,0.0,0.0,0.0,0.0,0.0,0.0,-3.4438,-3.5019,0.0,0.0,0.0,-3.5084,-3.5413,0.0,0.0,0.0,0.0,0.0,0.0,0.0,0.0,0.0,0.0,0.0,0.0,0.0,0.0,0.0,0.0,0.0,0.0,0.0,0.0,0.0,0.0,0.0,0.0,0.0,0.0,0.0,0.0,0.0,0.0,0.0,0.0,0.0,0.0,0.0,0.0,0.0,0.0,0.0,0.0,0.0,0.0,0.0,0.0,0.0,0.0,0.0,0.0,0.0,0.0,0.0,0.0,0.0,0.0,0.0,0.0,0.0,-3.7466,-3.8232,-3.9122,-4.0219,-4.0753,-4.0692,-4.001,-3.8442,0.0,0.0,0.0,0.0,0.0,0.0,0.0,0.0,0.0,0.0,0.0,0.0,0.0,0.0,0.0,0.0,0.0,0.0,0.0,0.0,0.0,0.0,0.0,0.0,0.0,0.0,0.0,-2.6521,0.0,0.0,0.0,0.0,0.0,0.0,0.0,0.0,0.0,0.0,0.0,0.0,0.0,0.0,-3.4763,-3.4901,-3.5403,-3.5592,0.0,0.0,-3.5265,-3.568,-3.5755,-3.5609,0.0,0.0,0.0,0.0,0.0,0.0,0.0,0.0,0.0,0.0,0.0,0.0,0.0,0.0,0.0,0.0,0.0,0.0,0.0,0.0,0.0,0.0,0.0,0.0,0.0,0.0,0.0,0.0,0.0,0.0,0.0,0.0,0.0,0.0,0.0,0.0,0.0,0.0,0.0,0.0,0.0,0.0,0.0,0.0,0.0,0.0,0.0,0.0,0.0,0.0,0.0,0.0,0.0,0.0,-3.3531,-3.701,-3.7797,-3.869,-3.983,-4.0509,-4.0539,-3.9784,-3.7768,-3.6014,0.0,0.0,0.0,0.0,0.0,0.0,0.0,0.0,0.0,0.0,0.0,0.0,0.0,0.0,0.0,0.0,0.0,0.0,0.0,0.0,0.0,0.0,0.0,0.0,0.0,0.0,0.0,0.0,0.0,0.0,0.0,0.0,0.0,0.0,0.0,0.0,0.0,0.0,0.0,0.0,0.0,-3.4901,-3.5416,-3.5956,-3.6295,0.0,-3.6257,-3.627,-3.6295,-3.6307,-3.5943,-3.4889,0.0,0.0,0.0,0.0,0.0,0.0,0.0,0.0,0.0,0.0,0.0,0.0,0.0,0.0,0.0,0.0,0.0,0.0,0.0,0.0,0.0,0.0,0.0,0.0,0.0,0.0,0.0,0.0,0.0,0.0,0.0,0.0,0.0,0.0,0.0,0.0,0.0,0.0,0.0,0.0,0.0,0.0,0.0,0.0,0.0,0.0,0.0,0.0,0.0,0.0,0.0,0.0,0.0,-3.3354,-3.6286,-3.7009,-3.7777,-3.859,-3.915,-3.922,-3.8806,-3.6401,-3.4755,0.0,0.0,0.0,0.0,0.0,0.0,0.0,0.0,0.0,0.0,0.0,0.0,0.0,0.0,0.0,0.0,0.0,0.0,0.0,0.0,0.0,0.0,0.0,0.0,0.0,0.0,0.0,0.0,-2.6327,-2.6339,-2.6465,0.0,0.0,0.0,0.0,0.0,0.0,0.0,0.0,0.0,0.0,-3.4914,-3.5466,-3.6006,0.0,0.0,-3.637,-3.637,-3.637,-3.637,-3.5981,-3.4901,-3.4726,0.0,0.0,0.0,0.0,0.0,0.0,0.0,0.0,0.0,0.0,0.0,0.0,0.0,0.0,0.0,0.0,0.0,0.0,0.0,0.0,0.0,0.0,0.0,0.0,0.0,0.0,0.0,0.0,0.0,0.0,0.0,0.0,0.0,0.0,0.0,0.0,0.0,0.0,0.0,0.0,0.0,0.0,0.0,0.0,0.0,0.0,0.0,0.0,0.0,0.0,0.0,0.0,-3.3162,-3.5516,-3.6207,-3.6784,-3.743,-3.7638,-3.771,-3.7504,-3.5064,-3.3568,0.0,0.0,0.0,0.0,0.0,0.0,0.0,0.0,0.0,0.0,0.0,0.0,0.0,0.0,0.0,0.0,0.0,0.0,0.0,0.0,0.0,0.0,0.0,0.0,0.0,0.0,0.0,0.0,-2.6144,-2.6188,-2.6396,0.0,0.0,0.0,0.0,0.0,0.0,0.0,0.0,0.0,0.0,-3.4926,-3.5479,-3.6006,-3.637,-3.637,-3.637,-3.637,-3.637,-3.637,-3.5981,-3.4823,0.0,0.0,0.0,0.0,0.0,0.0,0.0,0.0,0.0,0.0,0.0,0.0,0.0,0.0,0.0,0.0,0.0,0.0,0.0,0.0,0.0,0.0,0.0,0.0,0.0,0.0,0.0,-3.7119,0.0,0.0,-3.7102,0.0,0.0,0.0,0.0,0.0,0.0,0.0,0.0,0.0,0.0,0.0,0.0,0.0,0.0,0.0,0.0,0.0,0.0,0.0,0.0,0.0,0.0,-3.2893,-3.4698,-3.5327,-3.5886,-3.6301,-3.6129,-3.6072,-3.6043,-3.3925,-3.2588,-3.2206,0.0,0.0,0.0,0.0,0.0,0.0,0.0,0.0,0.0,0.0,0.0,0.0,0.0,0.0,0.0,0.0,0.0,0.0,0.0,0.0,0.0,0.0,0.0,0.0,0.0,0.0,-2.591,-2.5923,-2.598,0.0,0.0,0.0,0.0,0.0,0.0,0.0,0.0,0.0,-3.2139,-3.3671,-3.4914,-3.5454,-3.6006,-3.6345,-3.6358,-3.637,-3.637,-3.6358,-3.637,-3.59,0.0,0.0,0.0,0.0,0.0,0.0,0.0,0.0,0.0,0.0,0.0,0.0,0.0,0.0,0.0,0.0,0.0,0.0,0.0,0.0,0.0,0.0,0.0,0.0,0.0,0.0,0.0,-3.7119,-3.7102,0.0,0.0,0.0,0.0,0.0,0.0,0.0,0.0,0.0,0.0,0.0,-3.4836,-3.4891,0.0,0.0,0.0,0.0,0.0,0.0,0.0,0.0,0.0,0.0,0.0,0.0,-3.2844,-3.3908,-3.4957,-3.5459,-3.5536,-3.5741,-3.5666,-3.5257,-3.3577,-3.1834,-2.9861,0.0,0.0,0.0,0.0,0.0,0.0,0.0,0.0,0.0,0.0,0.0,0.0,0.0,0.0,0.0,0.0,0.0,0.0,0.0,0.0,0.0,0.0,0.0,0.0,0.0,-2.5535,0.0,0.0,0.0,0.0,0.0,0.0,0.0,0.0,0.0,0.0,-3.0834,-3.1587,-3.2139,-3.3345,-3.4374,-3.4926,-3.5466,-3.5862,0.0,0.0,0.0,0.0,0.0,0.0,0.0,0.0,0.0,0.0,0.0,0.0,0.0,0.0,-3.124,-3.1266,-3.0784,-3.0343,-3.0132,0.0,0.0,0.0,0.0,0.0,0.0,0.0,0.0,0.0,0.0,0.0,0.0,0.0,0.0,-3.7051,-3.7001,-3.6949,0.0,0.0,0.0,0.0,0.0,0.0,0.0,0.0,-3.4865,-3.4721,-3.4267,-3.4401,-3.4401,0.0,-3.3636,-3.2786,0.0,0.0,0.0,0.0,0.0,0.0,0.0,0.0,-3.2716,-3.3166,-3.4317,-3.4816,-3.4692,-3.4726,-3.4578,-3.4112,-3.2503,-3.0586,-2.8494,-2.7404,-2.6388,0.0,0.0,0.0,0.0,0.0,0.0,0.0,0.0,0.0,0.0,0.0,0.0,0.0,0.0,0.0,0.0,0.0,0.0,0.0,0.0,0.0,0.0,0.0,-2.5394,0.0,0.0,0.0,0.0,0.0,0.0,0.0,0.0,0.0,-3.0176,-3.0829,-3.1365,-3.1888,-3.2934,-3.3769,-3.413,0.0,0.0,0.0,0.0,0.0,0.0,0.0,-3.5125,-3.4114,-3.4018,-3.372,-3.2901,-3.2613,-3.2345,-3.2151,0.0,0.0,-3.1281,-3.0892,-3.0421,-3.002,-2.9387,-2.8824,-2.88,-2.8845,-2.881,0.0,0.0,0.0,0.0,0.0,0.0,0.0,0.0,-3.7268,-3.7149,0.0,-3.6964,0.0,0.0,0.0,0.0,-3.4852,-3.4417,0.0,0.0,-3.3481,-3.3203,-3.3107,-3.3166,-3.2981,-3.2796,-3.2762,-3.2669,-3.2483,-3.1874,0.0,0.0,0.0,0.0,0.0,0.0,-3.2527,-3.2614,-3.359,-3.3991,-3.3785,-3.3283,-3.2931,-3.2618,-3.0663,-2.9166,-2.8161,-2.7387,-2.6675,-2.5902,-2.5369,0.0,0.0,0.0,0.0,0.0,0.0,0.0,0.0,0.0,0.0,0.0,0.0,0.0,0.0,0.0,0.0,0.0,0.0,0.0,0.0,-2.5312,0.0,0.0,0.0,0.0,0.0,0.0,0.0,0.0,0.0,-2.901,-2.9744,-3.0364,-3.0987,-3.143,0.0,0.0,0.0,0.0,-3.4797,-3.4728,-3.5181,-3.5428,-3.5126,-3.5126,-3.4643,-3.3443,0.0,0.0,-3.2086,-3.2195,-3.2174,-3.2004,-3.1666,-3.1537,-3.1296,-3.0793,-3.0325,-2.9884,-2.9551,-2.9135,-2.8675,-2.9074,-2.9631,-4.2539,0.0,0.0,0.0,0.0,-4.0183,-4.0183,-4.0133,-3.9653,-3.9086,-3.8381,-3.7625,0.0,0.0,0.0,0.0,0.0,0.0,-3.439,-3.4137,-3.4625,-3.467,-3.4237,-3.4543,-3.4447,-3.3914,-3.3463,-3.3245,-3.3166,-3.2542,-3.1888,-3.125,0.0,0.0,0.0,0.0,-3.2745,-3.3209,-3.3792,-3.3908,-3.3479,-3.2988,-3.2331,-3.1482,-2.9862,-2.8756,-2.8349,-2.736,-2.646,-2.5703,-2.5394,0.0,0.0,0.0,0.0,0.0,0.0,0.0,0.0,0.0,0.0,0.0,0.0,0.0,0.0,0.0,0.0,0.0,0.0,0.0,-2.5312,-2.5312,-2.5312,0.0,0.0,0.0,0.0,0.0,0.0,0.0,0.0,0.0,-2.896,-2.981,-3.0604,0.0,0.0,-3.2301,-3.2677,-3.3204,-3.3772,-3.3982,-3.439,0.0,-3.4139,-3.404,-3.3784,-3.2818,-3.2308,-3.1906,-3.1479,-3.1305,-3.1197,-3.0899,-3.0599,-3.0411,-3.0374,-3.0327,-3.007,-2.9799,-2.9215,-2.8906,-2.9083,-2.9187,-2.9126,-4.5069,-4.3265,-4.2717,-4.2104,-4.1442,-4.1425,-4.1425,-4.1392,-4.0922,-4.0381,-3.9736,-3.8737,-3.7616,-3.6478,-3.5185,0.0,0.0,0.0,-3.4688,-3.4787,-3.5531,-3.5656,-3.535,-3.5383,-3.5169,-3.4762,-3.4153,-3.3848,-3.3833,-3.3209,-3.2701,-3.228,0.0,-3.154,-3.1932,-3.2571,-3.3079,-3.347,-3.3743,-3.3632,-3.3199,-3.2417,-3.1616,-3.0797,-2.9353,-2.846,-2.8303,-2.717,-2.637,-2.5827,-2.5468,-2.4979,0.0,0.0,0.0,0.0,0.0,0.0,0.0,0.0,0.0,0.0,0.0,-2.5312,-2.5312,0.0,0.0,0.0,-2.5312,-2.5312,-2.5312,-2.5312,0.0,0.0,0.0,0.0,0.0,0.0,0.0,-2.6077,-2.6645,-2.733,-2.7969,-2.8586,-2.9514,-3.0897,-3.1116,-3.1234,-3.1541,0.0,-3.237,-3.2594,-3.3168,-3.3457,-3.2868,-3.281,-3.254,-3.1616,-3.1008,-3.0696,-3.0546,-3.0474,-3.0172,-2.9973,-2.9764,-2.9669,-2.9669,-2.9548,-2.9497,-2.9424,-2.8961,-2.8625,-2.8672,-2.8538,-2.8505,-4.7334,-4.5715,-4.3711,-4.2452,-4.1773,-4.1773,-4.1773,-4.1683,-4.1502,-4.128,-4.104,-3.9966,-3.8713,-3.7333,-3.5064,0.0,-3.4614,-3.4736,-3.5122,-3.5707,-3.6154,-3.6359,-3.6286,-3.572,-3.547,-3.5427,-3.4719,-3.4414,-3.437,-3.3819,-3.3543,-3.3514,-3.2962,-3.2643,-3.2629,-3.318,-3.3485,-3.3558,-3.3596,-3.3368,-3.2917,-3.1629,-3.0735,-3.0367,-2.9094,-2.829,-2.8009,-2.7017,-2.6408,-2.6188,-2.5636,-2.5271,-2.5074,0.0,0.0,0.0,0.0,0.0,0.0,0.0,0.0,0.0,0.0,0.0,0.0,0.0,0.0,-2.5312,-2.5312,0.0,-2.5312,-2.5312,0.0,0.0,0.0,-2.5052,-2.504,-2.5585,-2.5835,-2.5627,0.0,0.0,-2.6808,-2.7075,-2.7877,-2.9659,-3.0011,-3.0125,-3.0114,-3.0571,-3.0869,-3.0938,-3.1704,-3.2054,-3.1434,-3.139,-3.1142,-3.013,-2.9544,-2.9343,-2.9485,-2.9544,-2.9333,-2.9132,-2.9026,-2.9016,-2.9026,-2.891,-2.8704,-2.8816,-2.8601,-2.8254,-2.7829,-2.7915,-2.8196,-4.8049,-4.6609,-4.6079,-4.5417,-4.4754,-4.4754,-4.4677,-4.4438,-4.3339,-4.2621,-4.2096,-4.0667,-3.934,-3.8193,-3.7223,-3.6582,-3.6286,-3.6157,-3.6149,-3.6183,-3.6765,-3.6794,-3.6315,-3.6141,-3.5822,-3.5343,-3.4719,-3.4414,-3.4414,-3.4269,-3.4182,-3.4182,-3.4037,-3.3717,-3.3267,-3.3383,-3.3636,-3.3965,-3.3728,-3.31,-3.2155,-3.111,-3.0314,-2.974,-2.8682,-2.7896,-2.7254,-2.6619,-2.6201,-2.598,-2.5706,-2.531,-2.4908,-2.4546,0.0,0.0,0.0,0.0,0.0,0.0,0.0,0.0,0.0,-2.5312,-2.5312,0.0,-2.5312,0.0,-2.5312,-2.5312,-2.5312,-2.5312,0.0,0.0,-2.5111,-2.4981,-2.4706,-2.5148,-2.536,-2.4971,-2.5425,-2.5795,-2.5946,-2.5998,-2.6335,-2.7328,-2.8413,-2.9117,-2.9117,-2.9537,-2.9858,-2.9891,-3.0345,-3.071,-3.0318,-2.9794,-2.9284,-2.8773,-2.8646,-2.8612,-2.8505,-2.871,-2.8844,-2.8611,-2.8504,-2.8504,-2.8475,-2.8408,-2.8368,-2.8453,-2.8101,-2.7944,-2.8035,-2.8172,-2.8368,-4.8746,-4.7404,-4.7388,-4.7156,-4.6725,-4.6,-4.5577,-4.5431,-4.4204,-4.3497,-4.3086,-4.1116,-3.9581,-3.8442,-3.7775,-3.7228,-3.6925,-3.6921,-3.6823,-3.678,-3.7418,-3.7506,-3.7143,-3.6881,-3.6417,-3.5778,-3.514,-3.469,-3.4428,-3.4414,-3.4414,-3.4414,-3.4414,-3.424,-3.3891,-3.3891,-3.3984,-3.4128,-3.3437,-3.2588,-3.1643,-3.081,-3.0086,-2.9387,-2.8459,-2.7688,-2.7067,-2.6404,-2.598,-2.5758,-2.5688,-2.5402,-2.5042,-2.4948,-2.4747,0.0,0.0,0.0,0.0,0.0,0.0,0.0,0.0,0.0,0.0,0.0,-2.5312,-2.5312,-2.5312,-2.5312,-2.5312,-2.5229,-2.5111,-2.4992,-2.4694,-2.4467,-2.4127,-2.4467,-2.4668,-2.4353,-2.4791,-2.5051,-2.4968,-2.5088,-2.5211,-2.5634,-2.6545,-2.7437,-2.7913,-2.8316,-2.8476,-2.8497,-2.8892,-2.9191,-2.8908,-2.825,-2.7707,-2.7702,-2.7623,-2.7548,-2.7633,-2.7767,-2.7934,-2.7734,-2.7725,-2.7725,-2.7715,-2.7725,-2.7676,-2.7461,-2.7266,-2.7422,-2.8125,-2.8301,-2.8379,-4.926,-4.8017,-4.8001,-4.8001,-4.7836,-4.6401,-4.5793,-4.568,-4.4591,-4.4023,-4.362,-4.1373,-3.9807,-3.8703,-3.788,-3.7341,-3.719,-3.7317,-3.7418,-3.7447,-3.7955,-3.8202,-3.8173,-3.7506,-3.6867,-3.6286,-3.559,-3.4936,-3.4428,-3.4414,-3.4414,-3.4414,-3.4414,-3.4414,-3.4414,-3.4414,-3.4264,-3.3991,-3.2917,-3.1982,-3.1347,-3.0672,-2.991,-2.9049,-2.8188,-2.7505,-2.6825,-2.6214,-2.5758,-2.5606,-2.5535,-2.5453,-2.5312,-2.5312,-2.5312,0.0,-2.5312,0.0,0.0,0.0,0.0,0.0,0.0,0.0,0.0,-2.5312,-2.5312,-2.5312,-2.5312,-2.5312,-2.53,-2.517,-2.4981,-2.4718,-2.42,-2.3824,-2.3564,-2.3787,-2.3897,-2.3737,-2.4148,-2.4368,-2.414,-2.428,-2.4345,-2.4486,-2.4887,-2.5574,-2.6576,-2.6919,-2.694,-2.6971,-2.7321,-2.7476,-2.7273,-2.6729,-2.635,-2.6408,-2.636,-2.6338,-2.666,-2.6797,-2.6846,-2.6855,-2.6855,-2.6855,-2.6855,-2.6846,-2.6728,-2.6435,-2.6357,-2.6689,-2.7646,-2.7939,-2.8047,-4.8796,-4.8017,-4.8001,-4.7935,-4.7688,-4.7308,-4.7111,-4.7029,-4.5555,-4.401,-4.243,-4.1494,-4.0722,-4.0071,-3.9305,-3.879,-3.8428,-3.8119,-3.8028,-3.8043,-3.8159,-3.8202,-3.813,-3.7041,-3.6431,-3.6243,-3.514,-3.4545,-3.4414,-3.4414,-3.4414,-3.4414,-3.4414,-3.4414,-3.4414,0.0,0.0,0.0,-3.2417,-3.1703,-3.1272,-3.0381,-2.9366,-2.8371,-2.7792,0.0,-2.5954,-2.5725,-2.5523,-2.5382,-2.5382,0.0,0.0,0.0,0.0,0.0,0.0,0.0,0.0,0.0,0.0,0.0,-2.5312,-2.5312,-2.5312,-2.5312,-2.5312,-2.5312,-2.5312,-2.5253,-2.5111,-2.5111,-2.4909,-2.4334,-2.4055,-2.3666,-2.3194,-2.3388,-2.3486,-2.3254,-2.3625,-2.3841,-2.3677,-2.367,-2.3761,-2.39,-2.4037,-2.4293,-2.4858,-2.5338,-2.5614,-2.5625,-2.5797,-2.5684,-2.5355,-2.5232,-2.5149,-2.4908,-2.5202,-2.5352,-2.5478,-2.5771,-2.5967,-2.5977,-2.5986,-2.5977,-2.5977,-2.5977,-2.5947,-2.5879,-2.585,-2.6035,-2.6621,-2.6748,-2.6748,-4.868,-4.8001,-4.8001,-4.7853,0.0,-4.7537,-4.747,-4.7253,-4.5976,-4.443,-4.2783,-4.196,-4.1272,-4.0593,-3.9879,-3.9307,-3.8797,-3.8337,-3.8202,-3.8202,-3.8202,-3.8043,-3.7752,-3.7099,-3.6475,-3.5822,-3.5198,-3.4719,-3.4428,-3.4414,-3.4414,-3.4414,-3.4278,-3.4264,-3.4264,-3.3868,-3.3507,-3.2988,-3.2173,-3.1455,-3.0885,-3.0164,-2.9176,-2.7878,-2.752,0.0,0.0,0.0,0.0,0.0,0.0,0.0,0.0,-2.5312,0.0,-2.5312,-2.5312,-2.5312,-2.5312,-2.5312,-2.5312,-2.5312,-2.5312,-2.5312,-2.5312,-2.5312,-2.5312,-2.5312,-2.5253,-2.517,-2.5123,-2.4826,-2.4467,-2.3959,-2.3519,-2.3075,-2.2552,-2.2642,-2.2755,-2.2706,-2.3106,-2.3342,-2.3299,-2.3319,-2.331,-2.3428,-2.3467,-2.3555,-2.3779,-2.4352,-2.4802,-2.4802,-2.4802,-2.4802,-2.4608,-2.4608,-2.4598,-2.4453,-2.46,-2.4727,-2.4746,-2.4932,-2.5088,-2.5078,-2.5078,-2.5078,-2.5088,-2.4993,-2.4898,-2.4898,-2.4803,-2.4756,-2.5112,-2.5557,-2.6055,-4.8564,-4.8017,-4.7952,-4.7853,-4.7654,-4.7537,-4.7253,-4.6871,-4.6004,0.0,0.0,-4.2283,-4.1472,-4.0783,-4.0036,-3.9379,-3.8855,-3.831,-3.8043,-3.8028,-3.7912,-3.7607,-3.7143,-3.7027,-3.6402,-3.5456,-3.5325,-3.4922,-3.4428,-3.4346,-3.4346,-3.4346,-3.4128,-3.4074,-3.4005,-3.3521,-3.3086,-3.2561,-3.2028,-3.1307,-3.0432,-2.9934,-2.8984,-2.7593,-2.7259,-2.6675,-2.5717,-2.5431,-2.5312,-2.5312,-2.5312,-2.5312,-2.5312,-2.5312,-2.5312,-2.5312,-2.5312,-2.5312,-2.5312,-2.5312,-2.5312,-2.5312,-2.5312,-2.5312,-2.5312,-2.5312,-2.5312,-2.5312,-2.5182,-2.5123,-2.5052,-2.4562,-2.4055,-2.3604,-2.3075,-2.2478,-2.1915,-2.207,-2.2321,-2.2267,-2.2681,-2.2926,-2.3086,-2.3144,-2.3144,-2.3144,-2.3174,-2.3144,-2.3223,-2.3721,-2.4111,-2.4111,-2.4173,-2.4141,-2.418,-2.4141,-2.4189,-2.4121,-2.415,-2.4189,-2.4189,-2.4098,-2.4098,-2.4098,-2.4098,-2.4006,-2.4016,-2.3924,-2.3842,-2.3832,-2.3648,-2.3455,-2.3521,-2.4287,-2.5053,-4.8084,-4.8001,-4.7787,-4.7654,-4.7537,-4.7335,-4.6757,-4.5988,-4.5225,-4.4058,-4.2542,-4.2076,-4.157,-4.1003,-4.0106,-3.9466,-3.8987,-3.796,-3.7433,-3.7404,-3.6838,-3.6519,-3.6417,-3.5894,-3.5532,-3.5398,-3.4806,-3.4501,-3.4414,-3.4196,-3.4128,-3.4128,-3.402,-3.3813,-3.3675,-3.3396,-3.2945,-3.22,-3.1603,-3.1009,-3.0444,-2.9599,-2.877,-2.7992,-2.7315,-2.6635,-2.6082,-2.5564,-2.5312,-2.5312,-2.5312,-2.5312,-2.5312,-2.5312,-2.5312,-2.5312,-2.5312,-2.5312,-2.5312,-2.5312,-2.5312,-2.5312,-2.5312,-2.5312,-2.5312,-2.5312,-2.5312,-2.5312,-2.5241,-2.5111,-2.4849,-2.4574,-2.4116,-2.3446,-2.2927,-2.2478,-2.1818,-2.2127,-2.2341,-2.2205,-2.2748,-2.3037,-2.3028,-2.3047,-2.3057,-2.3057,-2.3057,-2.3057,-2.3076,-2.3232,-2.332,-2.332,-2.332,-2.332,-2.3408,-2.333,-2.3398,-2.332,-2.3281,-2.3329,-2.3339,-2.325,-2.3171,-2.3094,-2.2964,-2.2767,-2.2758,-2.2701,-2.2688,-2.2706,-2.2716,-2.2608,-2.2626,-2.2867,-2.3195,-4.8001,-4.8001,-4.7787,-4.7654,-4.7454,-4.6759,-4.5972,-4.5208,-4.4512,-4.38,-4.2993,-4.2317,-4.1736,-4.1189,-4.037,-3.9526,-3.8683,-3.7842,-3.7244,-3.6751,-3.6446,-3.6127,-3.5793,-3.5488,-3.5169,-3.4849,-3.4559,-3.4346,-3.4196,-3.4128,-3.4059,-3.4005,-3.3813,-3.3605,-3.3466,-3.3086,-3.2646,-3.1909,-3.1455,-3.0846,-3.0024,-2.9431,-2.8717,-2.7871,-2.7476,-2.7091,-2.6562,-2.6033,-2.5733,-2.5733,-2.5468,-2.5312,-2.5312,-2.5312,-2.5312,-2.5312,-2.5312,-2.5312,-2.5312,-2.5312,-2.5312,-2.5312,-2.5312,-2.5312,-2.5312,-2.5312,-2.5312,-2.5312,-2.5253,-2.5111,-2.479,-2.4429,-2.3824,-2.3075,-2.2628,-2.2101,-2.1497,-2.1679,-2.2008,-2.205,-2.2497,-2.2794,-2.294,-2.2969,-2.2882,-2.2784,-2.2706,-2.2706,-2.2696,-2.2706,-2.2794,-2.3047,-2.3144,-2.3144,-2.3135,-2.3144,-2.3057,-2.2969,-2.296,-2.2882,-2.2794,-2.2618,-2.2618,-2.2618,-2.2441,-2.2441,-2.2353,-2.2264,-2.2274,-2.2176,-2.2087,-2.1998,-2.1998,-2.1998,-2.2227,-4.7984,-4.7935,-4.7721,-4.7422,-4.7041,-4.6185,-4.5322,-4.4528,-4.3881,-4.3509,-4.3105,-4.243,-4.1835,-4.1307,-4.0476,-3.9504,-3.8477,-3.76,-3.6791,-3.6112,-3.5952,-3.5604,-3.5198,-3.5154,-3.4893,-3.439,-3.4346,-3.4196,-3.4074,-3.3991,-3.3937,-3.3744,-3.3605,-3.3466,-3.3312,-3.2931,-3.2417,-3.185,-3.1394,-3.062,-2.9626,-2.9275,-2.8699,-2.7945,-2.7777,-2.7524,-2.7115,-2.6586,-2.6226,-2.6093,-2.5709,-2.5432,-2.5312,-2.5312,-2.5312,-2.5312,-2.5312,-2.5312,-2.5312,-2.5312,-2.5312,-2.5312,-2.5312,-2.5312,-2.5241,-2.5241,-2.5241,-2.5312,-2.5182,-2.5088,-2.4942,-2.4457,-2.3806,-2.3134,-2.2645,-2.2159,-2.14,-2.15,-2.1712,-2.1928,-2.2223,-2.2544,-2.2707,-2.2715,-2.2618,-2.2441,-2.2441,-2.2441,-2.2441,-2.2441,-2.253,-2.2784,-2.296,-2.2882,-2.296,-2.296,-2.2882,-2.2706,-2.2715,-2.2618,-2.2441,-2.2353,-2.2353,-2.2353,-2.2264,-2.2176,-2.2255,-2.2087,-2.2008,-2.2008,-2.1909,-2.1731,-2.1731,-2.1731,-2.1741,-4.8033,-4.7704,-4.7571,-4.6943,-4.5988,-4.5791,-4.5014,-4.3913,-4.3557,-4.3041,-4.2286,-4.2141,-4.19,-4.1444,-4.0148,-3.9215,-3.8491,-3.6877,-3.5864,-3.5456,-3.4849,-3.4574,-3.4545,-3.4516,-3.4404,-3.4128,-3.4128,-3.4074,-3.3882,-3.3744,-3.3536,-3.341,-3.3312,-3.3312,-3.3241,-3.2931,-3.2489,-3.2055,-3.1334,-3.0495,-2.9496,-2.9197,-2.887,-2.8426,-2.7969,-2.7705,-2.7645,-2.714,-2.6622,-2.6154,-2.6045,-2.5793,-2.5384,-2.5312,-2.5312,-2.5312,-2.5312,-2.5312,-2.5312,-2.5312,-2.5312,-2.5312,-2.5312,-2.5253,-2.5111,-2.5123,-2.5194,-2.5277,-2.5194,-2.5206,-2.5389,-2.4877,-2.4422,-2.4037,-2.3583,-2.3049,-2.2229,-2.2306,-2.2242,-2.1845,-2.2168,-2.2394,-2.2422,-2.2441,-2.2432,-2.2353,-2.2353,-2.2353,-2.2344,-2.2353,-2.2344,-2.2432,-2.2432,-2.2441,-2.253,-2.2441,-2.253,-2.2441,-2.2441,-2.2441,-2.2353,-2.2176,-2.2087,-2.2087,-2.1909,-2.182,-2.182,-2.1731,-2.1731,-2.183,-2.1731,-2.1731,-2.1731,-2.1731,-2.1731,-4.8098,-4.7655,-4.7078,-4.6207,-4.5192,-4.4755,-4.4237,-4.3638,-4.3073,-4.2366,-4.1533,-4.1358,-4.1182,-4.0988,-4.0166,-3.9062,-3.7785,-3.6656,-3.5754,-3.5025,-3.4598,-3.4414,-3.4414,-3.4278,-3.4196,-3.4128,-3.4005,-3.3896,-3.3744,-3.3536,-3.3396,-3.3326,-3.3312,-3.3312,-3.3241,-3.3002,-3.2632,-3.2128,-3.1468,-3.0633,-2.9639,-2.9275,-2.8895,-2.8566,-2.8306,-2.8186,-2.8138,-2.7669,-2.7152,-2.6622,-2.6286,-2.5853,-2.5336,-2.5312,-2.5312,-2.5312,-2.5312,-2.5312,-2.5312,-2.5312,-2.5229,-2.517,-2.5182,-2.5111,-2.4945,-2.5181,-2.5358,-2.5431,-2.5358,-2.5424,-2.5605,-2.5241,-2.4781,-2.4151,-2.3556,-2.2951,-2.2142,-2.2181,-2.2178,-2.1854,-2.2186,-2.2353,-2.2274,-2.2087,-2.1998,-2.1998,-2.2008,-2.1998,-2.1989,-2.1998,-2.1998,-2.1989,-2.1998,-2.2087,-2.2264,-2.2441,-2.2353,-2.2264,-2.2185,-2.2185,-2.2008,-2.1919,-2.182,-2.183,-2.1731,-2.1731,-2.1731,-2.1731,-2.1731,-2.1731,-2.1731,-2.1731,-2.1731,-2.1731,-2.1731,-4.7841,-4.7029,-4.6291,-4.5408,-4.4464,-4.3945,-4.3605,-4.3266,-4.2461,-4.1676,-4.107,-4.0673,-4.0293,-3.9976,-3.9689,-3.8694,-3.7284,-3.6552,-3.571,-3.4779,-3.4481,-3.4346,-3.4346,-3.4196,-3.4059,-3.3937,-3.3882,-3.3689,-3.3536,-3.3396,-3.3312,-3.3312,-3.3312,-3.3241,-3.3157,-3.3002,-3.2632,-3.2141,-3.1542,-3.0784,-2.9871,-2.9419,-2.8973,-2.859,-2.851,-2.851,-2.8498,-2.815,-2.7693,-2.7176,-2.6622,-2.6081,-2.5564,-2.5396,-2.5312,-2.5312,-2.5312,-2.5312,-2.5241,-2.5241,-2.5182,-2.5052,-2.5052,-2.498,-2.5013,-2.5245,-2.5511,-2.5814,-2.5814,-2.5849,-2.5896,-2.5677,-2.5092,-2.439,-2.3874,-2.3144,-2.2434,-2.2273,-2.2102,-2.1851,-2.2007,-2.2176,-2.1998,-2.183,-2.1731,-2.1731,-2.1731,-2.1731,-2.1731,-2.1731,-2.1731,-2.1731,-2.1741,-2.182,-2.2176,-2.2176,-2.2097,-2.2097,-2.2008,-2.1919,-2.1741,-2.1741,-2.1731,-2.1731,-2.1731,-2.1731,-2.1731,-2.1731,-2.1731,-2.1731,-2.1731,-2.1731,-2.1731,-2.1731,-2.1731,-4.6993,-4.5582,-4.5098,-4.4431,-4.3751,-4.3702,-4.3298,-4.2587,-4.1626,-4.1148,-4.0878,-4.0007,-3.9202,-3.8665,-3.8496,-3.8075,-3.7369,-3.6307,-3.5504,-3.492,-3.4534,-3.4278,-3.4128,-3.4059,-3.3937,-3.3675,-3.3605,-3.355,-3.3354,-3.3354,-3.3312,-3.334,-3.3297,-3.3185,-3.2988,-3.2846,-3.2574,-3.2155,-3.1629,-3.0872,-3.0114,-2.9574,-2.9118,-2.8578,-2.851,-2.851,-2.851,-2.8486,-2.821,-2.7693,-2.7176,-2.6635,-2.6081,-2.5564,-2.5312,-2.5312,-2.5312,-2.5241,-2.5111,-2.5123,-2.5004,-2.4885,-2.4848,-2.4929,-2.5152,-2.5315,-2.5645,-2.6345,-2.638,-2.6449,-2.6551,-2.6018,-2.5643,-2.5572,-2.4766,-2.3892,-2.3027,-2.2562,-2.2217,-2.1854,-2.1793,-2.182,-2.1741,-2.1731,-2.1731,-2.1731,-2.1731,-2.1731,-2.1731,-2.1731,-2.1731,-2.1731,-2.1731,-2.1731,-2.1731,-2.183,-2.183,-2.1741,-2.183,-2.1731,-2.1731,-2.1731,-2.1731,-2.1731,-2.1731,-2.1731,-2.1731,-2.1731,-2.1731,-2.1731,-2.1731,-2.1731,-2.1731,-2.1731,-2.1731,-4.6301,-4.465,-4.4285,-4.367,-4.3055,-4.3022,-4.2555,-4.18,-4.1307,-4.0542,-3.9668,-3.9104,-3.8491,-3.7859,-3.7799,-3.7541,-3.7142,-3.6365,-3.5752,-3.5219,-3.4668,-3.4278,-3.4074,-3.3868,-3.3744,-3.3605,-3.3466,-3.3607,-3.3874,-3.3902,-3.3902,-3.383,-3.373,-3.3477,-3.3057,-3.2846,-3.2561,-3.2286,-3.185,-3.1246,-3.0393,-2.9858,-2.9328,-2.8724,-2.859,-2.851,-2.851,-2.851,-2.827,-2.7741,-2.7536,-2.7031,-2.6166,-2.56,-2.5241,-2.5182,-2.5182,-2.5123,-2.4921,-2.4933,-2.4931,-2.5078,-2.504,-2.5175,-2.5512,-2.5804,-2.6161,-2.6507,-2.6795,-2.6932,-2.6863,-2.6538,-2.603,-2.5411,-2.4861,-2.4003,-2.3135,-2.2608,-2.2255,-2.182,-2.1731,-2.1731,-2.1731,-2.1731,-2.1731,-2.1731,-2.1731,-2.1731,-2.1731,-2.1731,-2.1731,-2.1731,-2.1731,-2.1731,-2.1731,-2.1731,-2.1731,-2.1731,-2.1731,-2.1731,-2.1731,-2.1731,-2.1731,-2.1731,-2.1731,-2.1731,-2.1731,-2.1731,-2.1731,-2.1731,-2.1731,-2.1731,-2.1731,-2.1731,-2.1731,-4.521,-4.4007,-4.3616,-4.3021,-4.2326,-4.231,-4.1843,-4.1029,-4.0633,-3.9793,-3.8829,-3.8347,-3.7907,-3.7528,-3.748,-3.7421,-3.7121,-3.6538,-3.6006,-3.5479,-3.4802,-3.4361,-3.4005,-3.3744,-3.3536,-3.3508,-3.3607,-3.393,-3.4478,-3.4447,-3.4388,-3.4388,-3.4033,-3.3553,-3.3093,-3.28,-3.2489,-3.2286,-3.2009,-3.1482,-3.0784,-3.0088,-2.9484,-2.8961,-2.8657,-2.851,-2.851,-2.851,-2.8366,-2.8017,-2.7825,-2.716,-2.614,-2.5697,-2.529,-2.5076,-2.4992,-2.4921,-2.4741,-2.487,-2.4958,-2.5124,-2.5321,-2.5558,-2.5911,-2.6267,-2.6496,-2.6726,-2.699,-2.7231,-2.7149,-2.6809,-2.6302,-2.5454,-2.485,-2.4003,-2.3057,-2.2618,-2.2176,-2.182,-2.1731,-2.1731,-2.1731,-2.1731,-2.1731,-2.1731,-2.1731,-2.1731,-2.1731,-2.1731,-2.1731,-2.1731,-2.1731,-2.1731,-2.1731,-2.1731,-2.1731,-2.1731,-2.1731,-2.1731,-2.1731,-2.1731,-2.1731,-2.1731,-2.1731,-2.1731,-2.1731,-2.1731,-2.1731,-2.1731,-2.1731,-2.1731,-2.1731,-2.1731,-2.1731,-4.3898,-4.3372,-4.3023,-4.2398,-4.1675,-4.1565,-4.1039,-4.0196,-3.945,-3.8966,-3.8559,-3.7931,-3.7559,-3.748,-3.748,-3.748,-3.7361,-3.68,-3.6226,-3.5688,-3.5001,-3.4428,-3.3951,-3.376,-3.3691,-3.3536,-3.3986,-3.4562,-3.5124,-3.4929,-3.4854,-3.4682,-3.4062,-3.3597,-3.3279,-3.2718,-3.2359,-3.2241,-3.2036,-3.1582,-3.0973,-3.0343,-2.9729,-2.9131,-2.8736,-2.851,-2.851,-2.851,-2.8498,-2.8414,-2.8017,-2.7095,-2.6134,-2.5872,-2.5488,-2.5073,-2.486,-2.4776,-2.4618,-2.5001,-2.5171,-2.5217,-2.5451,-2.5922,-2.637,-2.6519,-2.6714,-2.7059,-2.7103,-2.7138,-2.7149,-2.6809,-2.6302,-2.5895,-2.4871,-2.4013,-2.3222,-2.2608,-2.2264,-2.182,-2.1731,-2.1731,-2.1731,-2.1731,-2.1731,-2.1731,-2.1731,-2.1731,-2.1731,-2.1731,-2.1731,-2.1731,-2.1731,-2.1731,-2.1731,-2.1731,-2.1731,-2.1731,-2.1731,-2.1731,-2.1731,-2.1731,-2.1731,-2.1731,-2.1731,-2.1731,-2.1731,-2.1731,-2.1731,-2.1731,-2.1731,-2.1731,-2.1731,-2.1731,-2.1731,-4.382,-4.2908,-4.2528,-4.1803,-4.0989,-4.0792,-4.0224,-3.9402,-3.901,-3.8495,-3.7947,-3.7634,-3.748,-3.748,-3.748,-3.748,-3.748,-3.706,-3.6554,-3.5958,-3.5184,-3.4549,-3.416,-3.4185,-3.4398,-3.4621,-3.4759,-3.512,-3.5474,-3.5509,-3.5419,-3.5128,-3.4417,-3.3833,-3.3307,-3.2613,-3.2241,-3.2169,-3.2109,-3.189,-3.1408,-3.0771,-3.0088,-2.9561,-2.8949,-2.8657,-2.851,-2.851,-2.851,-2.851,-2.8183,-2.762,-2.686,-2.6347,-2.6012,-2.5657,-2.5634,-2.5559,-2.5408,-2.5459,-2.5701,-2.5911,-2.614,-2.6462,-2.6898,-2.6978,-2.7047,-2.7138,-2.7056,-2.6974,-2.6891,-2.6561,-2.6146,-2.5633,-2.485,-2.4003,-2.3057,-2.2353,-2.1909,-2.1731,-2.1731,-2.1731,-2.1731,-2.1731,-2.1731,-2.1731,-2.1731,-2.1731,-2.1731,-2.1731,-2.1731,-2.1731,-2.1731,-2.1731,-2.1731,-2.1731,-2.1731,-2.1731,-2.1731,-2.1731,-2.1731,-2.1731,-2.1731,-2.1731,-2.1731,-2.1731,-2.1731,-2.1731,-2.1731,-2.1731,-2.1731,-2.1731,-2.1731,-2.1731,-2.1731,-4.3895,-4.2806,-4.2301,-4.1432,-4.0333,-3.9989,-3.9425,-3.8654,-3.8412,-3.8054,-3.7587,-3.748,-3.748,-3.748,-3.748,-3.748,-3.7464,-3.7121,-3.6739,-3.6211,-3.5429,-3.4838,-3.4571,-3.4697,-3.5046,-3.5391,-3.5428,-3.5689,-3.6108,-3.5995,-3.5825,-3.5544,-3.4881,-3.4203,-3.3513,-3.2867,-3.2426,-3.2223,-3.2169,-3.2023,-3.1643,-3.1097,-3.0495,-2.9947,-2.9263,-2.8816,-2.851,-2.8419,-2.8419,-2.8351,-2.8191,-2.7702,-2.7062,-2.6621,-2.6298,-2.5981,-2.587,-2.577,-2.5727,-2.5865,-2.6117,-2.6427,-2.6634,-2.6864,-2.7162,-2.7149,-2.7056,-2.7067,-2.6891,-2.6798,-2.6727,-2.6479,-2.5979,-2.5538,-2.4925,-2.3983,-2.2882,-2.2097,-2.1741,-2.1731,-2.1731,-2.1731,-2.1731,-2.1731,-2.1731,-2.1731,-2.1731,-2.1731,-2.1731,-2.1731,-2.1731,-2.1731,-2.1731,-2.1731,-2.1731,-2.1731,-2.1731,-2.1731,-2.1731,-2.1731,-2.1731,-2.1731,-2.1731,-2.1731,-2.1731,-2.1731,-2.1731,-2.1731,-2.1731,-2.1731,-2.1731,-2.1731,-2.1731,-2.1731,-2.1731,-4.3995,-4.2902,-4.2244,-4.104,-3.965,-3.9279,-3.8691,-3.7972,-3.7807,-3.763,-3.7539,-3.748,-3.748,-3.748,-3.748,-3.748,-3.7421,-3.7165,-3.6877,-3.6414,-3.5733,-3.5296,-3.5261,-3.5337,-3.5606,-3.5975,-3.592,-3.615,-3.6425,-3.6215,-3.6072,-3.5935,-3.511,-3.4556,-3.3946,-3.339,-3.2752,-3.2372,-3.2223,-3.2109,-3.189,-3.136,-3.0823,-3.0355,-2.9574,-2.8961,-2.859,-2.8259,-2.8167,-2.8087,-2.795,-2.7589,-2.7032,-2.6837,-2.647,-2.5957,-2.583,-2.5899,-2.5945,-2.6278,-2.6531,-2.66,-2.6852,-2.7149,-2.7138,-2.6974,-2.6891,-2.6891,-2.6727,-2.6561,-2.6561,-2.6313,-2.5968,-2.5454,-2.4669,-2.3724,-2.2608,-2.1998,-2.1731,-2.1731,-2.1731,-2.1731,-2.1731,-2.1731,-2.1731,-2.1731,-2.1731,-2.1731,-2.1731,-2.1731,-2.1731,-2.1731,-2.1731,-2.1731,-2.1731,-2.1731,-2.1731,-2.1731,-2.1731,-2.1731,-2.1731,-2.1731,-2.1731,-2.1731,-2.1731,-2.1731,-2.1731,-2.1731,-2.1731,-2.1731,-2.1731,-2.1731,-2.1731,-2.1731,-2.1731,-4.3484,-4.227,-4.1272,-4.0024,-3.8788,-3.838,-3.8051,-3.7775,-3.7599,-3.7539,-3.748,-3.748,-3.748,-3.748,-3.748,-3.748,-3.748,-3.727,-3.7044,-3.6739,-3.6163,-3.5785,-3.5854,-3.5992,-3.6226,-3.6437,-3.6415,-3.6411,-3.6232,-3.6152,-3.5992,-3.5777,-3.5167,-3.4787,-3.4489,-3.358,-3.3037,-3.2779,-3.2359,-3.2169,-3.2023,-3.1643,-3.1172,-3.0545,-2.9871,-2.9184,-2.8498,-2.7938,-2.7684,-2.7684,-2.7603,-2.7499,-2.7094,-2.7071,-2.699,-2.6795,-2.6783,-2.6818,-2.6829,-2.6909,-2.6932,-2.678,-2.6883,-2.6891,-2.6727,-2.6727,-2.6644,-2.6644,-2.6479,-2.6313,-2.6229,-2.6063,-2.5633,-2.484,-2.4069,-2.3212,-2.252,-2.1998,-2.1731,-2.1731,-2.1731,-2.1731,-2.1731,-2.1731,-2.1731,-2.1731,-2.1731,-2.1731,-2.1731,-2.1731,-2.1731,-2.1731,-2.1731,-2.1731,-2.1731,-2.1731,-2.1731,-2.1731,-2.1731,-2.1731,-2.1731,-2.1731,-2.1731,-2.1731,-2.1731,-2.1731,-2.1731,-2.1731,-2.1731,-2.1731,-2.1731,-2.1731,-2.1731,-2.1731,-2.1731,-4.3044,-4.1584,-4.0569,-3.9493,-3.844,-3.8033,-3.7817,-3.77,-3.7524,-3.748,-3.748,-3.748,-3.748,-3.748,-3.748,-3.748,-3.748,-3.7254,-3.7074,-3.6847,-3.658,-3.6325,-3.6202,-3.6311,-3.6592,-3.6665,-3.6549,-3.6325,-3.6086,-3.5992,-3.5804,-3.5669,-3.5371,-3.5086,-3.476,-3.3946,-3.3281,-3.301,-3.2494,-3.2169,-3.2169,-3.1803,-3.1408,-3.0771,-3.0165,-2.925,-2.8351,-2.7708,-2.7371,-2.7371,-2.7371,-2.729,-2.7231,-2.7231,-2.7231,-2.7231,-2.7231,-2.7138,-2.7067,-2.7056,-2.6974,-2.6798,-2.6809,-2.6727,-2.6644,-2.6479,-2.6407,-2.6396,-2.6229,-2.6063,-2.6063,-2.5812,-2.5211,-2.4509,-2.3647,-2.2872,-2.2432,-2.1998,-2.1731,-2.1731,-2.1731,-2.1731,-2.1731,-2.1731,-2.1731,-2.1731,-2.1731,-2.1731,-2.1731,-2.1731,-2.1731,-2.1731,-2.1731,-2.1731,-2.1731,-2.1731,-2.1731,-2.1731,-2.1731,-2.1731,-2.1731,-2.1731,-2.1731,-2.1731,-2.1731,-2.1731,-2.1731,-2.1731,-2.1731,-2.1731,-2.1731,-2.1731,-2.1731,-2.1731,-2.1731,-4.2634,-4.0908,-4.0139,-3.9243,-3.8383,-3.8049,-3.7817,-3.7642,-3.7539,-3.7401,-3.7322,-3.7338,-3.718,-3.7275,-3.7164,-3.7338,-3.7338,-3.7266,-3.7029,-3.6908,-3.6884,-3.6752,-3.6187,-3.6603,-3.6738,-3.6642,-3.6246,-3.6086,-3.5992,-3.5804,-3.5723,-3.5696,-3.5669,-3.5438,-3.495,-3.4272,-3.3675,-3.3186,-3.2521,-3.2196,-3.2182,-3.1803,-3.1508,-3.1035,-2.9947,-2.9015,-2.8111,-2.7476,-2.7231,-2.7231,-2.7231,-2.7231,-2.7231,-2.7231,-2.7231,-2.7149,-2.7149,-2.7056,-2.6985,-2.6891,-2.6809,-2.6561,-2.6561,-2.6561,-2.6479,-2.6324,-2.6157,-2.6146,-2.5979,-2.5979,-2.5895,-2.5549,-2.4935,-2.4337,-2.356,-2.296,-2.2432,-2.1998,-2.1731,-2.1731,-2.1731,-2.1731,-2.1731,-2.1731,-2.1731,-2.1731,-2.1731,-2.1731,-2.1731,-2.1731,-2.1731,-2.1731,-2.1731,-2.1731,-2.1731,-2.1731,-2.1731,-2.1731,-2.1731,-2.1731,-2.1731,-2.1731,-2.1731,-2.1731,-2.1731,-2.1731,-2.1731,-2.1731,-2.1731,-2.1731,-2.1731,-2.1731,-2.1731,-2.1731,-2.1731,-4.2364,-4.0752,-3.9665,-3.873,-3.8049,-3.7801,-3.7626,-3.7492,-3.7492,-3.7085,-3.6753,-3.6643,-3.6358,-3.5932,-3.6437,-3.6643,-3.6738,-3.7058,-3.7165,-3.6832,-3.7243,-3.7055,-3.6605,-3.6935,-3.6886,-3.6563,-3.6246,-3.5992,-3.5804,-3.5723,-3.571,-3.571,-3.571,-3.5655,-3.5398,-3.437,-3.3842,-3.3593,-3.2738,-3.2196,-3.2182,-3.1963,-3.1508,-3.0973,-2.9586,-2.8578,-2.7962,-2.7476,-2.7231,-2.7231,-2.7149,-2.7149,-2.7231,-2.7149,-2.7149,-2.7149,-2.7067,-2.6974,-2.6891,-2.6727,-2.6561,-2.6313,-2.6313,-2.6229,-2.6063,-2.6074,-2.5979,-2.599,-2.5895,-2.5895,-2.5906,-2.5464,-2.4935,-2.4251,-2.356,-2.2882,-2.2264,-2.1919,-2.1731,-2.1731,-2.1731,-2.1731,-2.1731,-2.1731,-2.1731,-2.1731,-2.1731,-2.1731,-2.1731,-2.1731,-2.1731,-2.1731,-2.1731,-2.1731,-2.1731,-2.1731,-2.1731,-2.1731,-2.1731,-2.1731,-2.1731,-2.1731,-2.1731,-2.1731,-2.1731,-2.1731,-2.1731,-2.1731,-2.1731,-2.1731,-2.1642,-2.1642,-2.1642,-2.1642,-2.1553,-4.0624,-3.921,-3.8394,-3.7644,-3.7054,-3.6885,-3.6731,-3.6558,-3.65,-3.6295,-3.6011,-3.5932,-3.5726,-3.541,-3.5758,-3.5947,-3.6048,-3.6468,-3.6732,-3.6816,-3.7279,-3.7237,-3.6904,-3.7046,-3.7084,-3.647,-3.6058,-3.5804,-3.5723,-3.571,-3.571,-3.571,-3.571,-3.571,-3.5547,-3.4478,-3.3923,-3.3702,-3.2793,-3.2169,-3.2182,-3.189,-3.1272,-3.0495,-2.9353,-2.851,-2.7962,-2.7545,-2.7301,-2.7231,-2.7149,-2.7149,-2.7149,-2.7138,-2.7056,-2.7067,-2.6903,-2.6727,-2.6561,-2.6479,-2.6302,-2.6074,-2.6074,-2.599,-2.5906,-2.5895,-2.5895,-2.5895,-2.5895,-2.5895,-2.5906,-2.5464,-2.4861,-2.4155,-2.3474,-2.2794,-2.2097,-2.183,-2.1731,-2.1731,-2.1731,-2.1731,-2.1731,-2.1731,-2.1731,-2.1731,-2.1731,-2.1731,-2.1731,-2.1731,-2.1731,-2.1731,-2.1731,-2.1731,-2.1731,-2.1731,-2.1731,-2.1731,-2.1731,-2.1731,-2.1731,-2.1731,-2.1731,-2.1731,-2.1731,-2.1731,-2.1731,-2.1731,-2.1651,-2.1562,-2.1472,-2.1472,-2.1374,-2.1275,-2.1195,-3.8815,-3.7629,-3.7119,-3.6623,-3.6077,-3.5892,-3.5737,-3.5498,-3.5394,-3.5442,-3.5221,-3.5221,-3.511,-3.5063,-3.5157,-3.5252,-3.5439,-3.5629,-3.6032,-3.6275,-3.6938,-3.6978,-3.6781,-3.7024,-3.7098,-3.6443,-3.6058,-3.5804,-3.5723,-3.571,-3.571,-3.571,-3.571,-3.571,-3.5452,-3.4597,-3.3869,-3.3783,-3.2793,-3.2169,-3.2169,-3.1817,-3.1123,-3.0037,-2.9263,-2.8657,-2.795,-2.7545,-2.729,-2.7138,-2.6974,-2.6985,-2.6985,-2.6974,-2.6891,-2.6891,-2.6644,-2.6479,-2.6313,-2.6229,-2.6063,-2.5895,-2.5895,-2.5895,-2.5895,-2.5895,-2.5895,-2.5895,-2.5895,-2.5895,-2.5895,-2.5464,-2.4765,-2.3983,-2.3387,-2.2696,-2.1998,-2.1731,-2.1731,-2.1731,-2.1731,-2.1731,-2.1731,-2.1731,-2.1731,-2.1731,-2.1731,-2.1731,-2.1731,-2.1731,-2.1731,-2.1731,-2.1731,-2.1731,-2.1731,-2.1731,-2.1731,-2.1651,-2.1651,-2.1642,-2.1642,-2.1731,-2.1731,-2.1731,-2.1731,-2.1642,-2.1651,-2.1562,-2.1571,-2.1392,-2.1302,-2.1284,-2.1096,-2.0907,-2.0736,-3.9066,-3.7902,-3.7352,-3.6849,-3.6328,-3.5953,-3.5616,-3.5546,-3.534,-3.5031,-3.451,-3.4462,-3.4178,-3.3972,-3.4273,-3.4723,-3.5068,-3.5237,-3.5205,-3.5391,-3.6012,-3.629,-3.6197,-3.6577,-3.6727,-3.6646,-3.6177,-3.583,-3.5723,-3.571,-3.571,-3.571,-3.571,-3.571,-3.5398,-3.4611,-3.4,-3.3734,-3.2861,-3.2291,-3.2109,-3.189,-3.1198,-2.9947,-2.9263,-2.8578,-2.795,-2.7301,-2.6974,-2.6974,-2.6727,-2.6727,-2.6727,-2.6644,-2.6644,-2.6561,-2.6396,-2.6229,-2.6146,-2.6074,-2.599,-2.5895,-2.5895,-2.5895,-2.5895,-2.5895,-2.5895,-2.5895,-2.5895,-2.5895,-2.5906,-2.538,-2.468,-2.3897,-2.3212,-2.253,-2.1909,-2.1731,-2.1731,-2.1731,-2.1731,-2.1731,-2.1731,-2.1731,-2.1731,-2.1731,-2.1731,-2.1731,-2.1731,-2.1731,-2.1731,-2.1731,-2.1731,-2.1731,-2.1731,-2.1731,-2.1731,-2.1651,-2.1651,-2.1642,-2.1642,-2.1642,-2.1731,-2.1553,-2.1553,-2.1562,-2.1562,-2.1472,-2.1293,-2.1114,-2.1015,-2.1015,-2.0645,-2.0283,-2.0002,-3.7688,-3.6962,-3.6454,-3.5926,-3.5495,-3.5017,-3.4718,-3.4504,-3.4343,-3.4115,-3.3862,-3.3767,-3.3609,-3.3451,-3.3593,-3.4123,-3.4462,-3.4451,-3.4525,-3.4775,-3.5294,-3.5437,-3.5302,-3.5816,-3.5953,-3.5877,-3.5714,-3.5785,-3.5683,-3.571,-3.571,-3.571,-3.571,-3.571,-3.5547,-3.4896,-3.4272,-3.3774,-3.3105,-3.2453,-3.2209,-3.1817,-3.096,-3.0024,-2.9263,-2.8566,-2.7765,-2.7371,-2.6962,-2.6727,-2.6561,-2.6396,-2.6396,-2.6313,-2.6313,-2.6313,-2.6146,-2.6063,-2.6063,-2.5906,-2.5895,-2.5895,-2.5895,-2.5895,-2.5895,-2.5895,-2.5895,-2.5895,-2.5906,-2.5822,-2.5728,-2.5211,-2.4519,-2.3734,-2.3135,-2.2451,-2.1919,-2.1731,-2.1731,-2.1731,-2.1731,-2.1731,-2.1731,-2.1731,-2.1731,-2.1731,-2.1731,-2.1731,-2.1731,-2.1651,-2.1651,-2.1642,-2.1553,-2.1553,-2.1553,-2.1553,-2.1553,-2.1562,-2.1562,-2.1463,-2.1454,-2.1454,-2.1365,-2.1275,-2.1284,-2.1383,-2.1284,-2.1186,-2.0916,-2.0736,-2.0645,-2.0473,-2.0011,-1.9646,-1.9371,-3.6402,-3.6139,-3.5622,-3.5135,-3.4756,-3.4201,-3.3845,-3.3555,-3.3409,-3.3372,-3.3293,-3.3324,-3.334,-3.3309,-3.3319,-3.3518,-3.3826,-3.3581,-3.3733,-3.4052,-3.4407,-3.4408,-3.4494,-3.4742,-3.511,-3.5068,-3.519,-3.5425,-3.5695,-3.571,-3.571,-3.571,-3.571,-3.571,-3.556,-3.5058,-3.4556,-3.4095,-3.3314,-3.2779,-3.2098,-3.1569,-3.0797,-2.9858,-2.9341,-2.8645,-2.7603,-2.7196,-2.688,-2.6561,-2.6313,-2.6146,-2.6063,-2.5979,-2.5979,-2.6074,-2.599,-2.5906,-2.5895,-2.5895,-2.5895,-2.5895,-2.5895,-2.5895,-2.5895,-2.5895,-2.5895,-2.5895,-2.5822,-2.5728,-2.5464,-2.4956,-2.4272,-2.357,-2.2969,-2.2451,-2.1919,-2.1731,-2.1731,-2.1731,-2.1731,-2.1642,-2.1642,-2.1731,-2.1731,-2.1731,-2.1731,-2.1731,-2.1642,-2.1562,-2.1562,-2.1463,-2.1454,-2.1454,-2.1454,-2.1365,-2.1365,-2.1284,-2.1284,-2.1275,-2.1186,-2.1087,-2.0997,-2.1006,-2.1105,-2.1105,-2.1006,-2.0826,-2.0555,-2.0382,-2.0201,-1.9828,-1.9363,-1.8812,-1.835,-3.6602,-3.6419,-3.5932,-3.5503,-3.4994,-3.4448,-3.405,-3.3658,-3.3398,-3.3293,-3.3293,-3.3293,-3.3293,-3.3256,-3.315,-3.3105,-3.3022,-3.2936,-3.2848,-3.2998,-3.3218,-3.3517,-3.38,-3.4222,-3.439,-3.4453,-3.4613,-3.5082,-3.5396,-3.556,-3.571,-3.571,-3.571,-3.571,-3.5655,-3.5221,-3.4814,-3.4438,-3.3441,-3.2455,-3.1776,-3.1434,-3.081,-3.0024,-2.9328,-2.8621,-2.7603,-2.7044,-2.655,-2.6324,-2.6063,-2.5979,-2.5895,-2.5895,-2.5895,-2.5895,-2.5906,-2.5895,-2.5895,-2.5895,-2.5895,-2.5895,-2.5895,-2.5895,-2.5895,-2.5895,-2.5895,-2.5895,-2.5728,-2.5475,-2.5115,-2.4444,-2.3754,-2.3144,-2.2627,-2.2185,-2.182,-2.1731,-2.1731,-2.1651,-2.1651,-2.1651,-2.1651,-2.1651,-2.1731,-2.1731,-2.1731,-2.1642,-2.1642,-2.1472,-2.1383,-2.1275,-2.1275,-2.1275,-2.1275,-2.1266,-2.1186,-2.1105,-2.1096,-2.1006,-2.0916,-2.0817,-2.0826,-2.0744,-2.0835,-2.0564,-2.0283,-2.0102,-2.0019,-1.9837,-1.9563,-1.9088,-1.8619,-1.8064,-1.7419,-3.6661,-3.6561,-3.6036,-3.5594,-3.5211,-3.4626,-3.4201,-3.3797,-3.3555,-3.3361,-3.3309,-3.3293,-3.3256,-3.315,-3.3043,-3.2897,-3.2703,-3.2578,-3.2453,-3.2358,-3.2532,-3.2758,-3.3051,-3.3324,-3.3532,-3.4015,-3.4206,-3.4341,-3.4804,-3.5086,-3.533,-3.5655,-3.5683,-3.571,-3.5588,-3.5438,-3.4844,-3.4049,-3.285,-3.195,-3.1501,-3.1211,-3.0748,-3.005,-2.9328,-2.8462,-2.7592,-2.6962,-2.6385,-2.6146,-2.5895,-2.5895,-2.5895,-2.5895,-2.5895,-2.5895,-2.5895,-2.5895,-2.5895,-2.5895,-2.5895,-2.5895,-2.5895,-2.5895,-2.5895,-2.5895,-2.5895,-2.5895,-2.5549,-2.52,-2.4765,-2.409,-2.3396,-2.2794,-2.2362,-2.2097,-2.182,-2.1731,-2.1642,-2.1562,-2.1482,-2.1472,-2.1463,-2.1472,-2.1472,-2.1463,-2.1365,-2.1266,-2.1275,-2.1186,-2.1096,-2.1087,-2.1087,-2.1087,-2.1087,-2.1087,-2.1006,-2.0916,-2.0835,-2.0736,-2.0645,-2.0564,-2.0473,-2.0382,-2.0292,-2.0019,-1.9646,-1.9646,-1.9654,-1.9288,-1.8835,-1.835,-1.7878,-1.7225,-1.6574,-3.6702,-3.6602,-3.6062,-3.5728,-3.5379,-3.4818,-3.43,-3.3949,-3.3607,-3.3398,-3.3309,-3.324,-3.3203,-3.3096,-3.2881,-3.2757,-3.2594,-3.2468,-3.2398,-3.2318,-3.2405,-3.2558,-3.2871,-3.3025,-3.3296,-3.3625,-3.362,-3.3827,-3.3991,-3.4227,-3.4624,-3.5248,-3.5099,-3.5087,-3.5155,-3.4979,-3.4454,-3.3269,-3.2368,-3.1699,-3.125,-3.0986,-3.0596,-2.9985,-2.9197,-2.8407,-2.7522,-2.688,-2.6396,-2.5979,-2.5895,-2.5895,-2.5895,-2.5895,-2.5895,-2.5895,-2.5895,-2.5895,-2.5895,-2.5895,-2.5895,-2.5895,-2.5895,-2.5895,-2.5895,-2.5895,-2.5895,-2.5895,-2.538,-2.4946,-2.4423,-2.3744,-2.3047,-2.253,-2.2087,-2.1909,-2.1731,-2.1642,-2.1562,-2.1472,-2.1383,-2.1186,-2.1186,-2.1203,-2.1203,-2.1203,-2.1186,-2.0988,-2.0907,-2.0907,-2.0817,-2.0817,-2.0727,-2.0727,-2.0727,-2.0727,-2.0736,-2.0645,-2.0645,-2.0564,-2.0473,-2.0283,-2.0192,-2.0019,-1.9745,-1.9371,-1.9004,-1.9096,-1.9188,-1.8643,-1.8087,-1.7606,-1.7037,-1.6386,-1.5724,-3.6661,-3.6502,-3.6105,-3.5844,-3.5515,-3.493,-3.4448,-3.4084,-3.371,-3.345,-3.3309,-3.3203,-3.3096,-3.3005,-3.2812,-3.2648,-3.2594,-3.2468,-3.2459,-3.2604,-3.2844,-3.3038,-3.3246,-3.3553,-3.3565,-3.337,-3.3353,-3.3417,-3.334,-3.3349,-3.3683,-3.3923,-3.4208,-3.4008,-3.3931,-3.3934,-3.3496,-3.2651,-3.2061,-3.1606,-3.1179,-3.0761,-3.0368,-2.9806,-2.9106,-2.8315,-2.7267,-2.6798,-2.6396,-2.5979,-2.5895,-2.5895,-2.5895,-2.5895,-2.5895,-2.5895,-2.5895,-2.5895,-2.5895,-2.5895,-2.5895,-2.5895,-2.5895,-2.5895,-2.5895,-2.5895,-2.5895,-2.5812,-2.5295,-2.4775,-2.4166,-2.3396,-2.2706,-2.2264,-2.1919,-2.1741,-2.1562,-2.1463,-2.1383,-2.1383,-2.1195,-2.1006,-2.0916,-2.0835,-2.0925,-2.1015,-2.0925,-2.0727,-2.0727,-2.0645,-2.0555,-2.0464,-2.0374,-2.0374,-2.0374,-2.0382,-2.0464,-2.0464,-2.0382,-2.0382,-2.0292,-2.011,-1.9828,-1.9463,-1.9188,-1.8819,-1.8357,-1.8357,-1.8265,-1.7807,-1.734,-1.6857,-1.6292,-1.5629,-1.5159,-3.6602,-3.6485,-3.6251,-3.5993,-3.5684,-3.5182,-3.4691,-3.4349,-3.3899,-3.3539,-3.3309,-3.315,-3.3043,-3.2935,-3.2757,-3.2523,-3.2468,-3.2453,-3.2628,-3.2911,-3.3165,-3.3615,-3.3955,-3.422,-3.4218,-3.3949,-3.3685,-3.3255,-3.3079,-3.2828,-3.2736,-3.2955,-3.345,-3.3738,-3.3675,-3.3018,-3.2508,-3.2233,-3.1751,-3.1245,-3.1104,-3.0685,-3.0292,-2.9985,-2.904,-2.8247,-2.7441,-2.6869,-2.6385,-2.6063,-2.5895,-2.5895,-2.5895,-2.5895,-2.5895,-2.5895,-2.5895,-2.5895,-2.5895,-2.5895,-2.5895,-2.5895,-2.5895,-2.5895,-2.5895,-2.5895,-2.5895,-2.5644,-2.5115,-2.4509,-2.3983,-2.3125,-2.2353,-2.2008,-2.1741,-2.1562,-2.1374,-2.1284,-2.1105,-2.1105,-2.0925,-2.0736,-2.0654,-2.0473,-2.0654,-2.0744,-2.0645,-2.0555,-2.0555,-2.0473,-2.0382,-2.0382,-2.0292,-2.0292,-2.0292,-2.0292,-2.0292,-2.0201,-2.011,-2.011,-2.0019,-1.9654,-1.9371,-1.9004,-1.8627,-1.8079,-1.7707,-1.752,-1.7333,-1.7059,-1.6588,-1.6015,-1.5445,-1.4975,-1.4682,-3.6602,-3.6444,-3.6233,-3.6079,-3.5817,-3.5383,-3.4947,-3.4497,-3.4084,-3.3658,-3.3256,-3.3096,-3.2951,-3.2773,-3.2648,-3.2523,-3.2453,-3.2459,-3.2844,-3.3203,-3.3637,-3.4193,-3.4683,-3.4916,-3.4847,-3.4677,-3.4113,-3.3521,-3.2973,-3.2574,-3.2382,-3.2521,-3.2854,-3.3028,-3.28,-3.2309,-3.183,-3.1698,-3.1425,-3.0986,-3.0986,-3.0609,-3.0203,-2.9896,-2.8961,-2.8167,-2.7441,-2.6869,-2.6385,-2.6063,-2.5895,-2.5895,-2.5895,-2.5895,-2.5895,-2.5895,-2.5895,-2.5895,-2.5895,-2.5895,-2.5895,-2.5895,-2.5895,-2.5895,-2.5895,-2.5895,-2.5895,-2.5812,-2.5105,-2.4327,-2.38,-2.295,-2.2176,-2.1741,-2.1463,-2.1284,-2.1195,-2.1096,-2.0925,-2.0835,-2.0654,-2.0564,-2.0473,-2.0382,-2.0473,-2.0564,-2.0464,-2.0464,-2.0374,-2.0382,-2.0382,-2.0292,-2.0292,-2.0292,-2.0292,-2.0292,-2.0292,-2.011,-2.0019,-1.9837,-1.9654,-1.9279,-1.8819,-1.835,-1.7885,-1.7434,-1.6965,-1.6581,-1.6487,-1.64,-1.5825,-1.535,-1.5064,-1.4586,-1.4586,-3.6544,-3.6301,-3.6251,-3.6122,-3.5932,-3.552,-3.5088,-3.4659,-3.4151,-3.3607,-3.315,-3.3005,-3.2827,-3.2648,-3.2508,-3.2453,-3.2398,-3.2413,-3.2752,-3.3367,-3.4014,-3.4649,-3.5126,-3.5347,-3.5295,-3.481,-3.4249,-3.3632,-3.2988,-3.2632,-3.2286,-3.195,-3.2119,-3.2038,-3.1689,-3.1277,-3.1013,-3.1013,-3.1013,-3.0999,-3.0911,-3.0596,-3.0203,-2.9639,-2.8961,-2.8099,-2.736,-2.688,-2.6396,-2.599,-2.5906,-2.5895,-2.5895,-2.5895,-2.5895,-2.5895,-2.5895,-2.5895,-2.5895,-2.5895,-2.5895,-2.5895,-2.5895,-2.5895,-2.5895,-2.5895,-2.5895,-2.5812,-2.502,-2.4327,-2.3627,-2.2853,-2.2087,-2.1562,-2.1284,-2.1006,-2.0916,-2.0826,-2.0645,-2.0564,-2.0473,-2.0292,-2.0292,-2.0292,-2.0292,-2.0292,-2.0292,-2.0292,-2.0292,-2.0292,-2.0292,-2.0292,-2.0292,-2.0201,-2.0201,-2.0292,-2.0201,-2.0019,-1.9745,-1.9463,-1.9088,-1.8619,-1.8156,-1.7692,-1.7138,-1.6581,-1.6109,-1.5635,-1.5635,-1.554,-1.5159,-1.4777,-1.449,-1.4394,-1.4394,-3.6544,-3.6301,-3.6276,-3.6191,-3.6079,-3.5577,-3.5211,-3.4851,-3.425,-3.3642,-3.3256,-3.3005,-3.2773,-3.2578,-3.2468,-3.2398,-3.2398,-3.2413,-3.2752,-3.3429,-3.4152,-3.4695,-3.5233,-3.5579,-3.5574,-3.5067,-3.4467,-3.3839,-3.3199,-3.2775,-3.2286,-3.2023,-3.1656,-3.1508,-3.1373,-3.1136,-3.0986,-3.0986,-3.0986,-3.0986,-3.0986,-3.0596,-3.019,-2.9691,-2.8949,-2.8063,-2.7267,-2.6798,-2.6396,-2.599,-2.5895,-2.5895,-2.5895,-2.5895,-2.5895,-2.5895,-2.5895,-2.5895,-2.5895,-2.5895,-2.5895,-2.5895,-2.5895,-2.5895,-2.5895,-2.5895,-2.5812,-2.5549,-2.4935,-2.4251,-2.357,-2.2696,-2.1919,-2.1482,-2.1114,-2.0925,-2.0736,-2.0555,-2.0382,-2.0382,-2.0292,-2.0292,-2.0292,-2.0201,-2.0201,-2.0201,-2.0201,-2.0292,-2.0292,-2.0292,-2.0292,-2.0292,-2.0292,-2.0201,-2.011,-2.0119,-1.9936,-1.9662,-1.9379,-1.9004,-1.8535,-1.7963,-1.7404,-1.6842,-1.6285,-1.573,-1.5445,-1.5166,-1.4873,-1.4682,-1.4592,-1.4496,-1.4394,-1.4298,-1.4298,-3.6544,-3.6301,-3.6284,-3.6276,-3.614,-3.5711,-3.5304,-3.4835,-3.4201,-3.3658,-3.3256,-3.3005,-3.2773,-3.2594,-3.2468,-3.2398,-3.2398,-3.2413,-3.2752,-3.3429,-3.4152,-3.4755,-3.5294,-3.5704,-3.5721,-3.5249,-3.4706,-3.4085,-3.3269,-3.2846,-3.2286,-3.1716,-3.136,-3.1272,-3.1123,-3.1061,-3.0986,-3.0986,-3.0986,-3.0986,-3.0833,-3.0454,-2.9923,-2.9514,-2.8814,-2.7885,-2.729,-2.6787,-2.6385,-2.6063,-2.5895,-2.5895,-2.5895,-2.5895,-2.5895,-2.5895,-2.5895,-2.5895,-2.5895,-2.5895,-2.5895,-2.5895,-2.5895,-2.5895,-2.5895,-2.5812,-2.5644,-2.5295,-2.468,-2.3993,-2.3309,-2.2441,-2.1741,-2.1203,-2.0934,-2.0654,-2.0564,-2.0382,-2.0292,-2.0292,-2.0292,-2.0292,-2.0292,-2.0201,-2.011,-2.011,-2.0119,-2.0201,-2.0201,-2.0201,-2.0201,-2.011,-2.011,-1.9936,-1.9845,-1.9853,-1.9671,-1.9396,-1.892,-1.8442,-1.7792,-1.7225,-1.6655,-1.6001,-1.5534,-1.5166,-1.4879,-1.4688,-1.4592,-1.449,-1.4394,-1.4394,-1.4298,-1.4298,-1.4298,-3.6544,-3.6284,-3.6284,-3.6276,-3.6182,-3.5905,-3.5304,-3.4497,-3.4101,-3.3607,-3.3096,-3.3005,-3.2718,-3.2468,-3.2398,-3.2398,-3.2398,-3.2398,-3.2736,-3.3306,-3.3906,-3.466,-3.5292,-3.5784,-3.5698,-3.537,-3.4795,-3.4138,-3.3339,-3.2561,-3.1923,-3.1495,-3.1211,-3.1048,-3.1061,-3.1061,-3.0986,-3.0986,-3.0986,-3.0908,-3.0615,-3.0005,-2.9668,-2.9187,-2.8443,-2.7743,-2.7186,-2.6787,-2.6385,-2.6063,-2.5895,-2.5895,-2.5895,-2.5895,-2.5895,-2.5895,-2.5895,-2.5895,-2.5895,-2.5895,-2.5895,-2.5895,-2.5895,-2.5895,-2.5812,-2.5644,-2.538,-2.4946,-2.4337,-2.356,-2.2775,-2.2078,-2.1284,-2.0925,-2.0564,-2.0382,-2.0382,-2.0292,-2.0292,-2.0292,-2.0201,-2.0201,-2.011,-2.011,-1.9928,-1.9845,-1.9853,-1.9945,-2.0036,-1.9936,-1.9936,-1.9845,-1.9754,-1.9671,-1.9579,-1.9487,-1.9204,-1.8928,-1.8357,-1.7878,-1.7225,-1.6574,-1.6008,-1.5439,-1.4968,-1.4688,-1.4592,-1.4496,-1.44,-1.4298,-1.4298,-1.4298,-1.4298,-1.4298,-1.4298,-3.6544,-3.6301,-3.6284,-3.6301,-3.6233,-3.5949,-3.535,-3.4659,-3.4201,-3.3745,-3.3203,-3.3005,-3.2718,-3.2382,-3.2398,-3.2398,-3.2398,-3.2413,-3.2475,-3.2921,-3.3506,-3.4121,-3.4724,-3.5278,-3.5442,-3.5329,-3.4912,-3.4192,-3.3311,-3.2489,-3.1716,-3.1347,-3.1071,-3.0934,-3.0934,-3.096,-3.0908,-3.0895,-3.0869,-3.0651,-3.0242,-2.9683,-2.9301,-2.8749,-2.8062,-2.7451,-2.7071,-2.6764,-2.6396,-2.599,-2.5906,-2.5895,-2.5895,-2.5895,-2.5895,-2.5895,-2.5895,-2.5895,-2.5895,-2.5895,-2.5895,-2.5822,-2.5728,-2.5728,-2.5559,-2.5295,-2.4946,-2.4423,-2.3724,-2.3028,-2.2334,-2.1633,-2.1015,-2.0654,-2.0473,-2.0382,-2.0292,-2.0292,-2.0292,-2.0201,-2.011,-2.0027,-1.9936,-1.9845,-1.9662,-1.9671,-1.9671,-1.9671,-1.9762,-1.9671,-1.9662,-1.9662,-1.9487,-1.9304,-1.9204,-1.9104,-1.8735,-1.8365,-1.7792,-1.7225,-1.6567,-1.5913,-1.535,-1.4975,-1.4688,-1.4496,-1.44,-1.4298,-1.4298,-1.4298,-1.4298,-1.4298,-1.4298,-1.4298,-1.4298,-3.6266,-3.6266,-3.6284,-3.6259,-3.6233,-3.5993,-3.5532,-3.4977,-3.4497,-3.3949,-3.345,-3.3112,-3.2757,-3.2523,-3.2453,-3.2398,-3.2398,-3.2398,-3.2428,-3.2598,-3.3059,-3.3583,-3.4155,-3.4833,-3.5232,-3.5187,-3.4875,-3.4327,-3.3325,-3.2259,-3.1508,-3.1185,-3.0904,-3.066,-3.0555,-3.0359,-3.0228,-3.0333,-3.0411,-3.0225,-2.9818,-2.9198,-2.8619,-2.8188,-2.7533,-2.716,-2.6875,-2.6558,-2.6313,-2.599,-2.5906,-2.5895,-2.5895,-2.5895,-2.5895,-2.5895,-2.5895,-2.5895,-2.5895,-2.5895,-2.5895,-2.5728,-2.5559,-2.5306,-2.5126,-2.4786,-2.4423,-2.3897,-2.3202,-2.2413,-2.1802,-2.1186,-2.0916,-2.0564,-2.0382,-2.0292,-2.0292,-2.0292,-2.0201,-2.011,-2.0027,-1.9845,-1.9671,-1.9571,-1.9387,-1.9387,-1.9296,-1.9204,-1.9296,-1.9387,-1.9379,-1.9379,-1.9204,-1.8936,-1.8835,-1.845,-1.7986,-1.752,-1.6951,-1.6386,-1.5818,-1.5445,-1.4975,-1.4688,-1.449,-1.4298,-1.4298,-1.4298,-1.4298,-1.4298,-1.4298,-1.4298,-1.4298,-1.4298,-1.4298,-3.5694,-3.6077,-3.6197,-3.6172,-3.6208,-3.6062,-3.58,-3.5379,-3.4835,-3.4267,-3.371,-3.3309,-3.2866,-3.2578,-3.2453,-3.2398,-3.2398,-3.2398,-3.2398,-3.2398,-3.2875,-3.3321,-3.3844,-3.4614,-3.4729,-3.4723,-3.4421,-3.3738,-3.3044,-3.1932,-3.0923,-3.0904,-3.0346,-3.0072,-3.0019,-2.9732,-2.9614,-2.9666,-2.9686,-2.9528,-2.9215,-2.8523,-2.7708,-2.7336,-2.6872,-2.641,-2.6211,-2.6132,-2.6157,-2.599,-2.5895,-2.5895,-2.5895,-2.5895,-2.5895,-2.5895,-2.5895,-2.5895,-2.5895,-2.5812,-2.5738,-2.5559,-2.5306,-2.4956,-2.469,-2.4358,-2.3917,-2.3299,-2.2599,-2.1891,-2.1275,-2.0916,-2.0555,-2.0473,-2.0382,-2.0201,-2.0201,-2.011,-2.0027,-1.9845,-1.9754,-1.9571,-1.9479,-1.9379,-1.9204,-1.9104,-1.9096,-1.892,-1.892,-1.902,-1.9012,-1.9104,-1.8827,-1.8558,-1.8087,-1.7707,-1.7138,-1.6669,-1.6109,-1.573,-1.535,-1.4975,-1.4592,-1.4496,-1.4394,-1.4298,-1.4298,-1.4298,-1.4298,-1.4298,-1.4298,-1.4298,-1.4298,-1.4298,-1.4298,-3.4636,-3.468,-3.5232,-3.5766,-3.6224,-3.6191,-3.5993,-3.5667,-3.5274,-3.4643,-3.3848,-3.3346,-3.2935,-3.2633,-3.2453,-3.2398,-3.2398,-3.2398,-3.2398,-3.2398,-3.2675,-3.2982,-3.3306,-3.386,-3.404,-3.3985,-3.3609,-3.2803,-3.175,-3.0778,-3.0117,-2.9843,-2.9562,-2.9588,-2.9562,-2.9274,-2.9183,-2.9065,-2.8976,-2.8795,-2.8447,-2.8023,-2.7369,-2.6858,-2.6288,-2.6174,-2.6064,-2.6095,-2.608,-2.599,-2.5906,-2.5895,-2.5895,-2.5895,-2.5895,-2.5895,-2.5895,-2.5895,-2.5895,-2.5812,-2.5654,-2.5391,-2.5041,-2.4605,-2.4262,-2.3927,-2.3406,-2.2696,-2.2078,-2.1454,-2.0925,-2.0654,-2.0382,-2.0292,-2.0292,-2.011,-2.0019,-1.9936,-1.9762,-1.9579,-1.9479,-1.9296,-1.9288,-1.9104,-1.892,-1.892,-1.892,-1.8827,-1.8743,-1.8743,-1.8558,-1.855,-1.8357,-1.8087,-1.752,-1.6958,-1.6487,-1.6015,-1.554,-1.5166,-1.4885,-1.4688,-1.44,-1.44,-1.4298,-1.4298,-1.4298,-1.4298,-1.4298,-1.4298,-1.4298,-1.4298,-1.4298,-1.4298,-1.4298,-3.396,-3.4202,-3.4887,-3.5628,-3.6232,-3.6276,-3.6122,-3.5844,-3.5487,-3.493,-3.4134,-3.3555,-3.3096,-3.2703,-3.2523,-3.2398,-3.2398,-3.2398,-3.2398,-3.2398,-3.2428,-3.2613,-3.2906,-3.3244,-3.3398,-3.338,-3.2809,-3.1872,-3.0651,-3.0475,-3.0215,-2.983,-2.9627,-2.9235,-2.9209,-2.9065,-2.8778,-2.849,-2.8412,-2.8228,-2.7882,-2.7399,-2.6706,-2.6117,-2.6009,-2.5927,-2.5814,-2.5847,-2.5986,-2.5906,-2.5895,-2.5895,-2.5895,-2.5895,-2.5895,-2.5895,-2.5895,-2.5895,-2.5812,-2.5728,-2.5475,-2.5126,-2.4775,-2.4251,-2.3484,-2.3057,-2.2696,-2.2069,-2.1624,-2.0997,-2.0645,-2.0292,-2.0201,-2.011,-1.9936,-1.9845,-1.9754,-1.9571,-1.9479,-1.9379,-1.9196,-1.902,-1.9012,-1.9012,-1.8827,-1.8827,-1.8827,-1.8743,-1.8651,-1.8373,-1.8187,-1.79,-1.7707,-1.7326,-1.6857,-1.6298,-1.5737,-1.5356,-1.507,-1.4783,-1.4592,-1.44,-1.4298,-1.4298,-1.4298,-1.4298,-1.4298,-1.4298,-1.4298,-1.4298,-1.4298,-1.4298,-1.4298,-1.4298,-1.4298,-3.3405,-3.4029,-3.4731,-3.5473,-3.6128,-3.6284,-3.6174,-3.5975,-3.5605,-3.5055,-3.4431,-3.3813,-3.3309,-3.2881,-3.2594,-3.2468,-3.2398,-3.2398,-3.2398,-3.2398,-3.2398,-3.249,-3.2659,-3.2936,-3.2867,-3.2601,-3.2072,-3.1312,-3.0446,-3.0274,-3.0135,-3.0354,-2.9849,-2.9104,-2.9052,-2.8739,-2.8347,-2.8395,-2.8438,-2.8447,-2.7793,-2.7056,-2.6387,-2.5973,-2.5651,-2.5638,-2.5452,-2.5495,-2.5902,-2.5895,-2.5895,-2.5895,-2.5895,-2.5895,-2.5895,-2.5895,-2.5895,-2.5906,-2.5822,-2.5559,-2.5211,-2.4861,-2.4337,-2.3657,-2.2882,-2.2353,-2.1989,-2.1535,-2.1087,-2.0727,-2.0374,-2.0019,-1.9928,-1.9837,-1.9662,-1.9579,-1.9479,-1.9296,-1.9196,-1.9188,-1.9012,-1.8827,-1.8827,-1.8827,-1.8827,-1.8827,-1.8735,-1.8651,-1.8373,-1.79,-1.7613,-1.7145,-1.6763,-1.6386,-1.6103,-1.5724,-1.5166,-1.4879,-1.4682,-1.449,-1.4298,-1.4298,-1.4298,-1.4298,-1.4298,-1.4298,-1.4298,-1.4298,-1.4298,-1.4298,-1.4298,-1.4298,-1.4298,-1.4298,-1.4298,-3.2624,-3.3197,-3.3973,-3.4731,-3.5439,-3.6025,-3.6174,-3.5975,-3.5711,-3.5148,-3.4497,-3.3899,-3.3398,-3.2912,-3.2523,-3.2398,-3.2398,-3.2398,-3.2398,-3.2398,-3.2398,-3.2398,-3.2459,-3.2588,-3.2076,-3.1664,-3.1213,-3.0459,-3.016,-2.9684,-2.9286,-2.924,-2.8543,-2.8451,-2.917,-2.8856,-2.8647,-2.8734,-2.8686,-2.8741,-2.8303,-2.7603,-2.7017,-2.6574,-2.6135,-2.5825,-2.5613,-2.5766,-2.5902,-2.5895,-2.5895,-2.5895,-2.5895,-2.5895,-2.5895,-2.5895,-2.5895,-2.5822,-2.5644,-2.538,-2.4946,-2.4327,-2.3724,-2.296,-2.2274,-2.1741,-2.1284,-2.0736,-2.0382,-2.0292,-2.0027,-1.9754,-1.9671,-1.9571,-1.9387,-1.9296,-1.9196,-1.9104,-1.892,-1.892,-1.892,-1.8827,-1.8827,-1.8827,-1.8735,-1.8743,-1.8558,-1.8465,-1.7994,-1.752,-1.7044,-1.648,-1.592,-1.5547,-1.5267,-1.5159,-1.4783,-1.449,-1.4394,-1.4298,-1.4298,-1.4298,-1.4298,-1.4298,-1.4298,-1.4298,-1.4298,-1.4298,-1.4298,-1.4298,-1.4298,-1.4298,-1.4298,-1.4298,-1.4298]},{"header":{"parameterUnit":"m.s-1","parameterCategory":1,"la1":31.0,"la2":29.5877,"lo1":-88.7671,"lo2":-86.6584,"dy":0.0162,"dx":0.0185,"nx":115,"ny":88,"refTime":"2023-04-12T12:00:00:Z","depth":0,"parameterNumber":3,"parameterNumberName":"V-component_of_WINDS"},"data":[0.0,0.0,0.0,0.0,0.0,0.0,0.0,0.0,0.0,0.0,0.0,0.0,0.0,0.0,0.0,0.0,0.0,0.0,0.0,0.0,0.0,0.0,0.0,0.0,0.0,0.0,0.0,0.0,0.0,0.0,0.0,0.0,0.0,0.0,0.0,0.0,0.0,0.0,0.0,0.0,0.0,0.0,0.0,0.0,0.0,0.0,0.0,0.0,0.0,0.0,0.0,0.0,0.0,0.0,0.0,0.0,0.0,0.0,0.0,0.0,0.0,0.0,0.0,0.0,0.0,0.0,0.0,0.0,0.0,0.0,0.0,0.0,0.0,0.0,0.0,0.0,0.0,0.0,0.0,0.0,0.0,0.0,0.0,0.0,0.0,0.0,0.0,0.0,0.0,0.0,0.0,0.0,0.0,0.0,0.0,0.0,0.0,0.0,0.0,0.0,0.0,0.0,0.0,0.0,0.0,0.0,0.0,0.0,0.0,0.0,0.0,0.0,0.0,0.0,0.0,0.0,0.0,0.0,0.0,0.0,0.0,0.0,0.0,0.0,0.0,0.0,0.0,0.0,0.0,0.0,0.0,0.0,0.0,0.0,0.0,0.0,0.0,0.0,0.0,0.0,0.0,0.0,0.0,0.0,0.0,0.0,0.0,0.0,0.0,0.0,0.0,0.0,0.0,0.0,0.0,0.0,0.0,0.0,0.0,0.0,0.0,0.0,0.0,0.0,0.0,0.0,0.0,0.0,0.0,0.0,0.0,0.0,0.0,0.0,0.0,0.0,0.0,0.0,0.0,0.0,0.0,0.0,0.0,0.0,0.0,0.0,0.0,0.0,0.0,0.0,0.0,0.0,0.0,0.0,0.0,0.0,0.0,0.0,0.0,0.0,0.0,0.0,0.0,0.0,0.0,0.0,0.0,0.0,0.0,0.0,0.0,0.0,0.0,0.0,0.0,0.0,0.0,0.0,0.0,0.0,0.0,0.0,0.0,0.0,0.0,0.0,0.0,0.0,0.0,0.0,0.0,0.0,0.0,0.0,0.0,0.0,0.0,0.0,0.0,0.0,0.0,0.0,0.0,0.0,0.0,0.0,0.0,0.0,0.0,0.0,0.0,0.0,0.0,0.0,0.0,0.0,0.0,0.0,0.0,0.0,0.0,0.0,0.0,0.0,0.0,0.0,0.0,0.0,0.0,0.0,0.0,0.0,0.0,0.0,0.0,0.0,0.0,0.0,0.0,0.0,0.0,0.0,0.0,0.0,0.0,0.0,0.0,0.0,0.0,0.0,0.0,0.0,0.0,0.0,0.0,0.0,0.0,0.0,0.0,0.0,0.0,0.0,0.0,0.0,0.0,0.0,0.0,0.0,0.0,0.0,0.0,0.0,0.0,0.0,0.0,0.0,0.0,0.0,0.0,0.0,0.0,0.0,0.0,0.0,0.0,0.0,0.0,0.0,0.0,0.0,0.0,0.0,0.0,0.0,0.0,0.0,0.0,0.0,0.0,0.0,0.0,0.0,0.0,0.0,0.0,0.0,0.0,0.0,0.0,0.0,0.0,0.0,0.0,0.0,0.0,0.0,0.0,0.0,0.0,0.0,0.0,0.0,0.0,0.0,0.0,0.0,0.0,0.0,0.0,0.0,0.0,0.0,0.0,0.0,0.0,0.0,0.0,0.0,0.0,0.0,0.0,0.0,0.0,0.0,0.0,0.0,0.0,0.0,0.0,0.0,0.0,0.0,0.0,0.0,0.0,0.0,0.0,0.0,0.0,0.0,0.0,0.0,0.0,0.0,0.0,0.0,0.0,0.0,0.0,0.0,0.0,0.0,0.0,0.0,0.0,0.0,0.0,0.0,0.0,0.0,0.0,0.0,0.0,0.0,0.0,0.0,0.0,0.0,0.0,0.0,0.0,0.0,0.0,0.0,0.0,0.0,0.0,0.0,0.0,0.0,0.0,0.0,0.0,0.0,0.0,0.0,0.0,0.0,0.0,0.0,0.0,0.0,0.0,0.0,0.0,0.0,0.0,0.0,0.0,0.0,0.0,0.0,0.0,0.0,0.0,0.0,0.0,0.0,0.0,0.0,0.0,0.0,0.0,0.0,0.0,0.0,0.0,0.0,0.0,0.0,0.0,0.0,0.0,0.0,0.0,0.0,0.0,0.0,0.0,0.0,0.0,0.0,0.0,0.0,0.0,0.0,0.0,0.0,0.0,0.0,0.0,0.0,0.0,0.0,0.0,0.0,0.0,0.0,0.0,0.0,0.0,0.0,0.0,0.0,0.0,0.0,0.0,0.0,0.0,0.0,0.0,0.0,0.0,0.0,0.0,0.0,0.0,0.0,0.0,0.0,0.0,0.0,0.0,0.0,0.0,0.0,0.0,0.0,0.0,0.0,0.0,0.0,0.0,0.0,0.0,0.0,0.0,0.0,0.0,0.0,0.0,0.0,0.0,0.0,0.0,0.0,0.0,0.0,0.0,0.0,0.0,0.0,0.0,0.0,0.0,0.0,0.0,0.0,0.0,0.0,0.0,0.0,0.0,0.0,0.0,0.0,0.0,0.0,0.0,0.0,0.0,0.0,0.0,0.0,0.0,0.0,0.0,0.0,0.0,0.0,0.0,0.0,0.0,0.0,0.0,0.0,0.0,0.0,0.0,0.0,0.0,0.0,0.0,0.0,0.0,0.0,0.0,0.0,0.0,0.0,0.0,0.0,0.0,0.0,0.0,0.0,0.0,0.0,0.0,0.0,0.0,0.0,0.0,0.0,0.0,0.0,0.0,0.0,0.0,0.0,0.0,0.0,0.0,0.0,0.0,0.0,0.0,0.0,0.0,0.0,0.0,0.0,0.0,0.0,0.0,0.0,0.0,0.0,0.0,0.0,0.0,0.0,0.0,0.0,0.0,0.0,0.0,0.0,0.0,0.0,0.0,0.0,0.0,0.0,0.0,0.0,0.0,0.0,0.0,0.0,0.0,0.0,0.0,0.0,0.0,0.0,0.0,0.0,0.0,0.0,0.0,0.0,0.0,0.0,0.0,0.0,0.0,0.0,0.0,0.0,0.0,0.0,0.0,0.0,0.0,0.0,0.0,0.0,0.0,0.0,0.0,0.0,0.0,0.0,0.0,0.0,0.0,0.0,0.0,0.0,0.0,0.0,0.0,0.0,0.0,0.0,0.0,0.0,0.0,0.0,0.0,0.0,0.0,0.0,0.0,0.0,0.0,0.0,0.0,0.0,0.0,0.0,0.0,0.0,0.0,0.0,0.0,0.0,0.0,0.0,0.0,0.0,0.0,0.0,0.0,0.0,0.0,0.0,0.0,0.0,0.0,0.0,0.0,0.0,0.0,0.0,0.0,0.0,0.0,0.0,0.0,0.0,0.0,0.0,0.0,0.0,0.0,0.0,0.0,0.0,0.0,0.0,0.0,0.0,0.0,0.0,0.0,0.0,0.0,0.0,0.0,0.0,0.0,0.0,0.0,0.0,0.0,0.0,0.0,0.0,0.0,0.0,0.0,0.0,0.0,0.0,0.0,0.0,0.0,0.0,0.0,0.0,0.0,0.0,0.0,0.0,0.0,0.0,0.0,0.0,0.0,0.0,0.0,0.0,0.0,0.0,0.0,0.0,0.0,0.0,0.0,0.0,0.0,0.0,0.0,0.0,0.0,0.0,0.0,0.0,0.0,0.0,0.0,0.0,0.0,0.0,0.0,0.0,0.0,0.0,0.0,0.0,0.0,0.0,0.0,0.0,0.0,0.0,0.0,0.0,0.0,0.0,0.0,0.0,0.0,0.0,0.0,0.0,0.0,0.0,0.0,0.0,0.0,0.0,0.0,0.0,0.0,0.0,0.0,0.0,0.0,0.0,0.0,0.0,0.0,0.0,0.0,0.0,0.0,0.0,0.0,0.0,0.0,0.0,0.0,0.0,0.0,0.0,0.0,0.0,0.0,0.0,0.0,0.0,0.0,0.0,0.0,0.0,0.0,0.0,0.0,0.0,0.0,0.0,0.0,0.0,0.0,0.0,0.0,0.0,0.0,0.0,0.0,0.0,0.0,0.0,0.0,0.0,0.0,0.0,0.0,0.0,0.0,0.0,0.0,0.0,0.0,0.0,0.0,0.0,0.0,0.0,0.0,0.0,0.0,0.0,0.0,0.0,0.0,0.0,0.0,0.0,0.0,0.0,0.0,0.0,0.0,0.0,0.0,0.0,0.0,0.0,0.0,0.0,0.0,0.0,0.0,0.0,0.0,0.0,0.0,0.0,0.0,0.0,0.0,0.0,-1.6675,0.0,0.0,0.0,0.0,0.0,0.0,0.0,0.0,0.0,0.0,0.0,0.0,0.0,0.0,0.0,0.0,0.0,0.0,0.0,0.0,0.0,0.0,0.0,0.0,0.0,0.0,0.0,0.0,0.0,0.0,0.0,0.0,0.0,0.0,0.0,0.0,0.0,0.0,0.0,0.0,0.0,0.0,0.0,0.0,0.0,0.0,0.0,0.0,0.0,0.0,0.0,0.0,0.0,0.0,0.0,0.0,0.0,0.0,0.0,0.0,0.0,0.0,0.0,0.0,0.0,0.0,0.0,0.0,0.0,0.0,0.0,0.0,0.0,0.0,0.0,0.0,0.0,0.0,0.0,0.0,0.0,0.0,0.0,0.0,0.0,0.0,0.0,0.0,0.0,0.0,0.0,0.0,0.0,0.0,0.0,0.0,0.0,0.0,0.0,0.0,0.0,0.0,0.0,0.0,0.0,0.0,0.0,0.0,0.0,0.0,-1.6276,-1.6738,-1.7235,-1.7615,-1.7861,0.0,0.0,0.0,0.0,0.0,0.0,0.0,0.0,0.0,0.0,0.0,0.0,0.0,0.0,0.0,0.0,0.0,0.0,0.0,0.0,0.0,0.0,0.0,0.0,0.0,0.0,0.0,0.0,0.0,0.0,0.0,0.0,0.0,0.0,0.0,0.0,0.0,0.0,0.0,0.0,0.0,0.0,0.0,0.0,0.0,0.0,0.0,0.0,0.0,0.0,0.0,0.0,0.0,0.0,0.0,0.0,0.0,0.0,0.0,0.0,0.0,0.0,0.0,0.0,0.0,0.0,0.0,0.0,0.0,0.0,0.0,0.0,0.0,0.0,0.0,0.0,0.0,0.0,0.0,0.0,0.0,0.0,0.0,0.0,0.0,0.0,0.0,0.0,0.0,0.0,0.0,0.0,0.0,0.0,0.0,0.0,0.0,0.0,0.0,0.0,0.0,0.0,0.0,0.0,0.0,0.0,0.0,0.0,0.0,0.0,0.0,0.0,-1.8749,-1.8986,-1.896,0.0,0.0,0.0,0.0,0.0,0.0,0.0,0.0,0.0,0.0,0.0,0.0,0.0,0.0,0.0,0.0,0.0,0.0,0.0,0.0,0.0,0.0,0.0,0.0,0.0,0.0,0.0,0.0,0.0,0.0,0.0,0.0,0.0,0.0,0.0,0.0,0.0,0.0,0.0,0.0,0.0,0.0,0.0,0.0,0.0,0.0,0.0,0.0,0.0,0.0,0.0,0.0,0.0,0.0,0.0,0.0,0.0,0.0,0.0,0.0,0.0,0.0,0.0,0.0,0.0,0.0,0.0,0.0,0.0,0.0,0.0,0.0,0.0,0.0,0.0,0.0,0.0,0.0,0.0,0.0,0.0,0.0,0.0,0.0,0.0,0.0,0.0,0.0,0.0,0.0,0.0,0.0,0.0,0.0,0.0,0.0,0.0,0.0,0.0,0.0,0.0,0.0,0.0,0.0,0.0,0.0,0.0,0.0,0.0,0.0,-1.8209,-1.8433,-1.8692,0.0,-1.9755,0.0,0.0,0.0,0.0,0.0,0.0,0.0,0.0,0.0,0.0,0.0,0.0,0.0,0.0,0.0,0.0,0.0,0.0,0.0,0.0,0.0,0.0,0.0,0.0,0.0,0.0,0.0,0.0,0.0,0.0,0.0,0.0,0.0,0.0,0.0,0.0,0.0,0.0,0.0,0.0,0.0,0.0,0.0,0.0,0.0,0.0,0.0,0.0,0.0,0.0,0.0,0.0,0.0,0.0,0.0,0.0,0.0,0.0,0.0,0.0,0.0,0.0,0.0,0.0,0.0,0.0,0.0,0.0,0.0,0.0,0.0,0.0,0.0,0.0,0.0,0.0,0.0,0.0,0.0,0.0,0.0,0.0,0.0,0.0,0.0,0.0,0.0,0.0,0.0,0.0,0.0,0.0,0.0,0.0,0.0,0.0,0.0,0.0,0.0,0.0,0.0,0.0,0.0,0.0,0.0,0.0,0.0,0.0,0.0,0.0,-1.96,-2.0049,-2.0276,-2.0652,0.0,0.0,0.0,0.0,0.0,0.0,0.0,0.0,0.0,0.0,0.0,0.0,0.0,0.0,0.0,0.0,0.0,0.0,0.0,0.0,0.0,0.0,0.0,0.0,0.0,0.0,0.0,0.0,0.0,0.0,0.0,0.0,0.0,0.0,0.0,0.0,0.0,0.0,0.0,0.0,0.0,0.0,0.0,0.0,0.0,0.0,0.0,0.0,0.0,0.0,0.0,0.0,0.0,0.0,0.0,0.0,0.0,0.0,0.0,0.0,0.0,0.0,0.0,0.0,0.0,0.0,0.0,0.0,0.0,0.0,0.0,0.0,0.0,0.0,0.0,0.0,0.0,0.0,0.0,0.0,0.0,0.0,0.0,0.0,0.0,0.0,0.0,0.0,0.0,0.0,0.0,0.0,0.0,0.0,0.0,0.0,0.0,0.0,0.0,0.0,0.0,0.0,0.0,0.0,0.0,0.0,0.0,0.0,0.0,0.0,-2.0286,-2.1028,-2.1537,-2.169,-2.184,-2.2147,0.0,0.0,0.0,0.0,0.0,0.0,0.0,0.0,0.0,0.0,0.0,0.0,0.0,0.0,0.0,0.0,0.0,0.0,0.0,0.0,0.0,0.0,0.0,0.0,0.0,0.0,0.0,0.0,0.0,0.0,0.0,0.0,0.0,0.0,0.0,0.0,0.0,0.0,0.0,0.0,0.0,0.0,0.0,0.0,0.0,0.0,0.0,0.0,0.0,0.0,0.0,0.0,0.0,0.0,0.0,0.0,0.0,0.0,0.0,0.0,0.0,0.0,0.0,0.0,0.0,0.0,0.0,0.0,0.0,0.0,0.0,0.0,0.0,0.0,0.0,0.0,0.0,0.0,0.0,0.0,0.0,0.0,0.0,0.0,0.0,0.0,0.0,0.0,0.0,0.0,0.0,0.0,0.0,0.0,0.0,0.0,0.0,0.0,0.0,0.0,0.0,0.0,0.0,0.0,0.0,0.0,0.0,0.0,-2.0053,-2.142,-2.2259,-2.2524,-2.23,-2.2155,0.0,0.0,0.0,0.0,0.0,0.0,0.0,0.0,0.0,0.0,0.0,0.0,0.0,0.0,0.0,0.0,0.0,0.0,0.0,0.0,0.0,0.0,0.0,0.0,0.0,0.0,0.0,0.0,0.0,0.0,0.0,0.0,0.0,0.0,0.0,0.0,0.0,0.0,0.0,0.0,0.0,0.0,0.0,0.0,0.0,0.0,0.0,0.0,0.0,0.0,0.0,0.0,0.0,0.0,0.0,0.0,0.0,0.0,0.0,0.0,0.0,0.0,0.0,0.0,0.0,0.0,0.0,0.0,0.0,0.0,0.0,0.0,0.0,0.0,0.0,0.0,0.0,0.0,0.0,0.0,0.0,0.0,0.0,0.0,0.0,0.0,0.0,0.0,0.0,0.0,0.0,0.0,0.0,0.0,0.0,0.0,0.0,0.0,0.0,0.0,0.0,0.0,0.0,0.0,0.0,0.0,0.0,0.0,0.0,-2.0309,-2.17,-2.2559,-2.2991,-2.258,-2.2412,0.0,0.0,0.0,0.0,0.0,0.0,0.0,0.0,0.0,0.0,0.0,0.0,0.0,0.0,0.0,0.0,0.0,0.0,0.0,0.0,0.0,0.0,0.0,0.0,0.0,0.0,0.0,0.0,0.0,0.0,0.0,0.0,0.0,0.0,0.0,0.0,0.0,0.0,0.0,0.0,0.0,0.0,0.0,0.0,0.0,0.0,0.0,0.0,0.0,0.0,0.0,0.0,0.0,0.0,0.0,0.0,0.0,0.0,0.0,0.0,0.0,0.0,0.0,0.0,0.0,0.0,0.0,0.0,0.0,0.0,0.0,0.0,0.0,0.0,0.0,0.0,0.0,0.0,0.0,0.0,0.0,0.0,0.0,0.0,0.0,0.0,0.0,0.0,0.0,0.0,0.0,0.0,0.0,0.0,0.0,0.0,0.0,0.0,0.0,0.0,0.0,0.0,0.0,0.0,0.0,0.0,0.0,0.0,0.0,-2.1311,0.0,-2.3163,-2.3588,-2.3184,-2.2884,0.0,0.0,0.0,0.0,0.0,0.0,0.0,0.0,0.0,0.0,0.0,0.0,0.0,0.0,0.0,0.0,0.0,0.0,0.0,0.0,0.0,0.0,0.0,0.0,0.0,0.0,0.0,0.0,0.0,0.0,0.0,0.0,0.0,0.0,0.0,0.0,0.0,0.0,0.0,0.0,0.0,0.0,0.0,0.0,0.0,0.0,0.0,0.0,0.0,0.0,0.0,0.0,0.0,0.0,0.0,0.0,0.0,0.0,0.0,0.0,0.0,0.0,0.0,0.0,0.0,0.0,0.0,0.0,0.0,0.0,0.0,0.0,0.0,0.0,0.0,0.0,0.0,0.0,0.0,0.0,0.0,0.0,0.0,0.0,0.0,0.0,0.0,0.0,0.0,0.0,0.0,0.0,0.0,0.0,0.0,0.0,0.0,0.0,0.0,0.0,0.0,0.0,0.0,0.0,0.0,0.0,0.0,0.0,-2.1352,-2.3111,-2.3629,-2.4064,-2.4509,-2.4095,-2.365,0.0,0.0,0.0,0.0,0.0,0.0,0.0,0.0,0.0,0.0,0.0,0.0,0.0,0.0,0.0,0.0,0.0,0.0,0.0,0.0,0.0,0.0,0.0,0.0,0.0,0.0,0.0,0.0,0.0,0.0,0.0,0.0,0.0,0.0,0.0,0.0,0.0,0.0,0.0,0.0,0.0,0.0,0.0,0.0,0.0,0.0,0.0,0.0,0.0,0.0,0.0,0.0,0.0,0.0,0.0,0.0,0.0,0.0,0.0,0.0,0.0,0.0,0.0,0.0,0.0,0.0,0.0,0.0,0.0,0.0,0.0,0.0,0.0,0.0,0.0,0.0,0.0,0.0,0.0,0.0,0.0,0.0,0.0,0.0,0.0,0.0,0.0,0.0,0.0,0.0,0.0,0.0,0.0,0.0,0.0,0.0,0.0,0.0,0.0,0.0,0.0,0.0,0.0,0.0,0.0,0.0,0.0,0.0,0.0,-2.4084,-2.426,-2.455,-2.4974,-2.4571,-2.3971,0.0,0.0,0.0,0.0,0.0,0.0,0.0,0.0,0.0,0.0,0.0,0.0,0.0,0.0,0.0,0.0,0.0,0.0,0.0,0.0,0.0,0.0,0.0,0.0,0.0,0.0,0.0,0.0,0.0,0.0,0.0,0.0,0.0,0.0,0.0,0.0,0.0,0.0,0.0,0.0,0.0,0.0,0.0,0.0,0.0,0.0,0.0,0.0,0.0,0.0,0.0,0.0,0.0,0.0,0.0,0.0,0.0,0.0,0.0,0.0,0.0,0.0,0.0,0.0,0.0,0.0,0.0,0.0,0.0,0.0,0.0,0.0,0.0,0.0,0.0,0.0,0.0,0.0,0.0,0.0,0.0,0.0,0.0,0.0,0.0,0.0,0.0,0.0,0.0,0.0,0.0,0.0,0.0,0.0,0.0,0.0,0.0,0.0,0.0,0.0,0.0,0.0,0.0,0.0,0.0,0.0,0.0,0.0,0.0,-2.5502,-2.5223,-2.5171,-2.5461,-2.5037,-2.4457,-2.3712,0.0,0.0,0.0,0.0,0.0,0.0,0.0,0.0,0.0,0.0,0.0,0.0,0.0,0.0,0.0,0.0,0.0,0.0,0.0,0.0,0.0,0.0,0.0,0.0,0.0,0.0,0.0,0.0,0.0,0.0,0.0,0.0,0.0,0.0,0.0,0.0,0.0,0.0,0.0,0.0,0.0,0.0,0.0,0.0,0.0,0.0,0.0,0.0,0.0,0.0,0.0,0.0,0.0,0.0,0.0,0.0,0.0,0.0,0.0,0.0,0.0,0.0,0.0,0.0,0.0,0.0,0.0,0.0,0.0,0.0,0.0,0.0,0.0,0.0,0.0,0.0,0.0,0.0,0.0,0.0,0.0,0.0,0.0,0.0,0.0,0.0,0.0,0.0,0.0,0.0,0.0,0.0,0.0,0.0,0.0,0.0,0.0,0.0,0.0,0.0,0.0,0.0,0.0,0.0,0.0,0.0,0.0,0.0,-2.7272,-2.6496,-2.6061,-2.5999,-2.5564,-2.5078,0.0,0.0,0.0,0.0,0.0,0.0,0.0,0.0,0.0,0.0,0.0,0.0,0.0,0.0,0.0,0.0,0.0,0.0,0.0,0.0,0.0,0.0,0.0,0.0,0.0,0.0,0.0,0.0,0.0,0.0,0.0,0.0,0.0,0.0,0.0,0.0,0.0,0.0,0.0,0.0,0.0,0.0,0.0,0.0,0.0,0.0,0.0,0.0,0.0,0.0,0.0,0.0,0.0,0.0,0.0,0.0,0.0,0.0,0.0,0.0,0.0,0.0,0.0,0.0,0.0,0.0,0.0,0.0,0.0,0.0,0.0,0.0,0.0,0.0,0.0,0.0,0.0,0.0,0.0,0.0,0.0,0.0,0.0,0.0,0.0,0.0,0.0,0.0,0.0,0.0,0.0,0.0,0.0,0.0,0.0,0.0,0.0,0.0,0.0,0.0,0.0,0.0,0.0,0.0,0.0,0.0,0.0,0.0,0.0,-2.7696,-2.8369,-2.8286,-2.7407,-2.663,-2.5778,0.0,0.0,0.0,0.0,0.0,0.0,0.0,0.0,0.0,0.0,0.0,0.0,0.0,0.0,0.0,0.0,0.0,0.0,0.0,0.0,0.0,0.0,0.0,0.0,0.0,0.0,0.0,0.0,0.0,0.0,0.0,0.0,0.0,0.0,0.0,0.0,0.0,0.0,0.0,0.0,0.0,0.0,0.0,0.0,0.0,0.0,0.0,0.0,0.0,0.0,0.0,0.0,0.0,0.0,0.0,0.0,0.0,0.0,0.0,0.0,0.0,0.0,0.0,0.0,0.0,0.0,0.0,0.0,0.0,0.0,0.0,0.0,0.0,0.0,0.0,0.0,0.0,0.0,0.0,0.0,0.0,0.0,0.0,0.0,0.0,0.0,0.0,0.0,0.0,0.0,0.0,0.0,0.0,0.0,0.0,0.0,0.0,0.0,0.0,0.0,0.0,0.0,0.0,0.0,0.0,0.0,0.0,0.0,-2.7599,-2.8781,-3.0208,-3.0533,-2.9579,-2.8208,-2.7062,0.0,0.0,0.0,0.0,0.0,0.0,0.0,0.0,0.0,0.0,0.0,0.0,0.0,0.0,0.0,0.0,0.0,0.0,0.0,0.0,0.0,0.0,0.0,0.0,0.0,0.0,0.0,0.0,0.0,0.0,0.0,0.0,0.0,0.0,0.0,0.0,0.0,0.0,0.0,0.0,0.0,0.0,0.0,0.0,0.0,0.0,0.0,0.0,0.0,0.0,0.0,0.0,0.0,0.0,0.0,0.0,0.0,0.0,0.0,0.0,0.0,0.0,0.0,0.0,0.0,0.0,0.0,0.0,0.0,0.0,0.0,0.0,0.0,0.0,0.0,0.0,0.0,0.0,0.0,0.0,0.0,0.0,0.0,0.0,0.0,0.0,0.0,0.0,0.0,0.0,0.0,0.0,0.0,0.0,0.0,0.0,0.0,0.0,0.0,0.0,0.0,0.0,0.0,0.0,0.0,0.0,0.0,0.0,-2.9112,-3.0354,-3.2017,-3.2598,-3.2068,-3.0063,-2.8612,0.0,0.0,0.0,0.0,0.0,0.0,0.0,0.0,0.0,0.0,0.0,0.0,0.0,0.0,0.0,0.0,0.0,0.0,0.0,0.0,0.0,0.0,0.0,0.0,0.0,0.0,0.0,0.0,0.0,0.0,0.0,0.0,0.0,0.0,0.0,0.0,0.0,0.0,0.0,0.0,0.0,0.0,0.0,0.0,0.0,0.0,0.0,0.0,0.0,0.0,0.0,0.0,0.0,0.0,0.0,0.0,0.0,0.0,0.0,0.0,0.0,0.0,0.0,0.0,0.0,0.0,0.0,0.0,0.0,0.0,0.0,0.0,0.0,0.0,0.0,0.0,0.0,0.0,0.0,0.0,0.0,0.0,0.0,0.0,0.0,0.0,0.0,0.0,0.0,0.0,0.0,0.0,0.0,0.0,0.0,0.0,0.0,0.0,0.0,0.0,0.0,0.0,0.0,0.0,0.0,0.0,0.0,0.0,-2.9914,-3.1897,-3.3318,-3.3852,-3.346,-3.1329,-2.9675,0.0,0.0,0.0,0.0,0.0,0.0,0.0,0.0,0.0,0.0,0.0,0.0,0.0,0.0,0.0,0.0,0.0,0.0,0.0,0.0,0.0,0.0,0.0,0.0,0.0,0.0,0.0,0.0,0.0,0.0,0.0,0.0,0.0,0.0,0.0,0.0,0.0,0.0,0.0,0.0,0.0,0.0,0.0,0.0,0.0,0.0,0.0,0.0,-3.2121,0.0,0.0,0.0,0.0,0.0,0.0,0.0,0.0,0.0,0.0,0.0,0.0,0.0,0.0,0.0,0.0,0.0,0.0,0.0,0.0,0.0,0.0,0.0,0.0,0.0,0.0,0.0,0.0,0.0,0.0,0.0,0.0,0.0,0.0,0.0,0.0,0.0,0.0,0.0,0.0,0.0,0.0,0.0,0.0,0.0,0.0,0.0,0.0,0.0,0.0,0.0,0.0,0.0,0.0,0.0,0.0,0.0,0.0,0.0,-3.1118,-3.3126,-3.4595,-3.5199,-3.4635,-3.3323,-3.1605,0.0,0.0,0.0,0.0,0.0,0.0,0.0,0.0,0.0,0.0,0.0,0.0,0.0,0.0,0.0,0.0,0.0,0.0,0.0,0.0,0.0,0.0,0.0,0.0,0.0,0.0,0.0,0.0,0.0,0.0,0.0,0.0,0.0,0.0,0.0,0.0,0.0,0.0,0.0,0.0,0.0,0.0,0.0,0.0,0.0,0.0,0.0,0.0,0.0,0.0,0.0,0.0,0.0,0.0,0.0,0.0,0.0,0.0,0.0,0.0,0.0,0.0,0.0,0.0,0.0,0.0,0.0,0.0,0.0,0.0,0.0,0.0,0.0,0.0,0.0,0.0,0.0,0.0,0.0,0.0,0.0,0.0,0.0,0.0,0.0,0.0,0.0,0.0,0.0,0.0,0.0,0.0,0.0,0.0,0.0,0.0,0.0,0.0,0.0,0.0,0.0,0.0,0.0,0.0,0.0,0.0,0.0,-3.0518,-3.2305,-3.4289,-3.5875,-3.6438,-3.5683,-3.5095,-3.3528,-3.0824,0.0,0.0,0.0,0.0,0.0,0.0,0.0,0.0,0.0,0.0,0.0,0.0,0.0,0.0,0.0,0.0,0.0,0.0,0.0,0.0,0.0,0.0,0.0,0.0,0.0,0.0,0.0,0.0,0.0,0.0,0.0,0.0,0.0,0.0,0.0,0.0,0.0,0.0,-3.5288,-3.5302,0.0,0.0,0.0,0.0,0.0,0.0,0.0,0.0,-3.4882,0.0,0.0,0.0,0.0,0.0,0.0,0.0,0.0,0.0,0.0,0.0,0.0,0.0,0.0,0.0,0.0,0.0,0.0,0.0,0.0,0.0,0.0,0.0,0.0,0.0,0.0,0.0,0.0,0.0,0.0,0.0,0.0,0.0,0.0,0.0,0.0,0.0,0.0,0.0,0.0,0.0,0.0,0.0,0.0,0.0,0.0,0.0,0.0,0.0,0.0,0.0,0.0,0.0,0.0,0.0,0.0,-3.0224,-3.146,-3.3173,-3.5596,-3.6341,-3.6609,-3.6589,-3.5235,-3.3453,-3.143,0.0,0.0,0.0,0.0,0.0,0.0,0.0,0.0,0.0,0.0,0.0,0.0,0.0,0.0,0.0,0.0,0.0,0.0,0.0,0.0,0.0,0.0,0.0,0.0,0.0,0.0,0.0,0.0,0.0,0.0,0.0,0.0,0.0,0.0,0.0,0.0,0.0,0.0,0.0,-3.6251,-3.6256,0.0,0.0,0.0,0.0,0.0,0.0,0.0,0.0,-3.629,0.0,0.0,0.0,0.0,0.0,0.0,0.0,0.0,0.0,0.0,0.0,0.0,0.0,0.0,0.0,0.0,0.0,0.0,0.0,0.0,0.0,0.0,0.0,0.0,0.0,0.0,0.0,0.0,0.0,0.0,0.0,0.0,0.0,0.0,0.0,0.0,0.0,0.0,0.0,0.0,0.0,0.0,0.0,0.0,0.0,0.0,0.0,0.0,0.0,0.0,0.0,0.0,0.0,0.0,0.0,-3.0572,-3.1845,-3.3458,-3.5731,-3.6589,-3.6816,-3.6407,-3.535,-3.3732,0.0,0.0,0.0,0.0,0.0,0.0,0.0,0.0,0.0,0.0,0.0,0.0,0.0,0.0,0.0,0.0,0.0,0.0,0.0,0.0,0.0,0.0,0.0,0.0,0.0,0.0,0.0,0.0,0.0,0.0,0.0,0.0,0.0,0.0,0.0,0.0,0.0,0.0,0.0,0.0,-3.7334,-3.7739,-3.7375,0.0,0.0,0.0,0.0,0.0,0.0,-3.7636,-3.7834,0.0,0.0,0.0,0.0,0.0,0.0,0.0,0.0,0.0,0.0,0.0,0.0,0.0,0.0,0.0,0.0,0.0,0.0,0.0,0.0,0.0,0.0,0.0,0.0,0.0,0.0,0.0,0.0,0.0,0.0,0.0,0.0,0.0,0.0,0.0,0.0,0.0,0.0,0.0,0.0,0.0,0.0,0.0,0.0,0.0,0.0,0.0,0.0,0.0,0.0,0.0,0.0,0.0,0.0,0.0,-3.0869,-3.2091,-3.3606,-3.5571,-3.6665,-3.6813,-3.6136,-3.5338,-3.3871,0.0,0.0,0.0,0.0,0.0,0.0,0.0,0.0,0.0,0.0,0.0,0.0,0.0,0.0,0.0,0.0,0.0,0.0,0.0,0.0,0.0,0.0,0.0,0.0,0.0,0.0,0.0,0.0,0.0,0.0,0.0,0.0,0.0,0.0,0.0,0.0,0.0,0.0,0.0,0.0,0.0,-3.9151,-3.8869,-3.8972,0.0,0.0,0.0,0.0,-3.9357,-3.9412,0.0,0.0,0.0,0.0,0.0,0.0,0.0,0.0,0.0,0.0,0.0,0.0,0.0,0.0,0.0,0.0,0.0,0.0,0.0,0.0,0.0,0.0,0.0,0.0,0.0,0.0,0.0,0.0,0.0,0.0,0.0,0.0,0.0,0.0,0.0,0.0,0.0,0.0,0.0,0.0,0.0,0.0,0.0,0.0,0.0,0.0,0.0,0.0,0.0,0.0,0.0,0.0,0.0,0.0,0.0,0.0,-3.1247,-3.2558,-3.4077,-3.5846,-3.6502,-3.6721,-3.6313,-3.507,-3.3262,0.0,0.0,0.0,0.0,0.0,0.0,0.0,0.0,0.0,0.0,0.0,0.0,0.0,0.0,0.0,0.0,0.0,0.0,0.0,0.0,0.0,0.0,0.0,0.0,0.0,0.0,0.0,0.0,0.0,0.0,0.0,0.0,0.0,0.0,0.0,0.0,0.0,0.0,0.0,0.0,0.0,-3.9966,-3.9891,-4.0244,-4.0536,0.0,0.0,-4.0462,-4.0625,-4.0577,0.0,0.0,0.0,0.0,0.0,0.0,0.0,0.0,0.0,0.0,0.0,0.0,0.0,0.0,0.0,0.0,0.0,0.0,0.0,0.0,0.0,0.0,0.0,0.0,0.0,0.0,0.0,0.0,0.0,0.0,0.0,0.0,0.0,0.0,0.0,0.0,0.0,0.0,0.0,0.0,0.0,0.0,0.0,0.0,0.0,0.0,0.0,0.0,0.0,0.0,0.0,0.0,0.0,0.0,0.0,-2.7544,-3.1141,-3.2043,-3.327,-3.4757,-3.5529,-3.5634,-3.5158,-3.402,-3.2561,0.0,0.0,0.0,0.0,0.0,0.0,0.0,0.0,0.0,0.0,0.0,0.0,0.0,0.0,0.0,0.0,0.0,0.0,0.0,0.0,0.0,0.0,0.0,0.0,0.0,0.0,0.0,0.0,0.0,0.0,0.0,0.0,0.0,0.0,0.0,0.0,0.0,0.0,0.0,0.0,0.0,0.0,-4.086,-4.1367,0.0,0.0,0.0,-4.126,-4.1647,0.0,0.0,0.0,0.0,0.0,0.0,0.0,0.0,0.0,0.0,0.0,0.0,0.0,0.0,0.0,0.0,0.0,0.0,0.0,0.0,0.0,0.0,0.0,0.0,0.0,0.0,0.0,0.0,0.0,0.0,0.0,0.0,0.0,0.0,0.0,0.0,0.0,0.0,0.0,0.0,0.0,0.0,0.0,0.0,0.0,0.0,0.0,0.0,0.0,0.0,0.0,0.0,0.0,0.0,0.0,0.0,0.0,-3.116,-3.1797,-3.2682,-3.4048,-3.4806,-3.4908,-3.4323,-3.327,0.0,0.0,0.0,0.0,0.0,0.0,0.0,0.0,0.0,0.0,0.0,0.0,0.0,0.0,0.0,0.0,0.0,0.0,0.0,0.0,0.0,0.0,0.0,0.0,0.0,0.0,0.0,-3.1467,0.0,0.0,0.0,0.0,0.0,0.0,0.0,0.0,0.0,0.0,0.0,0.0,0.0,0.0,-4.1429,-4.1594,-4.2192,-4.2417,0.0,0.0,-4.2028,-4.2521,-4.2611,-4.2249,0.0,0.0,0.0,0.0,0.0,0.0,0.0,0.0,0.0,0.0,0.0,0.0,0.0,0.0,0.0,0.0,0.0,0.0,0.0,0.0,0.0,0.0,0.0,0.0,0.0,0.0,0.0,0.0,0.0,0.0,0.0,0.0,0.0,0.0,0.0,0.0,0.0,0.0,0.0,0.0,0.0,0.0,0.0,0.0,0.0,0.0,0.0,0.0,0.0,0.0,0.0,0.0,0.0,0.0,-2.8011,-3.161,-3.2282,-3.3191,-3.4472,-3.5059,-3.5085,-3.4584,-3.3122,-3.1863,0.0,0.0,0.0,0.0,0.0,0.0,0.0,0.0,0.0,0.0,0.0,0.0,0.0,0.0,0.0,0.0,0.0,0.0,0.0,0.0,0.0,0.0,0.0,0.0,0.0,0.0,0.0,0.0,0.0,0.0,0.0,0.0,0.0,0.0,0.0,0.0,0.0,0.0,0.0,0.0,0.0,-4.1594,-4.2207,-4.2851,-4.3254,0.0,-4.321,-4.3225,-4.3254,-4.3269,-4.2836,-4.1579,0.0,0.0,0.0,0.0,0.0,0.0,0.0,0.0,0.0,0.0,0.0,0.0,0.0,0.0,0.0,0.0,0.0,0.0,0.0,0.0,0.0,0.0,0.0,0.0,0.0,0.0,0.0,0.0,0.0,0.0,0.0,0.0,0.0,0.0,0.0,0.0,0.0,0.0,0.0,0.0,0.0,0.0,0.0,0.0,0.0,0.0,0.0,0.0,0.0,0.0,0.0,0.0,0.0,-2.8613,-3.1404,-3.203,-3.2695,-3.3546,-3.4183,-3.4547,-3.4484,-3.2632,-3.157,0.0,0.0,0.0,0.0,0.0,0.0,0.0,0.0,0.0,0.0,0.0,0.0,0.0,0.0,0.0,0.0,0.0,0.0,0.0,0.0,0.0,0.0,0.0,0.0,0.0,0.0,0.0,0.0,-3.1655,-3.167,-3.1539,0.0,0.0,0.0,0.0,0.0,0.0,0.0,0.0,0.0,0.0,-4.1609,-4.2267,-4.291,0.0,0.0,-4.3344,-4.3344,-4.3344,-4.3344,-4.288,-4.1594,-4.1384,0.0,0.0,0.0,0.0,0.0,0.0,0.0,0.0,0.0,0.0,0.0,0.0,0.0,0.0,0.0,0.0,0.0,0.0,0.0,0.0,0.0,0.0,0.0,0.0,0.0,0.0,0.0,0.0,0.0,0.0,0.0,0.0,0.0,0.0,0.0,0.0,0.0,0.0,0.0,0.0,0.0,0.0,0.0,0.0,0.0,0.0,0.0,0.0,0.0,0.0,0.0,0.0,-2.8954,-3.101,-3.1613,-3.2259,-3.2826,-3.3446,-3.3806,-3.3917,-3.213,-3.1303,0.0,0.0,0.0,0.0,0.0,0.0,0.0,0.0,0.0,0.0,0.0,0.0,0.0,0.0,0.0,0.0,0.0,0.0,0.0,0.0,0.0,0.0,0.0,0.0,0.0,0.0,0.0,0.0,-3.1856,-3.1769,-3.1597,0.0,0.0,0.0,0.0,0.0,0.0,0.0,0.0,0.0,0.0,-4.1624,-4.2282,-4.291,-4.3344,-4.3344,-4.3344,-4.3344,-4.3344,-4.3344,-4.288,-4.1685,0.0,0.0,0.0,0.0,0.0,0.0,0.0,0.0,0.0,0.0,0.0,0.0,0.0,0.0,0.0,0.0,0.0,0.0,0.0,0.0,0.0,0.0,0.0,0.0,0.0,0.0,0.0,-2.3194,0.0,0.0,-2.3184,0.0,0.0,0.0,0.0,0.0,0.0,0.0,0.0,0.0,0.0,0.0,0.0,0.0,0.0,0.0,0.0,0.0,0.0,0.0,0.0,0.0,0.0,-2.8846,-3.0698,-3.1254,-3.1889,-3.2685,-3.2962,-3.3054,-3.3027,-3.1636,-3.106,-3.1373,0.0,0.0,0.0,0.0,0.0,0.0,0.0,0.0,0.0,0.0,0.0,0.0,0.0,0.0,0.0,0.0,0.0,0.0,0.0,0.0,0.0,0.0,0.0,0.0,0.0,0.0,-3.1996,-3.2012,-3.194,0.0,0.0,0.0,0.0,0.0,0.0,0.0,0.0,0.0,-3.8302,-4.0127,-4.1609,-4.2252,-4.291,-4.3314,-4.3329,-4.3344,-4.3344,-4.3329,-4.3344,-4.2974,0.0,0.0,0.0,0.0,0.0,0.0,0.0,0.0,0.0,0.0,0.0,0.0,0.0,0.0,0.0,0.0,0.0,0.0,0.0,0.0,0.0,0.0,0.0,0.0,0.0,0.0,0.0,-2.3194,-2.3184,0.0,0.0,0.0,0.0,0.0,0.0,0.0,0.0,0.0,0.0,0.0,-2.7834,-2.8634,0.0,0.0,0.0,0.0,0.0,0.0,0.0,0.0,0.0,0.0,0.0,0.0,-2.9314,-3.0264,-3.12,-3.1927,-3.2279,-3.2894,-3.3405,-3.3752,-3.2709,-3.1834,-3.133,0.0,0.0,0.0,0.0,0.0,0.0,0.0,0.0,0.0,0.0,0.0,0.0,0.0,0.0,0.0,0.0,0.0,0.0,0.0,0.0,0.0,0.0,0.0,0.0,0.0,-3.2247,0.0,0.0,0.0,0.0,0.0,0.0,0.0,0.0,0.0,0.0,-3.6746,-3.7644,-3.8302,-3.9738,-4.0965,-4.1624,-4.2267,-4.2929,0.0,0.0,0.0,0.0,0.0,0.0,0.0,0.0,0.0,0.0,0.0,0.0,0.0,0.0,-4.2218,-4.1492,-4.0852,-4.045,-4.0535,0.0,0.0,0.0,0.0,0.0,0.0,0.0,0.0,0.0,0.0,0.0,0.0,0.0,0.0,-2.3265,-2.3346,-2.3426,0.0,0.0,0.0,0.0,0.0,0.0,0.0,0.0,-2.8233,-2.8749,-2.85,-2.9252,-2.9642,0.0,-2.9628,-2.8879,0.0,0.0,0.0,0.0,0.0,0.0,0.0,0.0,-2.9457,-2.9862,-3.1035,-3.1764,-3.1929,-3.2667,-3.3246,-3.3669,-3.2931,-3.2231,-3.1507,-3.0569,-2.9957,0.0,0.0,0.0,0.0,0.0,0.0,0.0,0.0,0.0,0.0,0.0,0.0,0.0,0.0,0.0,0.0,0.0,0.0,0.0,0.0,0.0,0.0,0.0,-3.2358,0.0,0.0,0.0,0.0,0.0,0.0,0.0,0.0,0.0,-3.6607,-3.7233,-3.788,-3.8512,-3.9775,-4.0783,-4.122,0.0,0.0,0.0,0.0,0.0,0.0,0.0,-4.396,-4.3664,-4.3541,-4.355,-4.3463,-4.3874,-4.4315,-4.4455,0.0,0.0,-4.3253,-4.2715,-4.2452,-4.2282,-4.1582,-4.1165,-4.1516,-4.158,-4.1723,0.0,0.0,0.0,0.0,0.0,0.0,0.0,0.0,-2.3287,-2.3439,0.0,-2.3549,0.0,0.0,0.0,0.0,-2.6382,-2.701,0.0,0.0,-2.8344,-2.8609,-2.8779,-2.8831,-2.8924,-2.9015,-2.9113,-2.9158,-2.9248,-2.8699,0.0,0.0,0.0,0.0,0.0,0.0,-2.9287,-2.9366,-3.0645,-3.1421,-3.1643,-3.2141,-3.2503,-3.2761,-3.2454,-3.211,-3.1831,-3.1367,-3.0821,-3.0327,-2.9703,0.0,0.0,0.0,0.0,0.0,0.0,0.0,0.0,0.0,0.0,0.0,0.0,0.0,0.0,0.0,0.0,0.0,0.0,0.0,0.0,-3.2398,0.0,0.0,0.0,0.0,0.0,0.0,0.0,0.0,0.0,-3.6471,-3.706,-3.7664,-3.8265,-3.8987,0.0,0.0,0.0,0.0,-4.2971,-4.3077,-4.3639,-4.4143,-4.4358,-4.4358,-4.4341,-4.418,0.0,0.0,-4.4983,-4.5767,-4.6378,-4.6566,-4.6726,-4.6318,-4.4489,-4.4388,-4.4331,-4.3686,-4.3606,-4.3603,-4.3323,-4.4136,-4.5195,-2.594,0.0,0.0,0.0,0.0,-2.5109,-2.5109,-2.5078,-2.4778,-2.4542,-2.4451,-2.4434,0.0,0.0,0.0,0.0,0.0,0.0,-2.8475,-2.8899,-3.0099,-3.0405,-3.0157,-3.0696,-3.0745,-3.0403,-2.9999,-2.9803,-2.9862,-2.9301,-2.8712,-2.8137,0.0,0.0,0.0,0.0,-2.9483,-2.9902,-3.0829,-3.1482,-3.1909,-3.2417,-3.3044,-3.3908,-3.3166,-3.279,-3.2756,-3.1753,-3.0981,-3.0496,-3.0398,0.0,0.0,0.0,0.0,0.0,0.0,0.0,0.0,0.0,0.0,0.0,0.0,0.0,0.0,0.0,0.0,0.0,0.0,0.0,-3.2398,-3.2398,-3.2398,0.0,0.0,0.0,0.0,0.0,0.0,0.0,0.0,0.0,-3.8607,-3.85,-3.8821,0.0,0.0,-4.0791,-4.1265,-4.2119,-4.284,-4.3494,-4.4216,0.0,-4.5098,-4.5173,-4.5243,-4.5588,-4.5927,-4.6207,-4.6451,-4.6851,-4.7134,-4.7354,-4.7571,-4.7506,-4.6996,-4.6257,-4.5865,-4.5669,-4.5419,-4.5593,-4.6543,-4.6709,-4.6839,-2.7754,-2.6773,-2.6693,-2.631,-2.5896,-2.5885,-2.5885,-2.5865,-2.5695,-2.5602,-2.5559,-2.5518,-2.5612,-2.578,-2.6394,0.0,0.0,0.0,-2.9757,-3.024,-3.1436,-3.1824,-3.1551,-3.172,-3.1666,-3.13,-3.0751,-3.0477,-3.0464,-2.9902,-2.9444,-2.9065,0.0,-2.8399,-2.8752,-2.9327,-2.9784,-3.0137,-3.1056,-3.1776,-3.22,-3.2988,-3.3756,-3.4505,-3.3618,-3.3176,-3.3285,-3.2094,-3.1287,-3.1054,-3.0895,-3.0437,0.0,0.0,0.0,0.0,0.0,0.0,0.0,0.0,0.0,0.0,0.0,-3.2398,-3.2398,0.0,0.0,0.0,-3.2398,-3.2398,-3.2398,-3.2398,0.0,0.0,0.0,0.0,0.0,0.0,0.0,-3.508,-3.6506,-3.7963,-3.9211,-3.9345,-3.9705,-4.0816,-4.0919,-4.1075,-4.1479,0.0,-4.2762,-4.3254,-4.4216,-4.4804,-4.4827,-4.5159,-4.5619,-4.6217,-4.6627,-4.7043,-4.7489,-4.7605,-4.782,-4.7968,-4.8098,-4.8179,-4.8179,-4.7749,-4.7206,-4.686,-4.6573,-4.6712,-4.7483,-4.7496,-4.7675,-2.9291,-2.8566,-2.7314,-2.6527,-2.6103,-2.6103,-2.6103,-2.6173,-2.6313,-2.6552,-2.6779,-2.6704,-2.6981,-2.7499,-2.7892,0.0,-2.9303,-3.0329,-3.1073,-3.1591,-3.2411,-3.2738,-3.2672,-3.2163,-3.1798,-3.1759,-3.1261,-3.0986,-3.0947,-3.0451,-3.0202,-3.0176,-2.968,-2.9392,-2.9379,-2.9876,-3.015,-3.0215,-3.1329,-3.2082,-3.2489,-3.377,-3.4587,-3.478,-3.3765,-3.327,-3.338,-3.2198,-3.1612,-3.1769,-3.1237,-3.093,-3.0964,0.0,0.0,0.0,0.0,0.0,0.0,0.0,0.0,0.0,0.0,0.0,0.0,0.0,0.0,-3.2398,-3.2398,0.0,-3.2398,-3.2398,0.0,0.0,0.0,-3.2648,-3.2633,-3.4107,-3.5235,-3.5435,0.0,0.0,-3.9188,-3.9952,-4.0752,-4.158,-4.1688,-4.1654,-4.1638,-4.2271,-4.2683,-4.2778,-4.3838,-4.4526,-4.4273,-4.4829,-4.5524,-4.6176,-4.6599,-4.7187,-4.788,-4.8211,-4.8339,-4.8483,-4.8547,-4.853,-4.8547,-4.8593,-4.8488,-4.7488,-4.7366,-4.7256,-4.7009,-4.7389,-4.8107,-2.9879,-2.9125,-2.8794,-2.838,-2.7966,-2.7966,-2.8053,-2.8174,-2.761,-2.7679,-2.8261,-2.7689,-2.8191,-2.9439,-3.0008,-3.0696,-3.1404,-3.1849,-3.2123,-3.2437,-3.3104,-3.313,-3.2698,-3.2542,-3.2254,-3.1823,-3.1261,-3.0986,-3.0986,-3.0856,-3.0777,-3.0777,-3.0647,-3.0359,-2.9954,-3.0059,-3.042,-3.0987,-3.1589,-3.2386,-3.3297,-3.4249,-3.4567,-3.4212,-3.3731,-3.3245,-3.2915,-3.2148,-3.1784,-3.194,-3.1886,-3.1677,-3.1174,-3.1137,0.0,0.0,0.0,0.0,0.0,0.0,0.0,0.0,0.0,-3.2398,-3.2398,0.0,-3.2398,0.0,-3.2398,-3.2398,-3.2398,-3.2398,0.0,0.0,-3.2578,-3.2703,-3.2935,-3.4455,-3.5554,-3.5828,-3.7342,-3.8788,-3.9764,-4.0033,-4.0746,-4.2081,-4.2323,-4.2365,-4.2365,-4.2977,-4.3444,-4.3492,-4.4152,-4.4683,-4.4738,-4.5228,-4.5746,-4.6046,-4.6745,-4.7383,-4.7675,-4.8258,-4.8723,-4.8815,-4.8877,-4.8877,-4.8827,-4.8956,-4.8889,-4.8546,-4.8186,-4.7916,-4.8314,-4.8551,-4.8889,-3.046,-2.9622,-2.9611,-2.9466,-2.9197,-2.8884,-2.8896,-2.8943,-2.8433,-2.8518,-2.8925,-2.8656,-2.9155,-3.017,-3.1001,-3.1655,-3.2098,-3.2665,-3.301,-3.3117,-3.3692,-3.377,-3.3443,-3.3208,-3.279,-3.2215,-3.164,-3.1235,-3.0999,-3.0986,-3.0986,-3.0986,-3.0986,-3.083,-3.0516,-3.0516,-3.0734,-3.1272,-3.2009,-3.2874,-3.3785,-3.452,-3.461,-3.4105,-3.3767,-3.3291,-3.269,-3.2173,-3.194,-3.2094,-3.215,-3.2078,-3.1765,-3.1789,-3.1674,0.0,0.0,0.0,0.0,0.0,0.0,0.0,0.0,0.0,0.0,0.0,-3.2398,-3.2398,-3.2398,-3.2398,-3.2398,-3.2437,-3.2578,-3.2718,-3.292,-3.3065,-3.3361,-3.4942,-3.6061,-3.6275,-3.7812,-3.9133,-3.9764,-4.015,-4.074,-4.1627,-4.2072,-4.2452,-4.2982,-4.3395,-4.364,-4.3673,-4.4278,-4.4736,-4.4943,-4.4991,-4.5213,-4.5651,-4.62,-4.6767,-4.7147,-4.7612,-4.7899,-4.8037,-4.802,-4.802,-4.8003,-4.802,-4.7936,-4.7564,-4.7225,-4.7496,-4.8714,-4.9018,-4.9154,-3.0781,-3.0005,-2.9994,-2.9994,-3.0037,-2.9419,-2.9174,-2.9242,-2.9235,-2.9138,-2.9146,-2.9647,-2.9997,-3.0375,-3.1365,-3.2034,-3.2329,-3.3307,-3.3692,-3.3718,-3.4175,-3.4397,-3.4371,-3.377,-3.3195,-3.2672,-3.2045,-3.1457,-3.0999,-3.0986,-3.0986,-3.0986,-3.0986,-3.0986,-3.0986,-3.0986,-3.1123,-3.1421,-3.2489,-3.3409,-3.4059,-3.4668,-3.4712,-3.4163,-3.3892,-3.3367,-3.2687,-3.2228,-3.2094,-3.2191,-3.2247,-3.2287,-3.2398,-3.2398,-3.2398,0.0,-3.2398,0.0,0.0,0.0,0.0,0.0,0.0,0.0,0.0,-3.2398,-3.2398,-3.2398,-3.2398,-3.2398,-3.2382,-3.2508,-3.2703,-3.2951,-3.3309,-3.3555,-3.3809,-3.5432,-3.6623,-3.6727,-3.8272,-3.9379,-3.9587,-4.021,-4.0718,-4.0953,-4.1418,-4.2144,-4.3157,-4.3289,-4.3322,-4.3372,-4.3936,-4.4185,-4.4288,-4.4048,-4.4071,-4.4832,-4.5199,-4.5618,-4.6177,-4.6413,-4.6498,-4.6515,-4.6515,-4.6515,-4.6515,-4.6498,-4.6295,-4.5788,-4.5652,-4.6227,-4.7885,-4.8392,-4.8578,-3.0491,-3.0005,-2.9994,-3.0099,-3.038,-3.043,-3.0448,-3.0395,-2.9867,-2.9546,-2.9435,-3.0147,-3.0826,-3.1448,-3.24,-3.2984,-3.3405,-3.4022,-3.4241,-3.4254,-3.4358,-3.4397,-3.4332,-3.3352,-3.2803,-3.2633,-3.164,-3.1104,-3.0986,-3.0986,-3.0986,-3.0986,-3.0986,-3.0986,-3.0986,0.0,0.0,0.0,-3.2988,-3.3701,-3.4128,-3.4949,-3.4842,-3.3662,-3.3864,0.0,-3.2338,-3.2196,-3.2231,-3.2342,-3.2342,0.0,0.0,0.0,0.0,0.0,0.0,0.0,0.0,0.0,0.0,0.0,-3.2398,-3.2398,-3.2398,-3.2398,-3.2398,-3.2398,-3.2398,-3.2468,-3.2578,-3.2578,-3.2757,-3.3187,-3.3414,-3.3642,-3.4064,-3.5673,-3.6865,-3.7035,-3.8552,-3.9677,-3.9798,-3.9984,-4.0338,-4.0981,-4.1218,-4.1656,-4.2412,-4.2378,-4.2211,-4.2228,-4.2512,-4.2534,-4.2618,-4.2623,-4.2694,-4.2926,-4.3432,-4.391,-4.413,-4.4637,-4.4976,-4.4993,-4.501,-4.4993,-4.4993,-4.4993,-4.4942,-4.4823,-4.4773,-4.5094,-4.6109,-4.6329,-4.6329,-3.0419,-2.9994,-2.9994,-3.0193,0.0,-3.0724,-3.0827,-3.0981,-3.0575,-3.011,-2.968,-3.0068,-3.0679,-3.1572,-3.2438,-3.3129,-3.3725,-3.4217,-3.4397,-3.4397,-3.4397,-3.4254,-3.3992,-3.3404,-3.2842,-3.2254,-3.1692,-3.1261,-3.0999,-3.0986,-3.0986,-3.0986,-3.1136,-3.1123,-3.1123,-3.1582,-3.1936,-3.2417,-3.3171,-3.3879,-3.4452,-3.5162,-3.4925,-3.3819,-3.3985,0.0,0.0,0.0,0.0,0.0,0.0,0.0,0.0,-3.2398,0.0,-3.2398,-3.2398,-3.2398,-3.2398,-3.2398,-3.2398,-3.2398,-3.2398,-3.2398,-3.2398,-3.2398,-3.2398,-3.2398,-3.2468,-3.2508,-3.2594,-3.2796,-3.3065,-3.3435,-3.3745,-3.405,-3.4562,-3.5712,-3.6771,-3.7419,-3.8455,-3.9429,-3.9952,-3.9986,-4.0172,-4.0578,-4.0646,-4.0798,-4.1187,-4.1758,-4.2105,-4.2105,-4.2105,-4.2105,-4.2196,-4.2196,-4.2179,-4.2354,-4.2608,-4.2828,-4.2861,-4.3183,-4.3453,-4.3436,-4.3436,-4.3436,-4.3453,-4.3508,-4.3562,-4.3562,-4.3617,-4.3756,-4.416,-4.4716,-4.5128,-3.0346,-3.0005,-3.0109,-3.0193,-3.0505,-3.0724,-3.0981,-3.117,-3.0885,0.0,0.0,-2.9883,-3.0408,-3.1294,-3.2276,-3.3043,-3.3628,-3.4043,-3.4254,-3.4241,-3.4136,-3.3862,-3.3443,-3.3339,-3.2777,-3.1785,-3.1667,-3.1444,-3.0999,-3.1061,-3.1061,-3.1061,-3.1272,-3.136,-3.1434,-3.195,-3.2372,-3.2846,-3.3311,-3.4016,-3.4854,-3.5359,-3.516,-3.4227,-3.427,-3.3686,-3.2476,-3.2404,-3.2398,-3.2398,-3.2398,-3.2398,-3.2398,-3.2398,-3.2398,-3.2398,-3.2398,-3.2398,-3.2398,-3.2398,-3.2398,-3.2398,-3.2398,-3.2398,-3.2398,-3.2398,-3.2398,-3.2398,-3.2523,-3.2594,-3.2648,-3.3043,-3.3414,-3.371,-3.405,-3.4448,-3.4901,-3.5839,-3.6785,-3.7614,-3.8504,-3.9311,-3.9986,-4.0087,-4.0087,-4.0087,-4.0138,-4.0087,-4.0223,-4.1085,-4.1762,-4.1762,-4.1659,-4.1813,-4.188,-4.1813,-4.1897,-4.1779,-4.183,-4.1897,-4.1897,-4.195,-4.195,-4.195,-4.195,-4.2002,-4.2019,-4.2072,-4.2141,-4.2124,-4.2227,-4.2313,-4.2433,-4.3146,-4.3834,-3.0046,-2.9994,-3.0297,-3.0505,-3.0724,-3.1034,-3.1095,-3.0874,-3.0504,-2.9858,-2.9238,-2.9736,-3.0341,-3.1038,-3.2189,-3.297,-3.3445,-3.3584,-3.3705,-3.3679,-3.3169,-3.2881,-3.279,-3.2319,-3.1993,-3.1733,-3.1339,-3.1065,-3.0986,-3.1198,-3.1272,-3.1272,-3.1447,-3.1669,-3.1817,-3.2109,-3.2516,-3.3199,-3.3742,-3.4288,-3.4868,-3.5589,-3.5687,-3.5034,-3.4649,-3.4091,-3.3233,-3.2721,-3.2398,-3.2398,-3.2398,-3.2398,-3.2398,-3.2398,-3.2398,-3.2398,-3.2398,-3.2398,-3.2398,-3.2398,-3.2398,-3.2398,-3.2398,-3.2398,-3.2398,-3.2398,-3.2398,-3.2398,-3.2453,-3.2578,-3.2827,-3.3058,-3.3346,-3.3797,-3.4151,-3.4448,-3.4916,-3.6285,-3.7366,-3.7696,-3.9007,-3.9901,-4.0087,-4.0121,-4.0138,-4.0138,-4.0138,-4.0138,-4.0172,-4.024,-4.0392,-4.0392,-4.0392,-4.0392,-4.0544,-4.0409,-4.0527,-4.0392,-4.0527,-4.0612,-4.0629,-4.068,-4.0747,-4.0612,-4.0797,-4.0863,-4.0846,-4.0743,-4.0929,-4.0964,-4.0981,-4.0996,-4.103,-4.1254,-4.163,-2.9994,-2.9994,-3.0297,-3.0505,-3.0817,-3.0949,-3.0863,-3.0493,-3.0024,-2.9683,-2.9548,-2.9631,-3.0045,-3.0758,-3.1825,-3.2438,-3.2748,-3.3186,-3.3242,-3.3091,-3.2816,-3.2529,-3.2228,-3.1954,-3.1666,-3.1378,-3.1117,-3.1061,-3.1198,-3.1272,-3.1347,-3.1434,-3.1669,-3.189,-3.2036,-3.2372,-3.2789,-3.3479,-3.3879,-3.4409,-3.5154,-3.5703,-3.578,-3.5355,-3.5168,-3.4675,-3.3998,-3.3321,-3.2936,-3.2936,-3.2598,-3.2398,-3.2398,-3.2398,-3.2398,-3.2398,-3.2398,-3.2398,-3.2398,-3.2398,-3.2398,-3.2398,-3.2398,-3.2398,-3.2398,-3.2398,-3.2398,-3.2398,-3.2468,-3.2578,-3.2897,-3.3165,-3.3555,-3.405,-3.4349,-3.4691,-3.5252,-3.6259,-3.7177,-3.781,-3.877,-3.9681,-4.0137,-4.0188,-4.0238,-4.0271,-4.0337,-4.0337,-4.032,-4.0337,-4.0288,-4.0121,-4.0087,-4.0087,-4.007,-4.0087,-4.0138,-4.0188,-4.0171,-4.0238,-4.0288,-4.0387,-4.0387,-4.0387,-4.0485,-4.0485,-4.0534,-4.0583,-4.06,-4.0631,-4.068,-4.0728,-4.0728,-4.0728,-4.0937,-2.9984,-3.0099,-3.0401,-3.065,-3.0841,-3.086,-3.057,-3.0035,-2.9737,-2.9624,-2.9764,-2.9572,-2.984,-3.0566,-3.134,-3.1847,-3.2143,-3.2542,-3.2694,-3.2515,-3.2372,-3.2058,-3.1692,-3.1653,-3.1418,-3.1101,-3.1061,-3.1198,-3.136,-3.1421,-3.1508,-3.1743,-3.189,-3.2036,-3.2169,-3.2503,-3.2988,-3.3563,-3.3962,-3.461,-3.5464,-3.5831,-3.5919,-3.5768,-3.5553,-3.523,-3.4706,-3.4029,-3.3567,-3.3398,-3.2906,-3.2552,-3.2398,-3.2398,-3.2398,-3.2398,-3.2398,-3.2398,-3.2398,-3.2398,-3.2398,-3.2398,-3.2398,-3.2398,-3.2453,-3.2453,-3.2453,-3.2398,-3.2523,-3.2695,-3.31,-3.3508,-3.3998,-3.4623,-3.5038,-3.5462,-3.5971,-3.6683,-3.7418,-3.8173,-3.8882,-3.9644,-4.0135,-4.0355,-4.0387,-4.0485,-4.0485,-4.0485,-4.0485,-4.0485,-4.0436,-4.0271,-4.0171,-4.0238,-4.0171,-4.0171,-4.0238,-4.0337,-4.0355,-4.0387,-4.0485,-4.0534,-4.0534,-4.0534,-4.0583,-4.0631,-4.0566,-4.068,-4.0745,-4.0745,-4.0776,-4.0871,-4.0871,-4.0871,-4.0888,-2.9869,-3.0391,-3.0599,-3.0777,-3.0874,-3.0887,-3.0362,-2.962,-2.9796,-2.972,-2.9472,-2.9508,-2.9749,-3.0249,-3.0807,-3.1333,-3.1729,-3.1496,-3.159,-3.1785,-3.1378,-3.113,-3.1104,-3.1078,-3.1114,-3.1272,-3.1272,-3.136,-3.1596,-3.1743,-3.1963,-3.2123,-3.2169,-3.2169,-3.2241,-3.2503,-3.2917,-3.3339,-3.4045,-3.4773,-3.5623,-3.5894,-3.6133,-3.6384,-3.5799,-3.546,-3.5383,-3.4737,-3.4075,-3.3475,-3.3336,-3.3013,-3.249,-3.2398,-3.2398,-3.2398,-3.2398,-3.2398,-3.2398,-3.2398,-3.2398,-3.2398,-3.2398,-3.2468,-3.2578,-3.2594,-3.2539,-3.2499,-3.2539,-3.2998,-3.3692,-3.4241,-3.4878,-3.5805,-3.6315,-3.6887,-3.7364,-3.8248,-3.8916,-3.9208,-3.9788,-4.04,-4.0451,-4.0485,-4.0468,-4.0534,-4.0534,-4.0534,-4.0517,-4.0534,-4.0517,-4.0468,-4.0468,-4.0485,-4.0436,-4.0485,-4.0436,-4.0485,-4.0485,-4.0485,-4.0534,-4.0631,-4.068,-4.068,-4.0776,-4.0823,-4.0823,-4.0871,-4.0871,-4.084,-4.0871,-4.0871,-4.0871,-4.0871,-4.0871,-2.9764,-3.0359,-3.0427,-3.0439,-3.0482,-3.0188,-2.9838,-2.9573,-2.9465,-2.9254,-2.9082,-2.9229,-2.9511,-2.978,-3.0267,-3.0518,-3.0462,-3.0758,-3.0944,-3.1124,-3.1016,-3.0986,-3.0986,-3.1136,-3.1198,-3.1272,-3.1434,-3.1609,-3.1743,-3.1963,-3.2109,-3.2182,-3.2169,-3.2169,-3.2241,-3.2431,-3.2775,-3.3269,-3.3894,-3.4624,-3.5479,-3.5831,-3.6163,-3.6399,-3.623,-3.6076,-3.6014,-3.5414,-3.4752,-3.4075,-3.3644,-3.309,-3.2428,-3.2398,-3.2398,-3.2398,-3.2398,-3.2398,-3.2398,-3.2398,-3.2437,-3.2508,-3.2523,-3.2578,-3.2804,-3.3115,-3.3348,-3.3293,-3.3348,-3.3739,-3.4603,-3.5062,-3.5556,-3.6316,-3.6798,-3.727,-3.7778,-3.8614,-3.92,-3.9426,-4.0024,-4.0534,-4.06,-4.068,-4.0728,-4.0728,-4.0745,-4.0728,-4.071,-4.0728,-4.0728,-4.071,-4.0728,-4.068,-4.0583,-4.0485,-4.0534,-4.0583,-4.0648,-4.0648,-4.0745,-4.0793,-4.0823,-4.084,-4.0871,-4.0871,-4.0871,-4.0871,-4.0871,-4.0871,-4.0871,-4.0871,-4.0871,-4.0871,-4.0871,-2.9174,-2.9961,-3.0061,-3.0055,-2.9991,-2.9642,-2.9412,-2.9321,-2.9046,-2.8912,-2.8757,-2.8878,-2.9007,-2.9178,-2.9502,-2.9557,-2.9525,-2.9997,-3.0365,-3.0635,-3.0911,-3.1061,-3.1061,-3.1198,-3.1347,-3.1508,-3.1596,-3.183,-3.1963,-3.2109,-3.2169,-3.2169,-3.2169,-3.2241,-3.23,-3.2431,-3.2775,-3.3283,-3.3825,-3.4491,-3.5285,-3.5688,-3.61,-3.6429,-3.6492,-3.6492,-3.6476,-3.603,-3.5445,-3.4783,-3.4075,-3.3383,-3.2721,-3.2505,-3.2398,-3.2398,-3.2398,-3.2398,-3.2453,-3.2453,-3.2523,-3.2648,-3.2648,-3.2851,-3.3193,-3.3654,-3.4163,-3.457,-3.457,-3.4933,-3.548,-3.5832,-3.6339,-3.7024,-3.7475,-3.7953,-3.8468,-3.9168,-3.9668,-3.9829,-4.0323,-4.0631,-4.0728,-4.084,-4.0871,-4.0871,-4.0871,-4.0871,-4.0871,-4.0871,-4.0871,-4.0871,-4.0888,-4.0823,-4.0631,-4.0631,-4.0697,-4.0697,-4.0745,-4.0793,-4.0888,-4.0888,-4.0871,-4.0871,-4.0871,-4.0871,-4.0871,-4.0871,-4.0871,-4.0871,-4.0871,-4.0871,-4.0871,-4.0871,-4.0871,-2.8236,-2.9179,-2.985,-2.9969,-2.951,-2.9478,-2.9205,-2.8861,-2.8743,-2.8679,-2.8623,-2.8669,-2.8482,-2.8092,-2.8356,-2.8692,-2.9196,-2.9401,-2.9792,-3.0355,-3.0823,-3.1136,-3.1272,-3.1347,-3.1508,-3.1817,-3.189,-3.1977,-3.2209,-3.2209,-3.2169,-3.2196,-3.2296,-3.2327,-3.2417,-3.2561,-3.286,-3.3297,-3.377,-3.4438,-3.5103,-3.5559,-3.5958,-3.6414,-3.6492,-3.6492,-3.6492,-3.6461,-3.6107,-3.5445,-3.4783,-3.4091,-3.3383,-3.2721,-3.2398,-3.2398,-3.2398,-3.2453,-3.2578,-3.2594,-3.2734,-3.2874,-3.2975,-3.3232,-3.3991,-3.4211,-3.4816,-3.6095,-3.6143,-3.6237,-3.6211,-3.6644,-3.7311,-3.8091,-3.8875,-3.9373,-3.9884,-4.0082,-4.0497,-4.0672,-4.0772,-4.0823,-4.0888,-4.0871,-4.0871,-4.0871,-4.0871,-4.0871,-4.0871,-4.0871,-4.0871,-4.0871,-4.0871,-4.0871,-4.0871,-4.084,-4.084,-4.0888,-4.084,-4.0871,-4.0871,-4.0871,-4.0871,-4.0871,-4.0871,-4.0871,-4.0871,-4.0871,-4.0871,-4.0871,-4.0871,-4.0871,-4.0871,-4.0871,-4.0871,-2.7683,-2.8858,-2.9451,-2.9456,-2.9041,-2.9019,-2.8839,-2.8594,-2.8656,-2.8387,-2.8034,-2.8151,-2.7966,-2.7506,-2.7589,-2.7906,-2.8371,-2.8797,-2.9341,-2.9947,-3.0672,-3.1136,-3.136,-3.1582,-3.1743,-3.189,-3.2036,-3.2312,-3.2711,-3.2738,-3.2738,-3.2812,-3.2859,-3.2755,-3.2485,-3.2561,-3.2846,-3.3143,-3.3563,-3.4099,-3.481,-3.527,-3.5737,-3.6274,-3.6429,-3.6492,-3.6492,-3.6492,-3.6184,-3.5507,-3.5245,-3.4599,-3.349,-3.2767,-3.2453,-3.2523,-3.2523,-3.2594,-3.2773,-3.2788,-3.3084,-3.3584,-3.3685,-3.4023,-3.4794,-3.5354,-3.5843,-3.6316,-3.688,-3.7069,-3.7144,-3.7377,-3.7874,-3.8574,-3.9023,-3.9556,-4.007,-4.037,-4.0566,-4.0823,-4.0871,-4.0871,-4.0871,-4.0871,-4.0871,-4.0871,-4.0871,-4.0871,-4.0871,-4.0871,-4.0871,-4.0871,-4.0871,-4.0871,-4.0871,-4.0871,-4.0871,-4.0871,-4.0871,-4.0871,-4.0871,-4.0871,-4.0871,-4.0871,-4.0871,-4.0871,-4.0871,-4.0871,-4.0871,-4.0871,-4.0871,-4.0871,-4.0871,-4.0871,-4.0871,-2.7299,-2.8306,-2.8869,-2.8882,-2.8549,-2.8538,-2.8357,-2.8199,-2.8188,-2.7993,-2.7697,-2.7733,-2.7541,-2.7265,-2.7231,-2.7313,-2.7719,-2.8419,-2.9028,-2.9639,-3.052,-3.1075,-3.1434,-3.1743,-3.1963,-3.2077,-3.2312,-3.2766,-3.3295,-3.3411,-3.3499,-3.3499,-3.3444,-3.3262,-3.2949,-3.28,-3.2917,-3.3143,-3.3437,-3.3908,-3.4491,-3.5073,-3.5608,-3.6085,-3.6352,-3.6492,-3.6492,-3.6492,-3.6307,-3.5861,-3.5614,-3.4919,-3.3609,-3.3039,-3.281,-3.2679,-3.2718,-3.2773,-3.2982,-3.3154,-3.3576,-3.4109,-3.4376,-3.4857,-3.5663,-3.6153,-3.6469,-3.6785,-3.7148,-3.748,-3.7539,-3.7759,-3.8091,-3.8639,-3.9007,-3.9556,-4.0138,-4.0387,-4.0631,-4.0823,-4.0871,-4.0871,-4.0871,-4.0871,-4.0871,-4.0871,-4.0871,-4.0871,-4.0871,-4.0871,-4.0871,-4.0871,-4.0871,-4.0871,-4.0871,-4.0871,-4.0871,-4.0871,-4.0871,-4.0871,-4.0871,-4.0871,-4.0871,-4.0871,-4.0871,-4.0871,-4.0871,-4.0871,-4.0871,-4.0871,-4.0871,-4.0871,-4.0871,-4.0871,-4.0871,-2.69,-2.7631,-2.8207,-2.8196,-2.7978,-2.8036,-2.7942,-2.7755,-2.7495,-2.7538,-2.7504,-2.7307,-2.7288,-2.7231,-2.7231,-2.7231,-2.7394,-2.8111,-2.8816,-2.9419,-3.0292,-3.0999,-3.1522,-3.1897,-3.2112,-3.2386,-3.282,-3.3376,-3.3919,-3.4175,-3.4251,-3.4231,-3.3914,-3.3744,-3.3865,-3.3294,-3.3072,-3.3241,-3.3466,-3.3868,-3.4399,-3.4905,-3.5429,-3.5973,-3.6289,-3.6492,-3.6492,-3.6492,-3.6476,-3.6368,-3.5861,-3.4994,-3.4058,-3.3717,-3.3519,-3.3123,-3.299,-3.3029,-3.3269,-3.3787,-3.4172,-3.4549,-3.5031,-3.5679,-3.6295,-3.65,-3.6769,-3.7243,-3.7476,-3.7524,-3.7539,-3.7759,-3.8091,-3.8391,-3.904,-3.9573,-4.002,-4.037,-4.0583,-4.0823,-4.0871,-4.0871,-4.0871,-4.0871,-4.0871,-4.0871,-4.0871,-4.0871,-4.0871,-4.0871,-4.0871,-4.0871,-4.0871,-4.0871,-4.0871,-4.0871,-4.0871,-4.0871,-4.0871,-4.0871,-4.0871,-4.0871,-4.0871,-4.0871,-4.0871,-4.0871,-4.0871,-4.0871,-4.0871,-4.0871,-4.0871,-4.0871,-4.0871,-4.0871,-4.0871,-2.62,-2.6682,-2.7355,-2.7538,-2.7388,-2.7645,-2.7645,-2.7461,-2.7442,-2.7459,-2.7318,-2.7218,-2.7231,-2.7231,-2.7231,-2.7231,-2.7231,-2.78,-2.8431,-2.9118,-3.005,-3.0836,-3.1439,-3.2158,-3.2785,-3.3287,-3.3566,-3.4063,-3.4708,-3.4895,-3.4958,-3.4975,-3.4719,-3.4279,-3.3893,-3.3479,-3.3241,-3.3312,-3.3396,-3.3605,-3.3977,-3.4476,-3.5073,-3.5544,-3.607,-3.6352,-3.6492,-3.6492,-3.6492,-3.6492,-3.6399,-3.5995,-3.5323,-3.4805,-3.4519,-3.4516,-3.4485,-3.4541,-3.4652,-3.4881,-3.5212,-3.5663,-3.5979,-3.6421,-3.7022,-3.7133,-3.7227,-3.7524,-3.7583,-3.7642,-3.77,-3.7934,-3.8221,-3.8544,-3.9007,-3.9556,-4.0138,-4.0534,-4.0776,-4.0871,-4.0871,-4.0871,-4.0871,-4.0871,-4.0871,-4.0871,-4.0871,-4.0871,-4.0871,-4.0871,-4.0871,-4.0871,-4.0871,-4.0871,-4.0871,-4.0871,-4.0871,-4.0871,-4.0871,-4.0871,-4.0871,-4.0871,-4.0871,-4.0871,-4.0871,-4.0871,-4.0871,-4.0871,-4.0871,-4.0871,-4.0871,-4.0871,-4.0871,-4.0871,-4.0871,-2.5727,-2.6103,-2.6949,-2.7035,-2.6822,-2.7228,-2.7223,-2.7066,-2.7273,-2.7269,-2.7183,-2.7231,-2.7231,-2.7231,-2.7231,-2.7231,-2.7219,-2.7719,-2.8191,-2.8803,-2.9729,-3.0687,-3.154,-3.264,-3.3549,-3.4177,-3.4362,-3.4767,-3.5483,-3.5682,-3.5825,-3.5856,-3.5495,-3.4957,-3.4402,-3.3886,-3.3578,-3.3368,-3.3312,-3.3452,-3.3785,-3.4235,-3.4773,-3.5219,-3.5816,-3.6226,-3.6492,-3.6538,-3.6538,-3.6616,-3.6739,-3.6596,-3.6076,-3.5649,-3.5378,-3.5273,-3.5282,-3.5307,-3.541,-3.56,-3.5947,-3.6374,-3.6658,-3.6975,-3.7385,-3.7539,-3.7583,-3.7599,-3.77,-3.7743,-3.7817,-3.7992,-3.8335,-3.8583,-3.8936,-3.9523,-4.0238,-4.0697,-4.0888,-4.0871,-4.0871,-4.0871,-4.0871,-4.0871,-4.0871,-4.0871,-4.0871,-4.0871,-4.0871,-4.0871,-4.0871,-4.0871,-4.0871,-4.0871,-4.0871,-4.0871,-4.0871,-4.0871,-4.0871,-4.0871,-4.0871,-4.0871,-4.0871,-4.0871,-4.0871,-4.0871,-4.0871,-4.0871,-4.0871,-4.0871,-4.0871,-4.0871,-4.0871,-4.0871,-4.0871,-2.54,-2.5906,-2.6783,-2.6779,-2.6368,-2.6744,-2.6841,-2.6712,-2.6843,-2.709,-2.7149,-2.7231,-2.7231,-2.7231,-2.7231,-2.7231,-2.7313,-2.7626,-2.8042,-2.8578,-2.9456,-3.0548,-3.2029,-3.3242,-3.4235,-3.4893,-3.5145,-3.5525,-3.6108,-3.6373,-3.6707,-3.6568,-3.6199,-3.5784,-3.5152,-3.4576,-3.3916,-3.3522,-3.3368,-3.3396,-3.3605,-3.4074,-3.4534,-3.492,-3.5559,-3.6085,-3.6429,-3.6662,-3.6708,-3.6769,-3.6923,-3.6779,-3.6366,-3.6268,-3.6101,-3.5726,-3.5552,-3.5647,-3.571,-3.6169,-3.6516,-3.6611,-3.7128,-3.7539,-3.7524,-3.7642,-3.77,-3.77,-3.7817,-3.7934,-3.7934,-3.8107,-3.8319,-3.8639,-3.9098,-3.9679,-4.037,-4.0728,-4.0871,-4.0871,-4.0871,-4.0871,-4.0871,-4.0871,-4.0871,-4.0871,-4.0871,-4.0871,-4.0871,-4.0871,-4.0871,-4.0871,-4.0871,-4.0871,-4.0871,-4.0871,-4.0871,-4.0871,-4.0871,-4.0871,-4.0871,-4.0871,-4.0871,-4.0871,-4.0871,-4.0871,-4.0871,-4.0871,-4.0871,-4.0871,-4.0871,-4.0871,-4.0871,-4.0871,-4.0871,-2.4602,-2.5023,-2.554,-2.5868,-2.604,-2.6501,-2.6768,-2.682,-2.7067,-2.7149,-2.7231,-2.7231,-2.7231,-2.7231,-2.7231,-2.7231,-2.7231,-2.7452,-2.7788,-2.8191,-2.8895,-3.0699,-3.2568,-3.3858,-3.483,-3.565,-3.5785,-3.6094,-3.6549,-3.6628,-3.6786,-3.6886,-3.6416,-3.6023,-3.5714,-3.4773,-3.4211,-3.3944,-3.3508,-3.3312,-3.3452,-3.3785,-3.4167,-3.4677,-3.5285,-3.5879,-3.6476,-3.6907,-3.7074,-3.7074,-3.7134,-3.7163,-3.7121,-3.7089,-3.6979,-3.688,-3.6864,-3.6911,-3.6927,-3.7038,-3.7239,-3.7372,-3.7515,-3.77,-3.7817,-3.7817,-3.7876,-3.7876,-3.7992,-3.8107,-3.8164,-3.8278,-3.8544,-3.899,-3.947,-4.0003,-4.0419,-4.0728,-4.0871,-4.0871,-4.0871,-4.0871,-4.0871,-4.0871,-4.0871,-4.0871,-4.0871,-4.0871,-4.0871,-4.0871,-4.0871,-4.0871,-4.0871,-4.0871,-4.0871,-4.0871,-4.0871,-4.0871,-4.0871,-4.0871,-4.0871,-4.0871,-4.0871,-4.0871,-4.0871,-4.0871,-4.0871,-4.0871,-4.0871,-4.0871,-4.0871,-4.0871,-4.0871,-4.0871,-4.0871,-2.4229,-2.4495,-2.5228,-2.5647,-2.5928,-2.6385,-2.6727,-2.6891,-2.7138,-2.7231,-2.7231,-2.7231,-2.7231,-2.7231,-2.7231,-2.7231,-2.7231,-2.7441,-2.7684,-2.8274,-2.9622,-3.1299,-3.3028,-3.4458,-3.5491,-3.6031,-3.6232,-3.6484,-3.6721,-3.6786,-3.6915,-3.6936,-3.6627,-3.6332,-3.5995,-3.5152,-3.4464,-3.4183,-3.3649,-3.3312,-3.3312,-3.366,-3.3977,-3.4476,-3.5008,-3.58,-3.6616,-3.7105,-3.7329,-3.7329,-3.7329,-3.7389,-3.748,-3.748,-3.748,-3.748,-3.748,-3.7524,-3.7599,-3.7583,-3.7642,-3.7743,-3.7759,-3.7817,-3.7876,-3.7992,-3.8065,-3.8049,-3.8164,-3.8278,-3.8278,-3.8448,-3.8821,-3.9222,-3.9747,-4.0221,-4.0468,-4.0728,-4.0871,-4.0871,-4.0871,-4.0871,-4.0871,-4.0871,-4.0871,-4.0871,-4.0871,-4.0871,-4.0871,-4.0871,-4.0871,-4.0871,-4.0871,-4.0871,-4.0871,-4.0871,-4.0871,-4.0871,-4.0871,-4.0871,-4.0871,-4.0871,-4.0871,-4.0871,-4.0871,-4.0871,-4.0871,-4.0871,-4.0871,-4.0871,-4.0871,-4.0871,-4.0871,-4.0871,-4.0871,-2.4121,-2.4217,-2.5326,-2.5851,-2.6012,-2.6396,-2.6727,-2.6974,-2.7149,-2.7174,-2.7116,-2.7128,-2.7013,-2.7082,-2.7001,-2.7128,-2.7128,-2.7325,-2.7777,-2.8706,-3.027,-3.2089,-3.3014,-3.4887,-3.5789,-3.6166,-3.6563,-3.6721,-3.6786,-3.6915,-3.6993,-3.6964,-3.6936,-3.6697,-3.6192,-3.5489,-3.4871,-3.4365,-3.3677,-3.334,-3.3326,-3.366,-3.3937,-3.4317,-3.5219,-3.5991,-3.68,-3.7301,-3.748,-3.748,-3.748,-3.748,-3.748,-3.748,-3.748,-3.7539,-3.7539,-3.7583,-3.7658,-3.77,-3.7759,-3.7934,-3.7934,-3.7934,-3.7992,-3.8123,-3.8237,-3.8221,-3.8335,-3.8335,-3.8391,-3.86,-3.8952,-3.9329,-3.9799,-4.0171,-4.0468,-4.0728,-4.0871,-4.0871,-4.0871,-4.0871,-4.0871,-4.0871,-4.0871,-4.0871,-4.0871,-4.0871,-4.0871,-4.0871,-4.0871,-4.0871,-4.0871,-4.0871,-4.0871,-4.0871,-4.0871,-4.0871,-4.0871,-4.0871,-4.0871,-4.0871,-4.0871,-4.0871,-4.0871,-4.0871,-4.0871,-4.0871,-4.0871,-4.0871,-4.0871,-4.0871,-4.0871,-4.0871,-4.0871,-2.3604,-2.4365,-2.4906,-2.5635,-2.6396,-2.6715,-2.6962,-2.7115,-2.7115,-2.6944,-2.6703,-2.6622,-2.6416,-2.6106,-2.6473,-2.6622,-2.6691,-2.7048,-2.7626,-2.839,-3.0294,-3.1648,-3.2815,-3.4593,-3.5777,-3.6246,-3.6563,-3.6786,-3.6915,-3.6993,-3.6978,-3.6978,-3.6978,-3.6922,-3.6655,-3.5747,-3.5198,-3.4787,-3.3902,-3.334,-3.3326,-3.3536,-3.3937,-3.4399,-3.5574,-3.6414,-3.6938,-3.7301,-3.748,-3.748,-3.7539,-3.7539,-3.748,-3.7539,-3.7539,-3.7539,-3.7599,-3.7642,-3.77,-3.7817,-3.7934,-3.8107,-3.8107,-3.8164,-3.8278,-3.8294,-3.8335,-3.8351,-3.8391,-3.8391,-3.8408,-3.8655,-3.8952,-3.9382,-3.9799,-4.0238,-4.0583,-4.0793,-4.0871,-4.0871,-4.0871,-4.0871,-4.0871,-4.0871,-4.0871,-4.0871,-4.0871,-4.0871,-4.0871,-4.0871,-4.0871,-4.0871,-4.0871,-4.0871,-4.0871,-4.0871,-4.0871,-4.0871,-4.0871,-4.0871,-4.0871,-4.0871,-4.0871,-4.0871,-4.0871,-4.0871,-4.0871,-4.0871,-4.0871,-4.0871,-4.0918,-4.0918,-4.0918,-4.0918,-4.0965,-2.2634,-2.3443,-2.3991,-2.4798,-2.5705,-2.5947,-2.62,-2.6439,-2.6519,-2.637,-2.6163,-2.6106,-2.5957,-2.5727,-2.598,-2.6117,-2.6311,-2.6862,-2.7554,-2.8506,-3.0188,-3.1524,-3.2507,-3.4245,-3.5656,-3.6312,-3.6693,-3.6915,-3.6993,-3.6978,-3.6978,-3.6978,-3.6978,-3.6978,-3.681,-3.586,-3.5282,-3.4899,-3.3958,-3.3312,-3.3326,-3.3605,-3.4128,-3.4773,-3.5767,-3.6492,-3.6938,-3.7225,-3.7405,-3.748,-3.7539,-3.7539,-3.7539,-3.7524,-3.7583,-3.7599,-3.7716,-3.7817,-3.7934,-3.7992,-3.8091,-3.8294,-3.8294,-3.8351,-3.8408,-3.8391,-3.8391,-3.8391,-3.8391,-3.8391,-3.8408,-3.8655,-3.9023,-3.9418,-3.985,-4.0288,-4.0697,-4.084,-4.0871,-4.0871,-4.0871,-4.0871,-4.0871,-4.0871,-4.0871,-4.0871,-4.0871,-4.0871,-4.0871,-4.0871,-4.0871,-4.0871,-4.0871,-4.0871,-4.0871,-4.0871,-4.0871,-4.0871,-4.0871,-4.0871,-4.0871,-4.0871,-4.0871,-4.0871,-4.0871,-4.0871,-4.0871,-4.0871,-4.0935,-4.0982,-4.1029,-4.1029,-4.1059,-4.1088,-4.1152,-2.1627,-2.2165,-2.3082,-2.3897,-2.4679,-2.5016,-2.5373,-2.5673,-2.5716,-2.575,-2.5589,-2.5589,-2.5509,-2.5474,-2.5543,-2.5612,-2.5985,-2.6485,-2.7152,-2.7961,-2.9646,-3.0891,-3.2114,-3.3778,-3.5359,-3.6284,-3.6693,-3.6915,-3.6993,-3.6978,-3.6978,-3.6978,-3.6978,-3.6978,-3.6712,-3.5826,-3.5226,-3.4983,-3.3958,-3.3312,-3.3312,-3.3675,-3.4264,-3.5169,-3.5816,-3.6352,-3.6923,-3.7225,-3.7389,-3.7524,-3.7642,-3.7658,-3.7658,-3.7642,-3.77,-3.77,-3.7876,-3.7992,-3.8107,-3.8164,-3.8278,-3.8391,-3.8391,-3.8391,-3.8391,-3.8391,-3.8391,-3.8391,-3.8391,-3.8391,-3.8391,-3.8655,-3.9061,-3.9523,-3.9901,-4.032,-4.0728,-4.0871,-4.0871,-4.0871,-4.0871,-4.0871,-4.0871,-4.0871,-4.0871,-4.0871,-4.0871,-4.0871,-4.0871,-4.0871,-4.0871,-4.0871,-4.0871,-4.0871,-4.0871,-4.0871,-4.0871,-4.0935,-4.0935,-4.0918,-4.0918,-4.0871,-4.0871,-4.0871,-4.0871,-4.0918,-4.0935,-4.0982,-4.1,-4.1093,-4.114,-4.1105,-4.118,-4.1255,-4.1363,-2.1211,-2.1773,-2.2666,-2.3475,-2.4274,-2.4826,-2.5171,-2.5472,-2.5558,-2.5451,-2.5073,-2.5038,-2.4832,-2.4682,-2.49,-2.5344,-2.5831,-2.6193,-2.6529,-2.7156,-2.8645,-2.9915,-3.1327,-3.3079,-3.4701,-3.5855,-3.6494,-3.678,-3.6993,-3.6978,-3.6978,-3.6978,-3.6978,-3.6978,-3.6655,-3.584,-3.5208,-3.5085,-3.4028,-3.3438,-3.3396,-3.3605,-3.4196,-3.5219,-3.5816,-3.6414,-3.6923,-3.7405,-3.7642,-3.7642,-3.7817,-3.7817,-3.7817,-3.7876,-3.7876,-3.7934,-3.8049,-3.8164,-3.8221,-3.8294,-3.8351,-3.8391,-3.8391,-3.8391,-3.8391,-3.8391,-3.8391,-3.8391,-3.8391,-3.8391,-3.8408,-3.8711,-3.9115,-3.9575,-4.0003,-4.0436,-4.0776,-4.0871,-4.0871,-4.0871,-4.0871,-4.0871,-4.0871,-4.0871,-4.0871,-4.0871,-4.0871,-4.0871,-4.0871,-4.0871,-4.0871,-4.0871,-4.0871,-4.0871,-4.0871,-4.0871,-4.0871,-4.0935,-4.0935,-4.0918,-4.0918,-4.0918,-4.0871,-4.0965,-4.0965,-4.0982,-4.0982,-4.1029,-4.1123,-4.1215,-4.1244,-4.1244,-4.1408,-4.1587,-4.1701,-2.0145,-2.07,-2.1581,-2.2449,-2.3161,-2.3842,-2.431,-2.4612,-2.4837,-2.4786,-2.4602,-2.4533,-2.4418,-2.4303,-2.4407,-2.4906,-2.5501,-2.5843,-2.6134,-2.6804,-2.7948,-2.8954,-3.0151,-3.1967,-3.3527,-3.4798,-3.5714,-3.6415,-3.695,-3.6978,-3.6978,-3.6978,-3.6978,-3.6978,-3.681,-3.6136,-3.5489,-3.5127,-3.4281,-3.3607,-3.3354,-3.3675,-3.4385,-3.5154,-3.5816,-3.6399,-3.7013,-3.7329,-3.7626,-3.7817,-3.7934,-3.8049,-3.8049,-3.8107,-3.8107,-3.8107,-3.8221,-3.8278,-3.8278,-3.8408,-3.8391,-3.8391,-3.8391,-3.8391,-3.8391,-3.8391,-3.8391,-3.8391,-3.8408,-3.8464,-3.8504,-3.8821,-3.9239,-3.9696,-4.007,-4.0502,-4.0793,-4.0871,-4.0871,-4.0871,-4.0871,-4.0871,-4.0871,-4.0871,-4.0871,-4.0871,-4.0871,-4.0871,-4.0871,-4.0935,-4.0935,-4.0918,-4.0965,-4.0965,-4.0965,-4.0965,-4.0965,-4.0982,-4.0982,-4.1012,-4.0995,-4.0995,-4.1041,-4.1088,-4.1105,-4.1076,-4.1105,-4.1134,-4.1272,-4.1363,-4.1408,-4.1515,-4.1719,-4.1892,-4.2019,-1.9152,-1.952,-2.0566,-2.1425,-2.2035,-2.2852,-2.3479,-2.3824,-2.4162,-2.4246,-2.4189,-2.4212,-2.4223,-2.42,-2.4319,-2.4576,-2.5145,-2.5536,-2.5884,-2.6366,-2.7369,-2.8238,-2.9202,-3.0737,-3.2455,-3.3865,-3.4884,-3.5892,-3.6802,-3.6978,-3.6978,-3.6978,-3.6978,-3.6978,-3.6824,-3.6304,-3.5784,-3.5307,-3.4649,-3.3944,-3.3677,-3.3854,-3.4505,-3.527,-3.5752,-3.6336,-3.7134,-3.7433,-3.7685,-3.7934,-3.8107,-3.8221,-3.8278,-3.8335,-3.8335,-3.8294,-3.8351,-3.8408,-3.8391,-3.8391,-3.8391,-3.8391,-3.8391,-3.8391,-3.8391,-3.8391,-3.8391,-3.8391,-3.8464,-3.8504,-3.8655,-3.8985,-3.9415,-3.9816,-4.0188,-4.0502,-4.0793,-4.0871,-4.0871,-4.0871,-4.0871,-4.0918,-4.0918,-4.0871,-4.0871,-4.0871,-4.0871,-4.0871,-4.0918,-4.0982,-4.0982,-4.1012,-4.0995,-4.0995,-4.0995,-4.1041,-4.1041,-4.1105,-4.1105,-4.1088,-4.1134,-4.1163,-4.1209,-4.1226,-4.1198,-4.1198,-4.1226,-4.1318,-4.1453,-4.156,-4.1648,-4.1805,-4.2002,-4.2251,-4.2454,-1.8851,-1.9161,-2.002,-2.0809,-2.1655,-2.2478,-2.3075,-2.3677,-2.4043,-2.4189,-2.4189,-2.4189,-2.4189,-2.4273,-2.4418,-2.4609,-2.4884,-2.5158,-2.5433,-2.5781,-2.6542,-2.7384,-2.8237,-3.0144,-3.1651,-3.2982,-3.4163,-3.5544,-3.6494,-3.6824,-3.6978,-3.6978,-3.6978,-3.6978,-3.6922,-3.6473,-3.6051,-3.5817,-3.4933,-3.42,-3.3927,-3.4005,-3.452,-3.5154,-3.5737,-3.6305,-3.7134,-3.7567,-3.7918,-3.8123,-3.8278,-3.8335,-3.8391,-3.8391,-3.8391,-3.8391,-3.8408,-3.8391,-3.8391,-3.8391,-3.8391,-3.8391,-3.8391,-3.8391,-3.8391,-3.8391,-3.8391,-3.8391,-3.8504,-3.8672,-3.886,-3.9309,-3.9729,-4.0087,-4.0404,-4.0648,-4.0823,-4.0871,-4.0871,-4.0935,-4.0935,-4.0935,-4.0935,-4.0935,-4.0871,-4.0871,-4.0871,-4.0918,-4.0918,-4.1029,-4.1076,-4.1088,-4.1088,-4.1088,-4.1088,-4.1071,-4.1134,-4.1198,-4.118,-4.1226,-4.1272,-4.13,-4.1318,-4.138,-4.1335,-4.1471,-4.1587,-4.1675,-4.1736,-4.1823,-4.1952,-4.2127,-4.2315,-4.2555,-4.2844,-1.878,-1.8931,-1.9872,-2.0654,-2.1262,-2.2166,-2.2852,-2.3446,-2.3824,-2.4127,-2.42,-2.4189,-2.4273,-2.4418,-2.4562,-2.479,-2.4981,-2.5111,-2.5241,-2.5394,-2.5993,-2.6646,-2.761,-2.9096,-3.0592,-3.2139,-3.3322,-3.4491,-3.5571,-3.6332,-3.6585,-3.6922,-3.695,-3.6978,-3.6852,-3.6697,-3.624,-3.5568,-3.4768,-3.4113,-3.4077,-3.421,-3.4601,-3.5184,-3.5737,-3.643,-3.7118,-3.7626,-3.8033,-3.8221,-3.8391,-3.8391,-3.8391,-3.8391,-3.8391,-3.8391,-3.8391,-3.8391,-3.8391,-3.8391,-3.8391,-3.8391,-3.8391,-3.8391,-3.8391,-3.8391,-3.8391,-3.8391,-3.86,-3.8805,-3.9061,-3.9504,-3.9918,-4.0288,-4.0551,-4.0697,-4.0823,-4.0871,-4.0918,-4.0982,-4.1047,-4.1029,-4.1012,-4.1029,-4.1029,-4.1012,-4.1041,-4.1071,-4.1088,-4.1134,-4.118,-4.1163,-4.1163,-4.1163,-4.1163,-4.1163,-4.1226,-4.1272,-4.1335,-4.1363,-4.1408,-4.1471,-4.1515,-4.156,-4.1604,-4.1736,-4.1892,-4.1892,-4.1909,-4.2079,-4.2305,-4.2454,-4.2634,-4.2902,-4.3178,-1.87,-1.8851,-1.9784,-2.042,-2.0944,-2.1863,-2.2703,-2.3224,-2.3751,-2.4043,-2.42,-2.4261,-2.4345,-2.449,-2.4778,-2.4909,-2.5123,-2.5253,-2.5312,-2.5477,-2.5776,-2.6365,-2.7338,-2.8456,-2.998,-3.1356,-3.2608,-3.368,-3.459,-3.5288,-3.5855,-3.6501,-3.6346,-3.6493,-3.6564,-3.638,-3.5991,-3.5366,-3.4711,-3.4292,-3.4254,-3.4414,-3.4735,-3.5264,-3.5894,-3.6523,-3.7194,-3.7685,-3.8049,-3.8335,-3.8391,-3.8391,-3.8391,-3.8391,-3.8391,-3.8391,-3.8391,-3.8391,-3.8391,-3.8391,-3.8391,-3.8391,-3.8391,-3.8391,-3.8391,-3.8391,-3.8391,-3.8391,-3.8711,-3.8969,-3.9276,-3.9713,-4.0121,-4.0436,-4.068,-4.0776,-4.0871,-4.0918,-4.0982,-4.1029,-4.1076,-4.1134,-4.1134,-4.1169,-4.1169,-4.1169,-4.1134,-4.1192,-4.1255,-4.1255,-4.13,-4.13,-4.1346,-4.1346,-4.1346,-4.1346,-4.1363,-4.1408,-4.1408,-4.1471,-4.1515,-4.1587,-4.1631,-4.1736,-4.1866,-4.2019,-4.2187,-4.2145,-4.2103,-4.2369,-4.2609,-4.2768,-4.2976,-4.325,-4.3495,-1.878,-1.9002,-1.9706,-2.0177,-2.0712,-2.1721,-2.2478,-2.299,-2.3604,-2.397,-2.42,-2.4345,-2.449,-2.4646,-2.4838,-2.5052,-2.5123,-2.5253,-2.536,-2.5587,-2.6008,-2.6516,-2.7406,-2.853,-2.9826,-3.0712,-3.1928,-3.2983,-3.3779,-3.4234,-3.4727,-3.5282,-3.5578,-3.5526,-3.56,-3.5759,-3.5608,-3.5168,-3.4836,-3.4643,-3.4477,-3.4616,-3.4935,-3.5365,-3.5943,-3.6569,-3.7358,-3.7743,-3.8049,-3.8335,-3.8391,-3.8391,-3.8391,-3.8391,-3.8391,-3.8391,-3.8391,-3.8391,-3.8391,-3.8391,-3.8391,-3.8391,-3.8391,-3.8391,-3.8391,-3.8391,-3.8391,-3.8448,-3.8766,-3.9077,-3.9435,-3.9918,-4.0337,-4.0583,-4.0793,-4.0888,-4.0982,-4.1012,-4.1076,-4.1076,-4.1152,-4.1226,-4.1272,-4.1335,-4.129,-4.1244,-4.129,-4.1346,-4.1346,-4.1408,-4.1453,-4.1498,-4.1542,-4.1542,-4.1542,-4.156,-4.1498,-4.1498,-4.156,-4.156,-4.1604,-4.1692,-4.1805,-4.1977,-4.2103,-4.2269,-4.2472,-4.2472,-4.2512,-4.2727,-4.2918,-4.3069,-4.3286,-4.3529,-4.3716,-1.8851,-1.8993,-1.9478,-1.9951,-2.0498,-2.1349,-2.2101,-2.2628,-2.3298,-2.3813,-2.42,-2.4418,-2.4562,-2.4706,-2.4909,-2.5182,-2.5253,-2.5241,-2.5492,-2.5829,-2.6263,-2.6858,-2.7743,-2.8587,-2.9615,-3.0568,-3.1549,-3.2255,-3.2935,-3.3406,-3.3605,-3.4126,-3.479,-3.5243,-3.5331,-3.5253,-3.5167,-3.5022,-3.4802,-3.4549,-3.4545,-3.4683,-3.5001,-3.5264,-3.6022,-3.6646,-3.7254,-3.7669,-3.8033,-3.8278,-3.8391,-3.8391,-3.8391,-3.8391,-3.8391,-3.8391,-3.8391,-3.8391,-3.8391,-3.8391,-3.8391,-3.8391,-3.8391,-3.8391,-3.8391,-3.8391,-3.8391,-3.856,-3.886,-3.9222,-3.9523,-4.0054,-4.0534,-4.0745,-4.0888,-4.0982,-4.1059,-4.1105,-4.1198,-4.1198,-4.129,-4.1363,-4.1426,-4.1515,-4.1426,-4.138,-4.1408,-4.1453,-4.1453,-4.1515,-4.156,-4.156,-4.1604,-4.1604,-4.1604,-4.1604,-4.1604,-4.1648,-4.1692,-4.1692,-4.1736,-4.1909,-4.2019,-4.2187,-4.2333,-4.2591,-4.2747,-4.2824,-4.29,-4.3031,-4.3214,-4.341,-4.3615,-4.38,-4.3878,-1.8851,-1.9073,-1.9469,-1.9794,-2.0264,-2.1051,-2.1731,-2.2402,-2.299,-2.3677,-2.4273,-2.449,-2.4718,-2.4921,-2.5052,-2.5182,-2.5241,-2.536,-2.5661,-2.6058,-2.6517,-2.7198,-2.8086,-2.8911,-2.9631,-3.0545,-3.1259,-3.195,-3.2544,-3.286,-3.3241,-3.3677,-3.417,-3.4652,-3.4868,-3.4952,-3.4889,-3.4744,-3.4596,-3.4414,-3.4414,-3.475,-3.5052,-3.5314,-3.6085,-3.6708,-3.7254,-3.7669,-3.8033,-3.8278,-3.8391,-3.8391,-3.8391,-3.8391,-3.8391,-3.8391,-3.8391,-3.8391,-3.8391,-3.8391,-3.8391,-3.8391,-3.8391,-3.8391,-3.8391,-3.8391,-3.8391,-3.8448,-3.8843,-3.9312,-3.961,-4.0154,-4.0631,-4.0888,-4.1012,-4.1105,-4.1152,-4.118,-4.129,-4.1335,-4.1426,-4.1471,-4.1515,-4.156,-4.1515,-4.1471,-4.1498,-4.1498,-4.1542,-4.156,-4.156,-4.1604,-4.1604,-4.1604,-4.1604,-4.1604,-4.1604,-4.1692,-4.1736,-4.1823,-4.1909,-4.2061,-4.2269,-4.2454,-4.2652,-4.288,-4.3068,-4.3196,-4.3232,-4.3286,-4.3479,-4.3649,-4.3749,-4.391,-4.391,-1.8922,-1.9301,-1.9478,-1.9715,-2.002,-2.0819,-2.1502,-2.2187,-2.2927,-2.3751,-2.4418,-2.4646,-2.4849,-2.5052,-2.517,-2.5241,-2.5312,-2.5324,-2.5588,-2.6069,-2.6574,-2.7315,-2.8065,-2.8879,-2.9616,-3.0393,-3.111,-3.1776,-3.2417,-3.2775,-3.3143,-3.3521,-3.3846,-3.4057,-3.3982,-3.4283,-3.4443,-3.4443,-3.4443,-3.4428,-3.4481,-3.4735,-3.5052,-3.5479,-3.6085,-3.6785,-3.7314,-3.7685,-3.8049,-3.8351,-3.8408,-3.8391,-3.8391,-3.8391,-3.8391,-3.8391,-3.8391,-3.8391,-3.8391,-3.8391,-3.8391,-3.8391,-3.8391,-3.8391,-3.8391,-3.8391,-3.8391,-3.8448,-3.8898,-3.9312,-3.9714,-4.0187,-4.068,-4.0982,-4.1105,-4.1226,-4.1272,-4.1318,-4.1408,-4.1471,-4.1515,-4.1604,-4.1604,-4.1604,-4.1604,-4.1604,-4.1604,-4.1604,-4.1604,-4.1604,-4.1604,-4.1604,-4.1604,-4.1648,-4.1648,-4.1604,-4.1648,-4.1736,-4.1866,-4.1977,-4.2127,-4.2315,-4.2516,-4.2711,-4.2957,-4.3196,-4.3375,-4.3548,-4.3548,-4.3582,-4.3716,-4.3846,-4.3942,-4.3974,-4.3974,-1.8922,-1.9301,-1.939,-1.9548,-1.9794,-2.0644,-2.1262,-2.1883,-2.2777,-2.3666,-2.4273,-2.4646,-2.4921,-2.5111,-2.5253,-2.5312,-2.5312,-2.5324,-2.5588,-2.6117,-2.6683,-2.7351,-2.8025,-2.8811,-2.9586,-3.0216,-3.0898,-3.1556,-3.22,-3.2632,-3.3143,-3.3452,-3.3799,-3.3937,-3.4088,-3.4278,-3.4414,-3.4414,-3.4414,-3.4414,-3.4414,-3.4735,-3.5037,-3.5385,-3.607,-3.6738,-3.7358,-3.7743,-3.8049,-3.8351,-3.8391,-3.8391,-3.8391,-3.8391,-3.8391,-3.8391,-3.8391,-3.8391,-3.8391,-3.8391,-3.8391,-3.8391,-3.8391,-3.8391,-3.8391,-3.8391,-3.8448,-3.86,-3.8952,-3.9382,-3.9816,-4.032,-4.0793,-4.1047,-4.1215,-4.129,-4.1363,-4.1453,-4.156,-4.156,-4.1604,-4.1604,-4.1604,-4.1648,-4.1648,-4.1648,-4.1648,-4.1604,-4.1604,-4.1604,-4.1604,-4.1604,-4.1604,-4.1648,-4.1692,-4.171,-4.1797,-4.1927,-4.2037,-4.2187,-4.2374,-4.2577,-4.2808,-4.3032,-4.3267,-4.3513,-4.3615,-4.3734,-4.3814,-4.3878,-4.3929,-4.3961,-4.3974,-4.4005,-4.4005,-1.8922,-1.9301,-1.9292,-1.939,-1.9724,-2.0411,-2.1108,-2.1873,-2.2852,-2.3677,-2.4273,-2.4646,-2.4921,-2.5123,-2.5253,-2.5312,-2.5312,-2.5324,-2.5588,-2.6117,-2.6683,-2.7276,-2.7948,-2.8655,-2.9316,-2.9973,-3.057,-3.1233,-3.2128,-3.2561,-3.3143,-3.3716,-3.4074,-3.4128,-3.4264,-3.4346,-3.4414,-3.4414,-3.4414,-3.4414,-3.4394,-3.4574,-3.4881,-3.5329,-3.5902,-3.6506,-3.7219,-3.7727,-3.8033,-3.8278,-3.8391,-3.8391,-3.8391,-3.8391,-3.8391,-3.8391,-3.8391,-3.8391,-3.8391,-3.8391,-3.8391,-3.8391,-3.8391,-3.8391,-3.8391,-3.8448,-3.856,-3.8766,-3.9115,-3.954,-3.9969,-4.0485,-4.0888,-4.1169,-4.1307,-4.1426,-4.1471,-4.156,-4.1604,-4.1604,-4.1604,-4.1604,-4.1604,-4.1648,-4.1692,-4.1692,-4.171,-4.1648,-4.1648,-4.1648,-4.1648,-4.1692,-4.1692,-4.1797,-4.1841,-4.1858,-4.1945,-4.2072,-4.2246,-4.2414,-4.2691,-4.2902,-4.3105,-4.3373,-4.3563,-4.3734,-4.3832,-4.3897,-4.3929,-4.3942,-4.3974,-4.3974,-4.4005,-4.4005,-4.4005,-1.8922,-1.9292,-1.9292,-1.939,-1.9645,-2.0108,-2.1108,-2.2402,-2.3001,-2.3751,-2.449,-2.4646,-2.4992,-2.5253,-2.5312,-2.5312,-2.5312,-2.5312,-2.5576,-2.6021,-2.649,-2.7079,-2.7698,-2.8336,-2.9036,-2.9679,-3.038,-3.1145,-3.2055,-3.2846,-3.3493,-3.3922,-3.421,-3.4332,-3.4346,-3.4346,-3.4414,-3.4414,-3.4414,-3.4327,-3.4301,-3.4215,-3.4584,-3.5093,-3.5599,-3.6319,-3.7077,-3.7727,-3.8033,-3.8278,-3.8391,-3.8391,-3.8391,-3.8391,-3.8391,-3.8391,-3.8391,-3.8391,-3.8391,-3.8391,-3.8391,-3.8391,-3.8391,-3.8391,-3.8448,-3.856,-3.8711,-3.8969,-3.9329,-3.9799,-4.0254,-4.0662,-4.1105,-4.129,-4.1471,-4.156,-4.156,-4.1604,-4.1604,-4.1604,-4.1648,-4.1648,-4.1692,-4.1692,-4.178,-4.1841,-4.1858,-4.1815,-4.1771,-4.1797,-4.1797,-4.1841,-4.1884,-4.1945,-4.1987,-4.203,-4.2139,-4.2264,-4.2472,-4.2634,-4.2902,-4.3178,-4.3391,-4.3597,-4.3781,-4.3897,-4.3929,-4.3961,-4.3992,-4.4005,-4.4005,-4.4005,-4.4005,-4.4005,-4.4005,-1.8922,-1.9301,-1.9292,-1.9301,-1.9469,-2.0029,-2.1031,-2.2187,-2.2852,-2.3519,-2.4345,-2.4646,-2.4992,-2.53,-2.5312,-2.5312,-2.5312,-2.5324,-2.5372,-2.5721,-2.6178,-2.6659,-2.7251,-2.7936,-2.87,-2.9514,-3.0215,-3.1057,-3.2028,-3.2917,-3.3716,-3.4059,-3.4206,-3.4356,-3.4356,-3.4385,-3.4327,-3.4312,-3.4283,-3.4191,-3.4032,-3.3847,-3.4307,-3.4721,-3.5278,-3.61,-3.7089,-3.7695,-3.8049,-3.8351,-3.8408,-3.8391,-3.8391,-3.8391,-3.8391,-3.8391,-3.8391,-3.8391,-3.8391,-3.8391,-3.8391,-3.8464,-3.8504,-3.8504,-3.8616,-3.8766,-3.8969,-3.9276,-3.9679,-4.0087,-4.05,-4.0901,-4.1244,-4.1426,-4.1515,-4.156,-4.1604,-4.1604,-4.1604,-4.1648,-4.1692,-4.1754,-4.1797,-4.1841,-4.1927,-4.1945,-4.1945,-4.1945,-4.1902,-4.1945,-4.1927,-4.1927,-4.203,-4.2115,-4.2139,-4.2163,-4.2328,-4.249,-4.2691,-4.2902,-4.316,-4.3426,-4.3649,-4.38,-4.3897,-4.3961,-4.3992,-4.4005,-4.4005,-4.4005,-4.4005,-4.4005,-4.4005,-4.4005,-4.4005,-1.8779,-1.9283,-1.9292,-1.9381,-1.9469,-1.9951,-2.0722,-2.1645,-2.2402,-2.3224,-2.397,-2.4502,-2.4909,-2.5182,-2.5241,-2.5312,-2.5312,-2.5312,-2.5336,-2.5468,-2.5829,-2.6238,-2.6805,-2.746,-2.8277,-2.9135,-3.005,-3.0908,-3.1901,-3.3115,-3.3937,-3.4182,-3.4172,-3.4051,-3.3935,-3.3717,-3.3572,-3.3688,-3.3775,-3.3864,-3.3703,-3.3441,-3.3657,-3.4348,-3.4925,-3.5879,-3.699,-3.7578,-3.8107,-3.8351,-3.8408,-3.8391,-3.8391,-3.8391,-3.8391,-3.8391,-3.8391,-3.8391,-3.8391,-3.8391,-3.8391,-3.8504,-3.8616,-3.8782,-3.8876,-3.9094,-3.9276,-3.9575,-3.9986,-4.0434,-4.0789,-4.1134,-4.1272,-4.1471,-4.156,-4.1604,-4.1604,-4.1604,-4.1648,-4.1692,-4.1754,-4.1841,-4.1945,-4.197,-4.2055,-4.2055,-4.2097,-4.2139,-4.2097,-4.2055,-4.2037,-4.2037,-4.2139,-4.2282,-4.2305,-4.2432,-4.2631,-4.2824,-4.3032,-4.325,-4.3461,-4.3615,-4.38,-4.3897,-4.3942,-4.4005,-4.4005,-4.4005,-4.4005,-4.4005,-4.4005,-4.4005,-4.4005,-4.4005,-4.4005,-1.8482,-1.9182,-1.9246,-1.9335,-1.9557,-1.9784,-2.0255,-2.0944,-2.1873,-2.2788,-2.3604,-2.42,-2.4766,-2.5111,-2.5241,-2.5312,-2.5312,-2.5312,-2.5312,-2.5312,-2.5685,-2.6033,-2.6442,-2.7043,-2.7748,-2.8623,-2.9529,-3.0511,-3.1771,-3.2779,-3.36,-3.4172,-3.3703,-3.3398,-3.334,-3.3021,-3.289,-3.2948,-3.3114,-3.3229,-3.3167,-3.2812,-3.2586,-3.3757,-3.4549,-3.5368,-3.6578,-3.7495,-3.8237,-3.8351,-3.8391,-3.8391,-3.8391,-3.8391,-3.8391,-3.8391,-3.8391,-3.8391,-3.8391,-3.8448,-3.852,-3.8616,-3.8782,-3.8985,-3.9131,-3.9362,-3.9609,-3.9952,-4.0353,-4.0741,-4.1088,-4.1272,-4.1453,-4.1515,-4.156,-4.1648,-4.1648,-4.1692,-4.1754,-4.1841,-4.1884,-4.197,-4.2012,-4.2037,-4.2139,-4.2163,-4.2145,-4.2246,-4.2246,-4.2222,-4.2205,-4.2163,-4.2287,-4.2427,-4.2609,-4.2747,-4.2957,-4.3142,-4.3375,-4.3513,-4.3649,-4.38,-4.3929,-4.3961,-4.3974,-4.4005,-4.4005,-4.4005,-4.4005,-4.4005,-4.4005,-4.4005,-4.4005,-4.4005,-4.4005,-1.7934,-1.844,-1.8733,-1.9017,-1.9362,-1.9548,-1.9951,-2.0489,-2.1195,-2.2176,-2.3372,-2.4116,-2.4706,-2.504,-2.5241,-2.5312,-2.5312,-2.5312,-2.5312,-2.5312,-2.5528,-2.5769,-2.6021,-2.6454,-2.7077,-2.7767,-2.8705,-3.0058,-3.1474,-3.2291,-3.2723,-3.2999,-3.2832,-3.2861,-3.2832,-3.2513,-3.2411,-3.228,-3.2465,-3.2547,-3.2438,-3.2522,-3.2617,-3.3465,-3.426,-3.5373,-3.654,-3.7616,-3.8124,-3.8351,-3.8408,-3.8391,-3.8391,-3.8391,-3.8391,-3.8391,-3.8391,-3.8391,-3.8391,-3.8448,-3.8576,-3.8727,-3.8931,-3.9185,-3.9398,-3.9625,-3.9935,-4.032,-4.0662,-4.0995,-4.129,-4.1426,-4.156,-4.1604,-4.1604,-4.1692,-4.1736,-4.1797,-4.1902,-4.1987,-4.2012,-4.2097,-4.2079,-4.2163,-4.2246,-4.2246,-4.2246,-4.2287,-4.2346,-4.2346,-4.2427,-4.2409,-4.2472,-4.2609,-4.2824,-4.305,-4.3232,-4.341,-4.3582,-4.3734,-4.3851,-4.3897,-4.3992,-4.3992,-4.4005,-4.4005,-4.4005,-4.4005,-4.4005,-4.4005,-4.4005,-4.4005,-4.4005,-4.4005,-4.4005,-1.7584,-1.809,-1.855,-1.8944,-1.9265,-1.939,-1.9715,-2.0177,-2.0799,-2.1721,-2.2916,-2.3824,-2.449,-2.4981,-2.5182,-2.5312,-2.5312,-2.5312,-2.5312,-2.5312,-2.5336,-2.548,-2.5709,-2.5973,-2.6566,-2.7273,-2.8646,-3.0113,-3.1464,-3.2255,-3.2686,-3.2985,-3.2904,-3.2469,-3.244,-3.228,-3.1961,-3.1642,-3.1973,-3.2188,-3.2075,-3.208,-3.2254,-3.2982,-3.4203,-3.5361,-3.6358,-3.7432,-3.8165,-3.8408,-3.8391,-3.8391,-3.8391,-3.8391,-3.8391,-3.8391,-3.8391,-3.8391,-3.8448,-3.8504,-3.8672,-3.8876,-3.9077,-3.9382,-3.9867,-4.0138,-4.032,-4.0645,-4.0884,-4.1209,-4.1408,-4.1604,-4.1648,-4.1692,-4.1797,-4.1841,-4.1884,-4.197,-4.2012,-4.2037,-4.2121,-4.2222,-4.2205,-4.2205,-4.2287,-4.2287,-4.2287,-4.2346,-4.2387,-4.2508,-4.2588,-4.2688,-4.2747,-4.2882,-4.3069,-4.3304,-4.3532,-4.3667,-4.3767,-4.3865,-4.3929,-4.3992,-4.4005,-4.4005,-4.4005,-4.4005,-4.4005,-4.4005,-4.4005,-4.4005,-4.4005,-4.4005,-4.4005,-4.4005,-4.4005,-1.7297,-1.7999,-1.8467,-1.8861,-1.921,-1.9292,-1.9539,-1.9942,-2.0557,-2.1482,-2.2467,-2.3457,-2.42,-2.4778,-2.5123,-2.5253,-2.5312,-2.5312,-2.5312,-2.5312,-2.5312,-2.5384,-2.5516,-2.5733,-2.6261,-2.7235,-2.8625,-3.0106,-3.1527,-3.2042,-3.26,-3.3564,-3.3151,-3.2324,-3.2266,-3.1917,-3.1482,-3.1675,-3.2003,-3.2438,-3.2256,-3.196,-3.244,-3.3244,-3.4351,-3.545,-3.635,-3.727,-3.8222,-3.8391,-3.8391,-3.8391,-3.8391,-3.8391,-3.8391,-3.8391,-3.8391,-3.8408,-3.8464,-3.8616,-3.8821,-3.9023,-3.9329,-3.9764,-4.0238,-4.0534,-4.071,-4.0931,-4.1163,-4.1346,-4.1542,-4.1736,-4.178,-4.1823,-4.1927,-4.1987,-4.2012,-4.2097,-4.2121,-4.2103,-4.2205,-4.2287,-4.2287,-4.2287,-4.2287,-4.2287,-4.2328,-4.2387,-4.2508,-4.2688,-4.2786,-4.2975,-4.3105,-4.325,-4.3356,-4.3495,-4.3734,-4.3832,-4.3878,-4.3942,-4.4005,-4.4005,-4.4005,-4.4005,-4.4005,-4.4005,-4.4005,-4.4005,-4.4005,-4.4005,-4.4005,-4.4005,-4.4005,-4.4005,-4.4005,-1.6893,-1.7651,-1.8064,-1.8467,-1.8843,-1.9155,-1.9539,-1.9942,-2.0411,-2.1328,-2.2402,-2.3298,-2.4043,-2.4801,-2.5182,-2.5312,-2.5312,-2.5312,-2.5312,-2.5312,-2.5312,-2.5312,-2.536,-2.5575,-2.6091,-2.7163,-2.8352,-2.9414,-3.096,-3.1417,-3.1682,-3.2333,-3.17,-3.1598,-3.2396,-3.2048,-3.1816,-3.2053,-3.2566,-3.3063,-3.3285,-3.3337,-3.3813,-3.4632,-3.5644,-3.6374,-3.7094,-3.7842,-3.8222,-3.8391,-3.8391,-3.8391,-3.8391,-3.8391,-3.8391,-3.8391,-3.8391,-3.8464,-3.856,-3.8711,-3.8969,-3.9312,-3.9679,-4.0171,-4.06,-4.0888,-4.1105,-4.1363,-4.156,-4.1604,-4.1754,-4.1884,-4.1945,-4.197,-4.2055,-4.2097,-4.2121,-4.2163,-4.2246,-4.2246,-4.2246,-4.2287,-4.2287,-4.2287,-4.2328,-4.2346,-4.2427,-4.2468,-4.2649,-4.2824,-4.2995,-4.3214,-4.3444,-4.36,-4.3719,-4.3716,-4.3865,-4.3942,-4.3974,-4.4005,-4.4005,-4.4005,-4.4005,-4.4005,-4.4005,-4.4005,-4.4005,-4.4005,-4.4005,-4.4005,-4.4005,-4.4005,-4.4005,-4.4005,-4.4005]}]]